[[{"header":{"parameterUnit":"m.s-1","parameterCategory":1,"la1":30.6,"la2":29.2853,"lo1":-89.7004,"lo2":-87.6739,"dy":0.0162,"dx":0.0183,"nx":112,"ny":82,"refTime":"2026-03-14T00:00:00:Z","depth":0,"parameterNumber":2,"parameterNumberName":"U-component_of_WINDS"},"data":[0.0,0.0,0.0,0.0,0.0,0.0,0.0,0.0,0.0,0.0,0.0,0.0,0.0,0.0,0.0,0.0,0.0,0.0,0.0,0.0,0.0,0.0,0.0,0.0,0.0,0.0,0.0,0.0,0.0,0.0,0.0,0.0,0.0,0.0,0.0,0.0,0.0,0.0,0.0,0.0,0.0,0.0,0.0,0.0,0.0,0.0,0.0,0.0,0.0,0.0,0.0,0.0,0.0,0.0,0.0,0.0,0.0,0.0,0.0,0.0,0.0,0.0,0.0,0.0,0.0,0.0,0.0,0.0,0.0,0.0,0.0,0.0,0.0,0.0,0.0,0.0,0.0,0.0,0.0,0.0,0.0,0.0,0.0,0.0,0.0,0.0,0.0,0.0,0.0,0.0,-2.8515,-3.0409,-3.1142,-3.0895,-2.9406,-2.9059,-2.7846,-2.5337,0.0,0.0,0.0,0.0,0.0,0.0,0.0,0.0,0.0,0.0,0.0,0.0,0.0,0.0,0.0,0.0,0.0,0.0,0.0,0.0,0.0,0.0,0.0,0.0,0.0,0.0,0.0,0.0,0.0,0.0,0.0,0.0,0.0,0.0,0.0,0.0,0.0,0.0,0.0,0.0,0.0,0.0,0.0,0.0,0.0,0.0,0.0,0.0,0.0,0.0,0.0,0.0,0.0,0.0,0.0,0.0,0.0,0.0,0.0,0.0,0.0,0.0,0.0,0.0,0.0,0.0,0.0,0.0,0.0,0.0,0.0,0.0,0.0,0.0,0.0,0.0,0.0,0.0,0.0,0.0,0.0,0.0,0.0,0.0,0.0,0.0,0.0,0.0,0.0,0.0,0.0,0.0,0.0,0.0,0.0,0.0,0.0,0.0,0.0,0.0,0.0,0.0,0.0,0.0,-2.69,-2.949,-2.9181,-2.8657,-2.8345,-2.7627,-2.6059,-2.34,0.0,0.0,0.0,0.0,0.0,0.0,0.0,0.0,0.0,0.0,0.0,0.0,0.0,0.0,0.0,0.0,0.0,0.0,0.0,0.0,0.0,0.0,0.0,0.0,0.0,0.0,0.0,0.0,0.0,0.0,0.0,0.0,0.0,0.0,0.0,0.0,0.0,0.0,0.0,0.0,0.0,0.0,0.0,0.0,0.0,0.0,0.0,0.0,0.0,0.0,0.0,0.0,0.0,0.0,0.0,0.0,0.0,0.0,0.0,0.0,0.0,0.0,0.0,0.0,0.0,0.0,0.0,0.0,0.0,0.0,0.0,0.0,0.0,0.0,0.0,0.0,0.0,0.0,0.0,0.0,0.0,0.0,0.0,0.0,0.0,0.0,0.0,0.0,0.0,0.0,0.0,0.0,0.0,0.0,0.0,0.0,0.0,0.0,0.0,0.0,0.0,0.0,0.0,-2.6026,-2.68,-2.8066,-2.7349,-2.6594,-2.6123,-2.5257,-2.4606,-2.4285,-2.1367,0.0,0.0,0.0,0.0,0.0,0.0,0.0,0.0,0.0,0.0,0.0,0.0,0.0,0.0,0.0,0.0,0.0,0.0,0.0,0.0,0.0,0.0,0.0,0.0,0.0,0.0,0.0,0.0,0.0,0.0,0.0,0.0,0.0,0.0,0.0,0.0,0.0,0.0,0.0,0.0,0.0,0.0,0.0,0.0,0.0,0.0,0.0,0.0,0.0,0.0,0.0,0.0,0.0,0.0,0.0,0.0,0.0,0.0,0.0,0.0,0.0,0.0,0.0,0.0,0.0,0.0,0.0,0.0,0.0,0.0,0.0,0.0,0.0,0.0,0.0,0.0,0.0,0.0,0.0,0.0,0.0,0.0,0.0,0.0,0.0,0.0,0.0,0.0,0.0,0.0,0.0,0.0,0.0,0.0,0.0,0.0,0.0,0.0,0.0,0.0,0.0,0.0,-2.6376,-2.6454,-2.668,-2.567,-2.4742,-2.4115,-2.3523,-2.3314,-2.3644,-2.0493,0.0,0.0,0.0,0.0,0.0,0.0,0.0,0.0,0.0,0.0,0.0,0.0,0.0,0.0,0.0,0.0,0.0,0.0,0.0,0.0,0.0,0.0,0.0,0.0,0.0,0.0,0.0,0.0,0.0,0.0,0.0,0.0,0.0,0.0,0.0,0.0,0.0,0.0,0.0,0.0,0.0,0.0,0.0,0.0,0.0,0.0,0.0,0.0,0.0,0.0,0.0,0.0,0.0,0.0,0.0,0.0,0.0,0.0,0.0,0.0,0.0,0.0,0.0,0.0,0.0,0.0,0.0,0.0,0.0,0.0,0.0,0.0,0.0,0.0,0.0,0.0,0.0,0.0,0.0,0.0,0.0,0.0,0.0,0.0,0.0,0.0,0.0,0.0,0.0,0.0,0.0,0.0,0.0,0.0,0.0,0.0,0.0,0.0,0.0,0.0,0.0,0.0,-2.4525,-2.4818,-2.5703,-2.4239,-2.3166,-2.3097,-2.35,-2.2163,-1.8472,-2.2412,0.0,0.0,0.0,0.0,0.0,0.0,0.0,0.0,0.0,0.0,0.0,0.0,0.0,0.0,0.0,0.0,0.0,0.0,0.0,0.0,0.0,0.0,0.0,0.0,0.0,0.0,0.0,0.0,0.0,0.0,0.0,0.0,0.0,0.0,0.0,0.0,0.0,0.0,0.0,0.0,0.0,0.0,0.0,0.0,0.0,0.0,0.0,0.0,0.0,0.0,0.0,0.0,0.0,0.0,0.0,0.0,0.0,0.0,0.0,0.0,0.0,0.0,0.0,0.0,0.0,0.0,0.0,0.0,0.0,0.0,0.0,0.0,0.0,0.0,0.0,0.0,0.0,0.0,0.0,0.0,0.0,0.0,0.0,0.0,0.0,0.0,0.0,0.0,0.0,0.0,0.0,0.0,0.0,0.0,0.0,0.0,0.0,0.0,0.0,0.0,0.0,0.0,-2.2758,-2.3086,-2.3973,-2.2954,-2.227,-2.2474,-2.1967,-2.0978,-1.9478,0.0,0.0,0.0,0.0,0.0,0.0,0.0,0.0,0.0,0.0,0.0,0.0,0.0,0.0,0.0,0.0,0.0,0.0,0.0,0.0,0.0,0.0,0.0,0.0,0.0,0.0,0.0,0.0,0.0,0.0,0.0,0.0,0.0,0.0,0.0,0.0,0.0,0.0,0.0,0.0,0.0,0.0,0.0,0.0,0.0,0.0,0.0,0.0,0.0,0.0,0.0,0.0,0.0,0.0,0.0,0.0,0.0,0.0,0.0,0.0,0.0,0.0,0.0,0.0,0.0,0.0,0.0,0.0,0.0,0.0,0.0,0.0,0.0,0.0,0.0,0.0,0.0,0.0,0.0,0.0,0.0,0.0,0.0,0.0,0.0,0.0,0.0,0.0,0.0,0.0,0.0,0.0,0.0,0.0,0.0,0.0,0.0,0.0,0.0,0.0,0.0,0.0,-2.105,-2.136,-2.1572,-2.2188,-2.1357,-2.0841,-2.1036,-1.9614,-1.8718,-1.8686,0.0,0.0,0.0,0.0,0.0,0.0,0.0,0.0,0.0,0.0,0.0,0.0,0.0,0.0,0.0,0.0,0.0,0.0,0.0,0.0,0.0,0.0,0.0,0.0,0.0,0.0,0.0,0.0,0.0,0.0,0.0,0.0,0.0,0.0,0.0,0.0,0.0,0.0,0.0,0.0,0.0,0.0,0.0,0.0,0.0,0.0,0.0,0.0,0.0,0.0,0.0,0.0,0.0,0.0,0.0,0.0,0.0,0.0,0.0,0.0,0.0,0.0,0.0,0.0,0.0,0.0,0.0,0.0,0.0,0.0,0.0,0.0,0.0,0.0,0.0,0.0,0.0,0.0,0.0,0.0,0.0,0.0,0.0,0.0,0.0,0.0,0.0,0.0,0.0,0.0,0.0,0.0,0.0,0.0,0.0,0.0,0.0,0.0,0.0,0.0,0.0,0.0,-2.0142,-2.0367,-2.0363,-2.0367,-1.9429,-1.8733,-1.8581,-1.6556,-1.5183,0.0,0.0,0.0,0.0,0.0,0.0,0.0,0.0,0.0,0.0,0.0,0.0,0.0,0.0,0.0,0.0,0.0,0.0,0.0,0.0,0.0,0.0,0.0,0.0,0.0,0.0,0.0,0.0,0.0,0.0,0.0,0.0,0.0,0.0,0.0,0.0,0.0,0.0,0.0,0.0,0.0,0.0,0.0,0.0,0.0,0.0,0.0,0.0,0.0,0.0,0.0,0.0,0.0,0.0,0.0,0.0,0.0,0.0,0.0,0.0,0.0,0.0,0.0,0.0,0.0,0.0,0.0,0.0,0.0,0.0,0.0,0.0,0.0,0.0,0.0,0.0,0.0,0.0,0.0,0.0,0.0,0.0,0.0,0.0,0.0,0.0,0.0,0.0,0.0,0.0,0.0,0.0,0.0,0.0,0.0,0.0,0.0,0.0,0.0,0.0,0.0,0.0,0.0,-1.8294,-1.8532,-1.8578,-1.8565,-1.8328,-1.7944,-1.7374,-1.5907,-1.3456,-0.9804,0.0,0.0,0.0,0.0,0.0,0.0,0.0,0.0,0.0,0.0,0.0,0.0,0.0,0.0,0.0,0.0,0.0,0.0,0.0,0.0,0.0,0.0,0.0,0.0,0.0,0.0,0.0,0.0,0.0,0.0,0.0,0.0,0.0,0.0,0.0,0.0,0.0,0.0,0.0,0.0,0.0,0.0,0.0,0.0,0.0,0.0,0.0,0.0,0.0,0.0,0.0,0.0,0.0,0.0,0.0,0.0,0.0,0.0,0.0,0.0,0.0,0.0,0.0,0.0,0.0,0.0,0.0,0.0,0.0,0.0,0.0,0.0,0.0,0.0,0.0,0.0,0.0,0.0,0.0,0.0,0.0,0.0,0.0,0.0,0.0,0.0,0.0,0.0,0.0,0.0,0.0,0.0,0.0,0.0,0.0,0.0,0.0,0.0,0.0,0.0,0.0,0.0,-1.6418,-1.6999,-1.7132,-1.6753,-1.6424,-1.6013,-1.552,-1.3926,-1.1597,-0.8424,0.0,0.0,0.0,0.0,0.0,0.0,0.0,0.0,0.0,0.0,0.0,0.0,0.0,0.0,0.0,0.0,0.0,0.0,0.0,0.0,0.0,0.0,0.0,0.0,0.0,0.0,0.0,0.0,0.0,0.0,0.0,0.0,0.0,0.0,0.0,0.0,0.0,0.0,0.0,0.0,0.0,0.0,0.0,0.0,0.0,0.0,0.0,0.0,0.0,0.0,0.0,0.0,0.0,0.0,0.0,0.0,0.0,0.0,0.0,0.0,0.0,0.0,0.0,0.0,0.0,0.0,0.0,0.0,0.0,0.0,0.0,0.0,0.0,0.0,0.0,0.0,0.0,0.0,0.0,0.0,0.0,0.0,0.0,0.0,0.0,0.0,0.0,0.0,0.0,0.0,0.0,0.0,0.0,0.0,0.0,0.0,0.0,0.0,0.0,0.0,0.0,0.0,-1.4538,-1.5517,-1.5832,-1.5057,-1.417,-1.3561,-1.3446,-1.1397,-0.9968,-0.9641,0.0,0.0,0.0,0.0,0.0,0.0,0.0,0.0,0.0,0.0,0.0,0.0,0.0,0.0,0.0,0.0,0.0,0.0,0.0,0.0,0.0,0.0,0.0,0.0,0.0,0.0,0.0,0.0,0.0,0.0,0.0,0.0,0.0,0.0,0.0,0.0,0.0,0.0,0.0,0.0,0.0,0.0,0.0,0.0,0.0,0.0,0.0,0.0,0.0,0.0,0.0,0.0,0.0,0.0,0.0,0.0,0.0,0.0,0.0,0.0,-2.2003,-2.1973,0.0,0.0,0.0,0.0,0.0,0.0,0.0,0.0,0.0,0.0,0.0,0.0,0.0,0.0,0.0,0.0,0.0,0.0,0.0,0.0,0.0,0.0,0.0,0.0,0.0,0.0,0.0,0.0,0.0,0.0,0.0,0.0,0.0,0.0,0.0,0.0,0.0,0.0,0.0,0.0,-1.2533,-1.3081,-1.3541,-1.4038,-1.3425,-1.2963,-1.2881,-1.1685,-1.0573,-0.9735,-0.7779,0.0,0.0,0.0,0.0,0.0,0.0,0.0,0.0,0.0,0.0,0.0,0.0,0.0,0.0,0.0,0.0,0.0,0.0,0.0,0.0,0.0,0.0,0.0,0.0,0.0,0.0,0.0,0.0,0.0,0.0,0.0,0.0,0.0,0.0,0.0,0.0,0.0,0.0,0.0,0.0,0.0,0.0,0.0,0.0,0.0,0.0,0.0,0.0,0.0,0.0,0.0,0.0,0.0,0.0,0.0,0.0,0.0,0.0,0.0,-2.4891,-2.4656,0.0,0.0,0.0,0.0,0.0,0.0,0.0,0.0,0.0,0.0,0.0,0.0,0.0,0.0,0.0,0.0,0.0,0.0,0.0,0.0,0.0,0.0,0.0,0.0,0.0,0.0,0.0,0.0,0.0,0.0,0.0,0.0,0.0,0.0,0.0,0.0,0.0,0.0,0.0,0.0,-1.1283,-1.2031,-1.2503,-1.2627,-1.2368,-1.1995,-1.1538,-1.0968,-1.0366,-0.9744,-0.8214,0.0,0.0,0.0,0.0,0.0,0.0,0.0,0.0,0.0,0.0,0.0,0.0,0.0,0.0,0.0,0.0,0.0,0.0,0.0,0.0,0.0,0.0,0.0,0.0,0.0,0.0,0.0,0.0,0.0,0.0,0.0,0.0,0.0,0.0,0.0,0.0,0.0,0.0,0.0,0.0,0.0,0.0,0.0,0.0,0.0,0.0,0.0,0.0,0.0,0.0,0.0,0.0,0.0,-2.5561,-2.7951,-3.0804,-3.0864,-2.8984,-2.5702,-2.5644,-2.5658,-2.5215,-1.8835,0.0,0.0,0.0,0.0,0.0,0.0,0.0,0.0,0.0,0.0,0.0,0.0,0.0,0.0,0.0,0.0,0.0,0.0,0.0,0.0,0.0,0.0,-0.779,-0.9147,-0.9387,-0.9055,-0.8163,0.0,0.0,0.0,0.0,0.0,0.0,0.0,0.0,0.0,0.0,0.0,-1.0441,-1.1373,-1.1828,-1.1426,-1.1318,-1.0989,-1.0268,-1.0082,-0.992,-0.9737,-0.8643,-0.7883,0.0,0.0,0.0,0.0,0.0,0.0,0.0,0.0,0.0,0.0,0.0,0.0,0.0,0.0,0.0,0.0,0.0,0.0,0.0,0.0,0.0,0.0,0.0,0.0,0.0,0.0,0.0,0.0,0.0,0.0,0.0,0.0,-2.2505,-2.517,0.0,0.0,0.0,0.0,0.0,0.0,0.0,0.0,0.0,0.0,0.0,0.0,0.0,-2.5393,-2.6376,-2.7704,-2.8048,-2.7414,-2.9188,-3.0296,-3.0799,-3.0813,-2.893,-2.5691,-2.5683,0.0,-2.5382,-2.1448,0.0,0.0,0.0,0.0,0.0,0.0,0.0,0.0,0.0,0.0,0.0,0.0,0.0,0.0,0.0,0.0,0.0,0.0,0.0,0.0,0.0,0.0,-0.7466,-0.8353,-0.8347,-0.8276,-0.8881,-0.9005,-0.8725,-0.7788,-0.7318,-0.6777,0.0,0.0,0.0,0.0,0.0,0.0,-0.9641,-1.0116,-1.0565,-1.1244,-1.0753,-1.0321,-1.0202,-1.0075,-0.9944,-0.9793,-0.9199,-0.8975,-0.9273,-0.8235,0.0,0.0,0.0,0.0,0.0,0.0,0.0,0.0,0.0,0.0,0.0,0.0,0.0,0.0,0.0,0.0,0.0,0.0,0.0,0.0,0.0,0.0,0.0,0.0,0.0,0.0,0.0,0.0,0.0,-2.4861,-2.8647,-3.1881,-3.0452,-2.708,0.0,0.0,0.0,0.0,0.0,0.0,0.0,0.0,0.0,-2.6936,-2.6471,-2.7142,-2.903,-2.8999,-2.9201,-2.957,-3.036,-3.0724,-3.0618,-2.8787,-2.7128,-2.5598,-2.3628,-2.2792,-2.2715,-2.1198,-1.7626,-1.3119,0.0,0.0,0.0,0.0,-1.4118,-1.5392,-1.54,-1.5383,-1.5339,-1.5306,0.0,0.0,0.0,0.0,0.0,0.0,0.0,-0.6311,-0.6719,-0.6672,-0.6824,-0.8009,-0.8168,-0.8328,-0.9275,-0.9488,-0.9153,-0.8083,-0.789,-0.7417,-0.5834,-0.5958,0.0,0.0,0.0,-0.8341,-0.9499,-0.9781,-1.0085,-1.0574,-1.0332,-1.0133,-1.0143,-1.0094,-0.9996,-0.9863,-0.9562,-0.9429,-0.9484,-0.898,-0.8846,0.0,0.0,0.0,0.0,0.0,0.0,0.0,0.0,0.0,0.0,0.0,0.0,0.0,0.0,0.0,0.0,0.0,0.0,0.0,0.0,0.0,0.0,0.0,0.0,0.0,0.0,0.0,0.0,-2.7453,-3.3147,-3.6735,-3.388,-3.1046,0.0,0.0,0.0,0.0,0.0,0.0,-2.8455,-2.7304,-2.7522,-2.9419,-2.8315,-2.866,-3.0652,-2.9849,-2.9862,-3.0737,-3.073,-3.0236,-2.9205,-2.6767,-2.5195,-2.4252,-2.1659,-2.054,-2.0593,-2.0593,-1.9054,-1.6684,-1.6684,-1.6684,-1.6571,-1.5706,-1.5931,-1.6692,-1.6692,-1.6094,-1.5302,-1.5302,-1.4666,-1.3417,-1.0891,0.0,0.0,0.0,0.0,-0.6301,-0.6789,-0.6437,-0.6266,-0.7537,-0.8006,-0.8428,-0.9429,-0.9632,-0.9422,-0.8743,-0.8678,-0.8238,-0.6677,-0.7011,0.0,-0.7145,-0.7895,-0.8768,-0.9588,-0.98,-0.993,-1.0082,-1.0091,-1.01,-1.0097,-1.0101,-1.0048,-0.9927,-0.9813,-0.9643,-0.9436,-0.9492,-0.9274,-0.8744,0.0,0.0,0.0,0.0,0.0,0.0,0.0,0.0,0.0,0.0,0.0,0.0,0.0,0.0,0.0,0.0,0.0,0.0,0.0,0.0,0.0,0.0,0.0,0.0,0.0,0.0,0.0,0.0,0.0,-3.7093,-3.4777,0.0,0.0,0.0,0.0,-3.0093,-3.1441,-3.147,-2.9626,-3.0513,-3.0808,-3.0259,-3.0356,-3.0466,-3.0595,-3.0605,-3.0685,-3.0794,-3.0673,-2.8904,-2.5743,-2.5596,-2.3814,-2.0845,-2.0671,-2.0593,-2.0593,-2.0593,-2.0412,-2.016,-2.016,-2.016,-1.9753,-1.6493,-1.7398,-2.024,-2.024,-1.8065,-1.5303,-1.5303,-1.294,-1.0061,-0.9944,-0.9022,0.0,0.0,-0.6601,-0.5904,-0.5887,-0.5841,-0.5988,-0.6702,-0.7449,-0.8286,-0.9298,-0.9468,-0.9526,-0.9927,-0.9346,-0.876,-0.8663,0.0,-0.7719,-0.8399,-0.8601,-0.899,-0.986,-1.0044,-1.0092,-1.0096,-1.0096,-1.0096,-1.0101,-1.0101,-1.0073,-0.9993,-0.9927,-0.9768,-0.9514,-0.9742,-0.9803,-0.9632,-0.8936,0.0,0.0,0.0,0.0,0.0,0.0,0.0,0.0,0.0,0.0,0.0,0.0,0.0,0.0,0.0,0.0,0.0,0.0,0.0,0.0,0.0,0.0,0.0,0.0,0.0,0.0,0.0,0.0,-3.6794,-3.6452,0.0,-3.4472,-3.3163,-3.2101,-3.1473,-3.1237,-3.0861,-3.0275,-3.0333,-3.0079,-2.9468,-2.9374,-2.9023,-2.8427,-2.775,-2.7925,-2.8922,-2.784,-2.6691,-2.5511,-2.5511,-2.365,-2.0478,-2.0478,-2.0478,-2.0478,-2.0478,-2.0443,-2.0405,-2.0446,-2.0457,-2.0031,-1.6588,-1.7396,-1.9927,-1.7713,-1.6157,-1.4744,-1.2593,-1.1008,-0.9918,-0.9899,-0.9581,-0.9171,-0.8947,-0.7837,-0.67,-0.6609,-0.6021,-0.5686,-0.6478,-0.7177,-0.7871,-0.8578,-0.9112,-0.9418,-0.9292,-0.9468,-0.9477,-0.8961,-0.8996,-0.9003,-0.8703,-0.9079,-0.9537,-0.988,-0.9952,-0.9968,-0.9968,-0.9968,-0.9998,-1.0038,-1.0048,-1.0034,-0.9991,-0.9363,-0.8947,-0.8859,-0.8824,-0.8835,-0.8934,-0.9057,-0.8314,0.0,0.0,0.0,0.0,0.0,0.0,0.0,0.0,0.0,0.0,0.0,0.0,0.0,0.0,0.0,0.0,0.0,0.0,0.0,0.0,0.0,0.0,0.0,0.0,0.0,-2.9424,-3.4216,-3.6702,-3.7259,-3.6736,-3.508,-3.4049,-3.3201,-3.2586,-3.1616,-3.1033,-3.1012,-3.0509,-2.9807,-2.893,-2.8325,-2.7736,-2.7132,-2.606,-2.6,-2.6993,-2.5909,-2.5398,-2.5369,-2.4262,-2.2559,-2.0377,-1.919,-1.8686,-1.8686,-1.8686,-1.8686,-1.8672,-1.8726,-1.8717,-1.8405,-1.6077,-1.6586,-1.8083,-1.5822,-1.5019,-1.4453,-1.0986,-0.9863,-0.9869,-0.9838,-0.9613,-0.9331,-0.9259,-0.7957,-0.6613,-0.6732,-0.6185,-0.574,-0.6272,-0.6978,-0.7644,-0.8056,-0.8668,-0.9052,-0.8816,-0.9511,-0.9947,-0.9399,-0.9706,-0.9813,-0.9191,-0.9523,-0.9832,-0.9863,-0.9888,-0.99,-0.99,-0.9906,-0.9923,-0.9965,-0.9957,-0.9974,-1.0005,-0.9107,-0.8541,-0.8507,-0.8098,-0.7902,-0.7986,-0.8096,-0.7566,-0.6383,0.0,0.0,0.0,0.0,0.0,0.0,0.0,0.0,0.0,0.0,0.0,0.0,0.0,0.0,0.0,0.0,0.0,0.0,0.0,0.0,0.0,0.0,0.0,-3.0659,-3.393,-3.6468,-3.6948,-3.6987,-3.6332,-3.4654,-3.4207,-3.3934,-3.3676,-3.2931,-3.2261,-3.1827,-3.1259,-3.024,-2.8707,-2.7504,-2.6918,-2.6941,-2.584,-2.5252,-2.5153,-2.5191,-2.5172,-2.5011,-2.1833,-2.0435,-2.0294,-1.6802,-1.5306,-1.5306,-1.5306,-1.5306,-1.5306,-1.5303,-1.5202,-1.5092,-1.5099,-1.5092,-1.5078,-1.5085,-1.5028,-1.4344,-1.077,-0.9591,-0.9606,-0.9651,-0.9012,-0.8255,-0.8106,-0.6782,-0.5536,-0.6113,-0.6205,-0.6123,-0.5992,-0.6782,-0.7581,-0.7696,-0.8091,-0.8451,-0.8633,-0.9493,-1.0176,-1.0119,-1.0093,-1.0052,-0.9933,-0.9908,0.0,-0.98,-0.9863,-0.9906,-0.99,-0.9894,-0.9887,-0.9887,-0.9887,-0.9918,-0.9954,-0.9144,-0.8596,-0.8471,-0.764,-0.7153,-0.7048,-0.6203,-0.5661,-0.5464,0.0,0.0,0.0,0.0,0.0,0.0,0.0,0.0,0.0,0.0,0.0,0.0,0.0,0.0,0.0,0.0,0.0,0.0,0.0,0.0,0.0,-3.148,-3.3502,-3.4387,-3.5514,-3.6444,-3.6725,-3.6908,-3.6837,-3.6445,-3.5527,-3.496,-3.4975,-3.2902,-3.1641,-3.1654,-3.0493,-2.9194,-2.7797,-2.7105,-2.644,-2.5761,-2.5412,-2.4941,-2.4339,-2.4927,-2.4541,-2.3242,-2.1345,-2.0452,-2.0235,-1.6786,-1.5306,-1.531,-1.5342,-1.5339,-1.5299,-1.5196,-1.5127,-1.5099,-1.5153,-1.4957,-1.4677,-1.4775,-1.315,-1.0859,-0.9806,-0.9514,-0.9481,-0.8865,-0.8442,-0.8006,-0.7287,-0.6229,-0.5341,-0.5342,-0.5209,-0.5075,-0.5243,-0.5919,-0.6458,-0.6246,-0.7391,-0.8344,-0.7913,-0.912,-1.0194,-1.0179,-1.0089,-1.004,-1.0033,-0.9992,-0.993,-0.9819,-0.985,-0.9857,-0.9766,-0.9759,-0.9759,-0.9759,-0.9793,-0.9563,-0.8959,-0.814,-0.7672,-0.7637,-0.7312,-0.7403,-0.8009,-0.7355,-0.6874,0.0,0.0,0.0,0.0,0.0,0.0,0.0,0.0,0.0,0.0,0.0,0.0,0.0,0.0,0.0,0.0,0.0,0.0,0.0,0.0,0.0,0.0,-3.4159,-3.591,-3.6606,-3.6399,-3.6431,-3.7158,-3.7091,-3.6802,-3.6284,-3.5616,-3.5021,-3.4523,-3.249,-3.132,-3.1434,-2.9823,-2.8372,-2.7234,-2.6715,-2.604,-2.5184,-2.4836,-2.435,-2.3781,-2.4017,-2.3212,-2.1512,-2.068,-2.0353,-2.0247,-1.6779,-1.5265,-1.5306,-1.5319,-1.5311,-1.5295,0.0,0.0,0.0,0.0,-1.4822,-1.4596,-1.4661,-1.2233,-0.9129,-0.9358,-0.9108,-0.8563,-0.7917,-0.7379,-0.6874,-0.624,-0.5374,-0.4656,-0.4764,-0.4642,-0.4488,-0.46,-0.508,-0.547,-0.5295,-0.635,-0.736,-0.7447,-0.8597,0.0,-1.0137,-1.0133,-1.0093,-1.0096,-1.0036,-0.9953,-0.9848,-0.9856,-0.9832,-0.9759,-0.9688,-0.9651,-0.9666,-0.9688,0.0,0.0,0.0,-0.7597,-0.7239,-0.6789,0.0,0.0,0.0,0.0,0.0,0.0,0.0,0.0,-0.8005,-0.9069,0.0,0.0,0.0,0.0,0.0,0.0,0.0,0.0,0.0,0.0,0.0,0.0,0.0,0.0,0.0,0.0,-3.6667,-3.7785,-3.7843,-3.6975,-3.672,-3.775,-3.7353,-3.6468,-3.5119,-3.5066,-3.4583,-3.3306,-3.1962,-3.1209,-3.1217,-2.927,0.0,0.0,0.0,-2.5726,-2.4999,-2.4257,-2.3721,-2.3381,-2.2849,-2.1722,-2.0108,-2.0038,-1.996,-1.9701,-1.6554,-1.5231,-1.5265,-1.5217,-1.5236,-1.5293,-1.5212,-1.4984,-1.4674,-1.4458,-1.4373,-1.4354,-1.4169,0.0,0.0,-0.9113,-0.8452,-0.7352,-0.687,-0.6128,-0.5419,-0.5104,-0.4371,-0.3775,-0.4239,-0.4252,-0.4128,-0.4017,-0.4289,-0.4588,-0.4667,-0.5212,-0.603,-0.7162,-0.8014,-0.888,-0.9871,-1.0131,-1.0185,-1.013,-1.005,-0.9991,-0.9922,-0.9862,-0.98,-0.9793,-0.9666,0.0,-0.9581,-0.9589,-0.9583,-0.957,-0.8856,-0.8083,-0.7307,-0.664,-0.6259,-0.6212,-0.6223,-0.6216,-0.6162,-0.7795,-0.8469,-0.8266,-0.8934,-1.0474,0.0,0.0,0.0,0.0,0.0,0.0,0.0,0.0,0.0,0.0,0.0,0.0,0.0,0.0,0.0,-3.6523,-3.819,-3.9186,-3.8679,-3.8642,-3.825,-3.7074,-3.6991,-3.6608,-3.5558,-3.5279,-3.4847,-3.4049,-3.2213,-3.1182,-3.1269,-2.9226,-2.7752,-2.7082,-2.6378,-2.5676,-2.4931,-2.4189,-2.3434,-2.2688,-2.2634,0.0,-2.0088,-2.0089,-1.8609,-1.6029,-1.5381,-1.514,-1.514,-1.5185,-1.5268,-1.5362,-1.5133,-1.4928,-1.4595,-1.3013,-1.2443,-1.2251,-1.0892,-0.9786,-0.8849,-0.8058,-0.781,-0.7508,-0.5987,-0.5437,0.0,-0.418,-0.3721,-0.3522,-0.3459,-0.3344,-0.3263,-0.3291,-0.352,-0.3781,-0.395,-0.4888,-0.5999,-0.7046,-0.7496,-0.8014,-0.8919,-0.9704,-1.0191,-1.0185,-1.0166,-1.0122,-1.0001,-0.9967,-0.9873,-0.9658,-0.9621,-0.9586,-0.9527,-0.9517,-0.9289,-0.8761,-0.8683,-0.8536,-0.8324,-0.897,-0.8545,-0.6853,-0.6976,-0.6887,-0.6513,-0.7027,-0.8138,-0.9778,-1.0028,-1.0585,0.0,0.0,0.0,0.0,0.0,0.0,0.0,0.0,0.0,0.0,0.0,-3.2401,-3.5193,0.0,-3.7684,-3.8968,-3.9154,-3.8983,-3.8665,-3.9451,-3.9433,-3.7669,-3.664,-3.5898,-3.5366,-3.4888,-3.4133,-3.3023,-3.1766,-3.0894,-3.0574,-2.8525,-2.7227,-2.6953,-2.5935,-2.5216,-2.4856,-2.3689,-2.2904,-2.2498,-2.1719,-2.0919,-2.0088,-2.0088,-1.8238,-1.5042,-1.5097,-1.5092,-1.5099,-1.5164,-1.5241,-1.5225,-1.4561,-1.3481,-1.2308,-1.2369,-1.1616,-1.0415,-0.9477,-0.9064,-0.8765,-0.7694,-0.7242,-0.6878,-0.5627,-0.4898,-0.4372,-0.3769,-0.3509,-0.3361,-0.3186,-0.3073,-0.2985,-0.2921,-0.3159,-0.345,-0.3665,-0.433,-0.5365,-0.6938,-0.7314,-0.7664,-0.8684,-0.9207,-0.9354,-0.8957,-0.8863,-0.8831,-0.8799,-0.8706,-0.8606,-0.8514,-0.8827,-0.904,-0.9008,-0.9422,-0.9554,-0.9231,-0.9233,-0.9286,-0.9356,-0.9407,-0.8718,-0.718,-0.7584,-0.7373,-0.6507,-0.7166,-0.8011,-0.894,-0.8874,-0.9514,0.0,0.0,0.0,0.0,0.0,0.0,0.0,-2.5344,-2.7758,-3.1662,-3.4094,-3.641,-3.9284,-3.9696,-4.0112,-4.1673,-4.0286,-3.8869,-3.8625,-3.9901,-4.0014,-3.7728,-3.6125,-3.5117,-3.4907,-3.4387,-3.3384,-3.1849,-3.1276,-3.065,-2.9862,-2.7807,-2.67,-2.6819,-2.5475,-2.4663,-2.4538,-2.31,-2.2362,-2.2296,-2.0812,-2.0088,-2.0069,-1.9373,-1.761,-1.5092,-1.5106,-1.4743,-1.4125,-1.4186,-1.4605,-1.5097,-1.3885,-1.1956,-1.0039,-1.1838,-1.1209,-0.9431,-0.9041,-0.8768,-0.8404,-0.7437,-0.6631,-0.5906,-0.5207,-0.4379,-0.3675,-0.3605,-0.3452,-0.3281,-0.3136,-0.304,-0.293,-0.2742,-0.299,-0.3332,-0.3506,-0.3846,-0.4736,-0.6819,-0.7078,-0.7373,-0.8627,-0.8543,-0.8156,-0.7675,-0.7572,-0.7555,-0.757,-0.7433,-0.7345,-0.7383,-0.7907,-0.8328,-0.8467,-0.9195,-0.9725,-0.9915,-0.9877,-0.994,-1.0108,-0.9239,-0.8339,-0.7442,-0.779,-0.7421,-0.632,-0.733,-0.7712,-0.7518,-0.7398,-0.8301,-2.1603,-2.35,-2.5046,-2.483,-2.4239,-2.5041,0.0,-3.033,-3.0762,-3.6125,-3.8314,-3.9887,-4.2158,-4.3014,-4.3639,-4.4473,-4.2668,-4.0671,-3.9396,-4.0171,-3.9392,-3.5322,-3.5065,-3.5043,-3.4615,-3.4342,-3.3516,-3.1923,-3.1258,-3.0604,-2.994,-2.7679,-2.656,-2.6877,-2.5353,-2.4225,-2.3558,-2.2727,-2.2071,-2.1595,-2.0581,-2.0088,-1.9993,-1.6761,-1.5235,-1.5099,-1.5159,-1.347,-1.0651,-1.0673,-1.2496,-1.512,-1.3456,-1.1643,-1.0066,-1.0774,-1.0785,-1.0299,-0.9324,-0.843,-0.7598,-0.6772,-0.5842,-0.4918,-0.4118,-0.3748,-0.3605,-0.3533,-0.3462,-0.334,-0.3145,-0.3003,-0.2876,-0.2732,-0.2965,-0.3234,-0.3322,-0.3789,-0.4733,-0.6589,-0.6502,-0.6669,-0.8338,-0.7487,-0.681,-0.7499,-0.7648,-0.7629,-0.7529,-0.749,-0.7429,-0.7313,-0.7396,-0.7695,-0.8353,-0.8623,-0.9106,-0.9931,-1.0045,-1.0091,-1.0191,-0.941,-0.8613,-0.7848,-0.7143,-0.6543,-0.6051,-0.6533,-0.6813,-0.6904,-0.7293,-0.7928,-2.9875,-3.0415,-2.9902,-3.0853,-3.035,-3.0164,-3.2038,-3.2219,-3.3088,-3.6743,-3.9298,-4.1267,-4.2695,-4.3823,-4.4721,-4.5178,-4.3248,-4.0973,-3.874,-3.8308,-3.7387,-3.5118,-3.3635,-3.3164,-3.4169,-3.3344,-3.2335,-3.1355,-3.0658,-2.9753,-2.8634,-2.7277,-2.6381,-2.6097,-2.5075,-2.419,-2.3419,-2.2984,-2.2327,-2.1494,-2.0429,-1.9988,-1.9974,-1.6385,-1.4297,-1.3433,-1.2629,-1.1464,-1.0093,-1.0109,-1.0984,-1.2268,-1.1539,-1.0729,-1.0091,-1.0815,-1.0611,-0.987,-0.9213,-0.8411,-0.7507,-0.6629,-0.5693,-0.4758,-0.3998,-0.3632,-0.3495,-0.3544,-0.3003,-0.2435,-0.2496,-0.2704,-0.2854,-0.2684,-0.2933,-0.3218,-0.3289,-0.4083,-0.521,-0.6667,-0.7134,-0.7568,-0.8497,-0.8088,-0.7607,-0.7492,-0.6736,-0.6175,-0.6116,-0.6079,-0.6415,-0.7381,-0.7472,-0.8001,-0.9276,-0.9413,-0.9588,-0.9979,-1.0025,-0.9785,-0.923,-0.9267,-0.8568,-0.7062,-0.6675,-0.6136,-0.5413,-0.5085,-0.5067,-0.5331,-0.498,-0.5133,-3.519,-3.5833,-3.5363,-3.6094,-3.5746,-3.4957,-3.3958,-3.4058,-3.5059,-3.7282,-3.9707,-4.1616,-4.248,-4.3715,-4.4664,-4.4761,-4.3218,-4.1163,-3.8738,-3.7126,-3.5818,-3.4934,-3.2792,-3.1918,-3.333,-3.2237,-3.1291,-3.0946,-3.0225,-2.9145,-2.772,-2.6933,-2.6213,-2.5559,-2.4855,-2.4029,-2.3052,-2.3023,-2.2347,-2.1023,-2.017,-1.936,-1.8536,-1.5498,-1.3371,-1.2007,-1.0671,-1.0089,-1.0082,-1.011,-1.0167,-1.0207,-1.0194,-1.0117,-1.0072,-1.0719,-1.0329,-0.9439,-0.9169,-0.8336,-0.7251,-0.6557,-0.5533,-0.4475,-0.3985,-0.3646,-0.3385,-0.316,-0.2674,-0.2183,-0.1989,-0.2397,-0.2843,-0.2712,-0.2922,-0.3154,-0.3206,-0.4242,-0.5496,-0.6593,-0.7587,-0.8403,-0.8853,-0.876,-0.8428,-0.7814,-0.6357,-0.5406,-0.5615,-0.5331,-0.5586,-0.6827,-0.6723,-0.7237,-0.8961,-0.8866,-0.893,-0.9443,-0.9465,-0.9127,-0.8412,-0.8426,-0.7812,-0.6417,-0.5875,-0.5271,-0.4622,-0.3932,-0.3664,-0.3804,-0.2894,-0.2635,-3.4584,-3.7808,-4.0988,-3.9227,-3.8906,-3.8744,-3.7579,-3.6726,-3.6718,-3.875,-4.0024,-4.1062,-4.1863,-4.2955,-4.3572,-4.3126,-4.2671,-4.1803,-4.0137,-3.7577,-3.5343,-3.4104,-3.3003,-3.2223,-3.1911,-3.1184,-3.0787,-3.0966,-3.018,-2.9127,-2.7871,-2.6859,-2.6085,-2.5616,-2.4709,-2.3544,-2.2156,-2.2579,-2.1809,-1.9845,-1.9684,-1.7957,-1.4907,-1.3165,-1.2066,-1.1464,-1.031,-0.9891,-1.0005,-1.0138,-1.0211,-1.0194,-1.0207,-1.0115,-0.9992,-1.0029,-0.9767,-0.9385,-0.9313,-0.808,-0.6512,-0.6419,-0.5187,-0.3757,-0.3862,-0.3711,-0.3267,-0.2163,-0.2669,-0.3227,-0.1869,-0.2162,-0.2816,-0.2876,-0.2955,-0.3003,-0.3012,-0.4117,-0.5343,-0.6167,-0.7439,-0.8635,-0.9354,-0.9046,-0.8675,-0.8574,-0.7033,-0.6164,-0.694,-0.6068,-0.5383,-0.5364,-0.4491,-0.4652,-0.6454,-0.5886,-0.6213,-0.8047,-0.8107,-0.8071,-0.8119,-0.6627,-0.601,-0.6387,-0.4537,-0.3615,-0.3641,-0.3416,-0.3082,-0.2639,-0.1749,-0.1214,-4.0435,-4.2807,-4.4213,-4.3901,-4.2999,-4.1907,-4.0804,-3.9587,-3.8662,-3.8586,-3.9502,-4.0293,-4.0304,-4.11,-4.195,-4.2623,-4.2168,-4.1328,-4.0408,-3.842,-3.6381,-3.4521,-3.3421,-3.2517,-3.1796,-3.0617,-3.0025,-3.0311,-2.915,-2.8022,-2.7111,-2.6741,-2.5972,-2.4709,-2.445,-2.3581,-2.1967,-2.1946,-2.1215,-1.9781,-1.7491,-1.5467,-1.3697,-1.2368,-1.1566,-1.1184,-1.0257,-0.9899,-0.9938,-1.003,-1.009,-1.0131,-1.0171,-0.9685,-0.9022,-0.9789,-0.9897,-0.9643,-0.9447,-0.8136,-0.6551,-0.6483,-0.5271,-0.384,-0.3942,-0.3758,-0.3282,-0.2173,-0.1545,-0.1279,-0.1561,-0.228,-0.293,-0.2909,-0.2981,-0.3053,-0.3003,-0.435,-0.572,-0.6266,-0.7602,-0.8821,-0.9287,-0.9255,-0.8854,-0.7943,-0.6676,-0.5684,-0.5287,-0.4863,-0.4791,-0.5261,-0.4964,-0.518,-0.6265,-0.6369,-0.6603,-0.7207,-0.6838,-0.6345,-0.5733,-0.5019,-0.4257,-0.3427,-0.2424,-0.1877,-0.1805,-0.0845,-0.0485,-0.0661,0.0219,0.0626,-4.478,-4.6237,-4.66,-4.7514,-4.6495,-4.4906,-4.3517,-4.2063,-4.056,-3.8929,-3.8871,-3.8975,-3.823,-3.8732,-3.9768,-4.1411,-4.1031,-4.0656,-4.1011,-3.9178,-3.7097,-3.5377,-3.4088,-3.2854,-3.156,-3.0404,-2.9689,-2.9643,-2.8471,-2.735,-2.639,-2.6296,-2.5667,-2.4303,-2.4339,-2.3563,-2.192,-2.1563,-2.0571,-1.8952,-1.6582,-1.4446,-1.2606,-1.2064,-1.1401,-1.0632,-1.0126,-0.9893,-0.99,-0.9976,-1.0034,-1.0078,-1.0138,-0.9684,-0.9057,-0.9789,-0.9949,-0.9777,-0.9605,-0.8315,-0.6728,-0.6688,-0.5499,-0.4085,-0.4104,-0.3918,-0.3557,-0.2823,-0.1356,-0.0272,-0.1437,-0.2524,-0.3273,-0.3089,-0.3115,-0.3147,-0.305,-0.446,-0.5799,-0.6035,-0.7569,-0.8887,-0.9062,-0.893,-0.8286,-0.6709,-0.5838,-0.5225,-0.4807,-0.4409,-0.4361,-0.4891,-0.4587,-0.4614,-0.5276,-0.5356,-0.5396,-0.5443,-0.5066,-0.4494,-0.3753,-0.3318,-0.2609,-0.1566,-0.0716,-0.0274,-0.0257,0.0806,0.1178,0.0925,0.1607,0.1947,-4.7306,-4.8029,-4.8375,-4.9992,-4.9235,-4.7588,-4.5705,-4.3971,-4.206,-3.9589,-3.8223,-3.7071,-3.5847,-3.6043,-3.7154,-3.9599,-3.9581,-3.9949,-4.1898,-3.9695,-3.7544,-3.6453,-3.5041,-3.3279,-3.1219,-3.0516,-2.9831,-2.8984,-2.8127,-2.7096,-2.5837,-2.5597,-2.5171,-2.443,-2.4339,-2.3526,-2.1932,-2.1387,-1.9905,-1.7482,-1.6914,-1.4883,-1.1657,-1.217,-1.1486,-0.9906,-0.9906,-0.99,-0.9904,-0.9977,-1.0006,-1.0016,-1.0074,-1.0061,-0.9992,-1.0001,-0.9916,-0.9811,-0.9811,-0.8605,-0.7059,-0.7015,-0.5857,-0.4448,-0.4341,-0.4159,-0.3989,-0.3941,-0.202,-0.028,-0.1514,-0.2865,-0.3825,-0.3484,-0.3387,-0.3349,-0.3264,-0.4515,-0.5633,-0.5559,-0.7312,-0.8739,-0.8598,-0.8048,-0.7001,-0.5086,-0.4643,-0.4771,-0.5398,-0.4651,-0.4089,-0.4196,-0.3359,-0.2979,-0.3437,-0.2919,-0.2667,-0.2893,-0.2817,-0.2595,-0.219,-0.1508,-0.1005,-0.0737,0.0588,0.1188,0.1012,0.1542,0.1882,0.2056,0.2394,0.2757,-4.8461,-4.9761,-5.075,-5.1575,-4.982,-4.7578,-4.6421,-4.417,-4.1402,-3.8346,-3.6452,-3.4957,-3.3609,-3.46,-3.6231,-3.8134,-3.9535,-4.044,-4.0617,-3.9964,-3.8518,-3.5951,-3.5643,-3.4532,-3.1728,-3.1359,-3.0368,-2.8142,-2.7392,-2.693,-2.6674,-2.6005,-2.53,-2.4501,-2.4465,-2.3633,-2.1918,-2.0746,-1.9213,-1.7346,-1.7293,-1.5485,-1.2206,-1.2331,-1.1495,-0.9906,-0.9961,-0.9978,-0.9976,-0.9998,-1.0009,-1.0009,-1.0063,-1.0058,-1.0006,-1.0063,-1.002,-0.9941,-0.9941,-0.9083,-0.7865,-0.7273,-0.6329,-0.5319,-0.459,-0.3545,-0.2819,-0.3847,-0.2128,-0.0351,-0.1912,-0.3184,-0.4179,-0.4675,-0.4555,-0.4505,-0.5126,-0.587,-0.6345,-0.6137,-0.6812,-0.7256,-0.678,-0.6142,-0.5508,-0.4897,-0.4092,-0.3674,-0.3984,-0.372,-0.3388,-0.3066,-0.2758,-0.2369,-0.1856,-0.1969,-0.1952,-0.1673,-0.1267,-0.0852,-0.0458,0.0498,0.1207,0.163,0.2036,0.2364,0.2617,0.2908,0.2962,0.2827,0.3113,0.3361,-5.0414,-5.1257,-5.1548,-5.2189,-5.0317,-4.7723,-4.5392,-4.3235,-4.0387,-3.5743,-3.4138,-3.2927,-3.0904,-3.2493,-3.4586,-3.6131,-3.827,-3.9922,-4.0383,-4.0179,-3.9011,-3.6504,-3.5842,-3.4511,-3.179,-3.1354,-3.029,-2.7977,-2.727,-2.6674,-2.6071,-2.5533,-2.5032,-2.4534,-2.4532,-2.3733,-2.2046,-2.0508,-1.8932,-1.7344,-1.7424,-1.5703,-1.2435,-1.2442,-1.1535,-0.9935,-0.9984,-1.0006,-1.0,-1.0024,-1.0024,-1.0005,-1.0077,-1.0054,-1.0006,-1.0086,-1.007,-1.0044,-1.0033,-0.9629,-0.8883,-0.7671,-0.666,-0.5759,-0.4813,-0.342,-0.2165,-0.232,-0.1224,-0.0378,-0.2024,-0.3466,-0.4644,-0.5202,-0.5237,-0.5306,-0.5947,-0.6546,-0.7007,-0.715,-0.7011,-0.6688,-0.6169,-0.5553,-0.4947,-0.4404,-0.3508,-0.2979,-0.3205,-0.2967,-0.2708,-0.2522,-0.2246,-0.175,-0.1006,-0.1119,-0.0973,-0.0321,0.0118,0.0517,0.088,0.1588,0.2175,0.2586,0.283,0.3032,0.3197,0.3427,0.3517,0.3455,0.3548,0.3676,-5.2328,-5.2315,-5.1425,-5.217,-5.0488,-4.7589,-4.3541,-4.155,-3.8788,-3.2646,-3.1489,-3.0812,-2.8254,-3.0183,-3.2574,-3.3859,-3.628,-3.8578,-4.0237,-3.9932,-3.8924,-3.7226,-3.5688,-3.3826,-3.1531,-3.0937,-2.9925,-2.8033,-2.7419,-2.651,-2.5051,-2.4813,-2.4604,-2.4344,-2.4302,-2.355,-2.2046,-2.0479,-1.8938,-1.7403,-1.7414,-1.5751,-1.2678,-1.2552,-1.1648,-1.0169,-1.0055,-1.0,-1.002,-1.0073,-1.0073,-1.0025,-1.0072,-1.0067,-1.003,-1.0082,-1.0102,-1.0115,-1.0113,-1.0106,-0.9834,-0.8084,-0.6955,-0.6095,-0.5047,-0.3547,-0.1897,-0.0423,-0.0193,-0.0708,-0.2021,-0.3744,-0.5223,-0.5576,-0.5845,-0.6155,-0.6543,-0.6981,-0.743,-0.7962,-0.7264,-0.6461,-0.6088,-0.5509,-0.4774,-0.3836,-0.3005,-0.2568,-0.2801,-0.2392,-0.2123,-0.2239,-0.1742,-0.1154,-0.0531,-0.0314,0.0127,0.094,0.1241,0.1549,0.1918,0.2184,0.2472,0.2761,0.3182,0.3357,0.3281,0.3512,0.3728,0.3919,0.3818,0.3855,-5.2455,-5.2094,-5.1158,-5.1876,-4.9386,-4.5868,-4.2428,-3.9279,0.0,-3.08,-2.9056,-2.8038,-2.6825,-2.838,-3.0368,-3.192,-3.4278,-3.6469,-3.8097,-3.7962,-3.7317,-3.6413,-3.511,-3.337,-3.0962,-3.0713,-2.9622,-2.697,-2.7137,-2.6911,-2.5933,-2.5194,-2.4426,-2.3621,-2.2899,-2.2077,-2.1125,-2.0245,-1.8979,-1.7403,-1.7463,-1.6113,-1.3551,-1.2827,-1.1976,-1.1051,-1.0364,-1.0087,-1.0073,-1.0105,-1.01,-1.0085,-1.0093,-1.0097,-1.0082,-1.0105,-1.015,-1.018,-1.018,-1.0172,-0.9901,-0.8154,-0.7436,-0.6954,-0.5353,-0.3664,-0.196,-0.0437,-0.1191,-0.2432,-0.2209,-0.3988,-0.6018,-0.6786,-0.7418,-0.8038,-0.8771,-0.7983,-0.7071,-0.6859,-0.6036,-0.5346,-0.5165,-0.4529,-0.3973,-0.3735,-0.2962,-0.2409,-0.2409,-0.2121,-0.1813,-0.1528,-0.1146,-0.0628,0.0087,0.0522,0.0961,0.1447,0.1727,0.2101,0.2606,0.2885,0.3047,0.3106,0.3294,0.3504,0.3693,0.3691,0.3811,0.4062,0.4093,0.4123,-5.2284,-5.1936,-5.097,-5.1701,-4.8729,-4.4505,-4.0285,0.0,0.0,-2.7697,-2.6507,-2.5969,-2.4534,-2.6477,-2.8389,-2.8684,-3.1229,-3.3725,-3.534,-3.5854,-3.5962,-3.5708,-3.4412,-3.2913,-3.1334,-3.0442,-2.9119,-2.702,-2.6978,-2.6597,-2.5584,-2.5068,-2.4392,-2.3487,-2.2618,-2.1765,-2.0966,-2.0157,-1.8948,-1.7403,-1.7425,-1.6162,-1.38,-1.3405,-1.2768,-1.1948,-1.1235,-1.0957,-1.0942,-1.0334,-1.0116,-1.0144,-1.0155,-1.0143,-1.0143,-1.0147,-1.0161,-1.0206,-1.0199,-1.0203,-0.9922,-0.8165,-0.7563,-0.7187,-0.5463,-0.3729,-0.2016,-0.0446,-0.1496,-0.3066,-0.2874,-0.4358,-0.6122,-0.6987,-0.8086,-0.9007,-0.9324,-0.8374,-0.7221,-0.6394,-0.5562,-0.4846,-0.4369,-0.3839,-0.3445,-0.331,-0.2402,-0.1701,-0.1626,-0.0954,-0.0617,-0.0955,-0.0415,0.0204,0.0776,0.106,0.1379,0.1785,0.2128,0.2404,0.2588,0.3014,0.3234,0.3196,0.346,0.3673,0.3796,0.3766,0.3891,0.4146,0.4142,0.4211,-5.1729,-5.1447,-5.056,-5.1133,-4.7966,-4.3377,-3.8324,-3.4489,-3.0442,-2.5041,-2.4246,-2.4054,-2.2499,-2.4342,-2.6072,-2.5888,-2.8257,-3.0881,-3.3067,-3.4064,-3.4731,-3.531,-3.3777,-3.2423,-3.1815,-3.0134,-2.8577,-2.7349,-2.6703,-2.5977,-2.505,-2.4893,-2.4445,-2.354,-2.2703,-2.1848,-2.1033,-2.017,-1.9042,-1.7687,-1.751,-1.6362,-1.4341,-1.4029,-1.3541,-1.2842,-1.2199,-1.1945,-1.1928,-1.1021,-1.0591,-1.0489,-1.0486,-1.0351,-1.019,-1.0199,-1.0195,-1.0191,-1.0204,-1.0195,-0.9908,-0.8158,-0.7558,-0.7187,-0.5447,-0.3744,-0.2144,-0.075,-0.162,-0.3114,-0.3753,-0.4937,-0.6247,-0.735,-0.8616,-0.9524,-0.9348,-0.8547,-0.7565,-0.6529,-0.5682,-0.479,-0.3743,-0.3327,-0.3084,-0.2895,-0.1801,-0.0951,-0.089,0.0184,0.0619,-0.0173,0.0448,0.1031,0.1316,0.1532,0.1789,0.2089,0.2438,0.2597,0.2549,0.3023,0.3268,0.3243,0.3563,0.3756,0.3802,0.3803,0.3949,0.4224,0.4171,0.4227,-5.0462,-5.0319,-4.9507,-4.9529,-4.6609,-4.2458,-3.7603,0.0,-2.8932,-2.4326,-2.2604,-2.1881,-2.1624,-2.1841,-2.2768,-2.4999,0.0,-2.8338,-3.239,-3.3043,-3.3722,-3.5379,-3.3459,-3.1989,-3.1981,-2.9791,-2.8109,-2.7425,-2.6116,-2.5246,-2.5012,-2.4987,-2.4549,-2.362,-2.2809,-2.1966,-2.1092,-2.0226,-1.9383,-1.8571,-1.7833,-1.7024,-1.6101,-1.4583,-1.3863,-1.3739,-1.2959,-1.2607,-1.261,-1.2491,-1.2037,-1.1386,-1.1376,-1.0892,-1.0208,-1.0197,-1.0205,-1.0194,-1.0195,-1.0204,-0.9906,-0.8161,-0.7597,-0.7221,-0.523,-0.3626,-0.2355,-0.1716,-0.1862,-0.2676,-0.4765,-0.5921,-0.6997,-0.885,-0.9587,-0.9757,-0.9373,-0.8648,-0.7957,-0.7529,-0.6558,-0.5238,-0.3467,-0.3033,-0.2895,-0.2826,-0.1524,-0.0523,-0.0462,0.059,0.1305,0.1218,0.1441,0.1577,0.1491,0.2103,0.2483,0.2457,0.2603,0.2788,0.3028,0.3142,0.3264,0.3378,0.3479,0.3616,0.3796,0.3796,0.3969,0.4296,0.4275,0.4324,-4.8784,-4.9555,-4.9453,-4.9243,-4.5961,-4.1677,-3.7281,-3.2302,-2.7616,-2.4095,-2.2139,-2.0993,-2.0806,-2.0807,-2.117,0.0,0.0,0.0,-2.7494,-2.8409,-2.9755,-3.2454,-3.1439,-3.0915,-3.1911,-3.0243,-2.8631,-2.7532,-2.6047,-2.5184,-2.5118,-2.5082,-2.4651,-2.3759,-2.2874,-2.1985,-2.1104,-2.0281,-1.9462,-1.8694,-1.8374,-1.7575,-1.6383,-1.5709,-1.5157,-1.4719,-1.4406,-1.4269,-1.4263,-1.4252,-1.3487,-1.2248,-1.1888,-1.1111,-1.0193,-1.02,-1.0197,-1.0195,-1.0194,-1.0193,-0.9906,-0.8171,-0.7603,-0.7224,-0.5203,-0.4066,-0.3214,-0.2026,-0.2329,-0.339,-0.5064,-0.6462,-0.7768,-0.907,-0.9529,-0.961,-0.9409,-0.8946,-0.8409,-0.7834,-0.6826,-0.5539,-0.3823,-0.2805,-0.2088,-0.166,-0.1007,-0.0251,0.0571,0.1321,0.1862,0.2097,0.2159,0.2136,0.205,0.2539,0.282,0.28,0.3266,0.3564,0.3578,0.365,0.3724,0.3818,0.3603,0.3603,0.3796,0.3758,0.3904,0.4242,0.4195,0.4281,-4.5987,-4.7289,-4.7775,-4.7388,-4.4185,-4.017,-3.6388,-3.1444,-2.6803,-2.3795,-2.2089,-2.0938,-2.0221,-2.027,-2.0471,0.0,0.0,-2.2088,-2.4745,-2.6054,-2.78,-3.0658,-3.0415,-3.0471,-3.1636,-3.0058,-2.847,-2.7238,-2.5932,-2.5187,-2.5198,-2.5153,-2.4846,-2.4195,-2.3253,-2.247,-2.1872,-2.0771,-1.9953,-1.9422,-1.8961,-1.8041,-1.6747,-1.6521,-1.6021,-1.5309,-1.5303,-1.5293,-1.5298,-1.5295,-1.4293,-1.2736,-1.2326,-1.1358,-1.0209,-1.0217,-1.0226,-1.0194,-1.0191,-1.0205,-0.995,-0.8463,-0.797,-0.7638,-0.5894,-0.4784,-0.3882,-0.269,-0.3353,-0.4697,-0.5884,-0.7249,-0.8476,-0.9042,-0.9305,-0.9408,-0.9261,-0.9033,-0.877,-0.8432,-0.7387,-0.5945,-0.4034,-0.2885,-0.2071,-0.1603,-0.0878,-0.0063,0.0858,0.1647,0.2293,0.2794,0.2888,0.2839,0.2678,0.3068,0.3347,0.342,0.3821,0.4096,0.417,0.419,0.4193,0.4161,0.41,0.406,0.4063,0.4071,0.422,0.4461,0.4465,0.4562,-4.1831,-4.2978,-4.3634,-4.3189,-4.0746,-3.7637,-3.4617,-3.0638,-2.6657,-2.3299,-2.2369,-2.1657,-1.9942,-2.01,-2.0547,-2.0674,-2.1417,0.0,-2.5714,-2.7452,-2.9146,-3.0983,-3.1065,-3.1049,-3.1195,-2.8976,-2.7182,-2.6371,-2.5557,-2.5138,-2.5212,-2.5209,-2.5172,-2.5082,-2.4106,-2.3617,-2.3655,-2.1896,-2.1048,-2.1159,-1.957,-1.8364,-1.7565,-1.683,-1.6069,-1.5308,-1.5298,-1.5293,-1.5308,-1.5292,-1.4263,-1.2706,-1.277,-1.1732,-1.0215,-1.0266,-1.0269,-1.0193,-1.0206,-1.0195,-1.0057,-0.9166,-0.8846,-0.8589,-0.7495,-0.5775,-0.4147,-0.3946,-0.5088,-0.6587,-0.7539,-0.8432,-0.906,-0.8925,-0.9101,-0.9216,-0.888,-0.8809,-0.8979,-0.9557,-0.8446,-0.6562,-0.3943,-0.3336,-0.3202,-0.3269,-0.1348,0.0077,0.0021,0.1413,0.2655,0.3313,0.3681,0.373,0.3326,0.378,0.4174,0.4378,0.4144,0.4233,0.4765,0.4738,0.456,0.4305,0.5013,0.5149,0.469,0.4892,0.5011,0.5091,0.5215,0.5328,-3.7774,-3.9013,-3.9388,-3.8231,-3.6925,-3.5113,-3.1936,-2.8989,-2.6115,-2.3314,-2.1645,-2.0508,-1.9849,-1.9823,-2.0284,-2.1517,-2.2004,0.0,-2.5113,-2.6802,-2.8442,-3.0113,-3.1184,-3.1619,-3.1108,-2.8855,-2.7376,-2.7262,-2.5907,-2.5122,-2.5212,-2.5209,-2.5164,-2.5099,-2.4157,-2.3682,-2.3706,-2.1953,-2.1117,-2.1183,-1.9487,-1.8279,-1.7565,-1.6783,-1.6021,-1.5309,-1.5303,-1.5293,-1.5293,-1.5245,-1.4577,-1.3593,-1.3603,-1.2573,-1.1098,-1.1166,-1.0778,-1.0191,-1.0205,-1.0193,-1.0048,-0.9133,-0.8812,-0.8615,-0.7584,-0.6658,-0.5918,-0.5683,-0.6345,-0.7254,-0.7691,-0.8449,-0.906,-0.8925,-0.9033,-0.9104,-0.891,-0.8698,-0.8781,-0.9663,-0.9399,-0.8538,-0.6913,-0.6319,-0.5654,-0.444,-0.3178,-0.186,-0.0455,0.0654,0.1708,0.2746,0.3522,0.392,0.3784,0.4181,0.4437,0.446,0.4781,0.509,0.54,0.527,0.5224,0.5316,0.533,0.5323,0.531,0.5056,0.502,0.5181,0.5722,0.6207,-3.3616,-3.4934,-3.5361,-3.4475,-3.355,-3.2222,-2.9639,-2.7497,-2.537,-2.2857,-2.1643,-2.0709,-1.9639,-1.9578,-1.9813,-2.0277,-2.0916,-2.2004,-2.3883,-2.6104,-2.828,-3.0235,-3.1257,-3.1523,-3.0741,-2.8679,-2.7471,-2.7656,-2.6091,-2.516,-2.5198,-2.5198,-2.5176,-2.5134,-2.4493,-2.4004,-2.3661,-2.2222,-2.1393,-2.114,-1.9439,-1.826,-1.7565,-1.6769,-1.5978,-1.5264,-1.5265,-1.5265,0.0,-1.5241,-1.4558,-1.3504,-1.3532,-1.2525,-1.1047,-1.1094,-1.0721,-1.0207,-1.0201,-1.0183,-1.0063,-0.9479,-0.928,-0.912,-0.8395,-0.7513,-0.6791,-0.6907,-0.7245,-0.7675,-0.8111,-0.864,-0.9024,-0.893,-0.8974,-0.8974,-0.8755,-0.8648,-0.8693,-0.9085,-0.9383,-0.9399,-0.8832,-0.8187,-0.7241,-0.5822,-0.4733,-0.3428,-0.1683,-0.0536,0.0652,0.203,0.3034,0.3704,0.4003,0.4494,0.4771,0.4738,0.5169,0.5511,0.5686,0.5729,0.574,0.5765,0.5953,0.6021,0.594,0.5731,0.5742,0.5995,0.6153,0.6563,0.0,-3.0812,-3.1451,-3.1402,-3.0358,-2.8959,-2.7481,-2.6046,0.0,-2.2069,-2.2106,-2.1854,-1.958,-1.9535,-1.9405,-1.8165,-1.9194,-2.085,-2.2783,-2.5876,-2.885,-3.1291,-3.1393,-3.0999,-3.0251,-2.8487,-2.7466,-2.7592,-2.6104,-2.5191,-2.5191,-2.5195,-2.5176,-2.5115,-2.4917,-2.4431,-2.3615,-2.267,-2.1843,-2.1079,-1.9414,-1.8241,-1.7557,-1.6697,-1.5901,-1.518,-1.5196,-1.5193,-1.5203,-1.5205,-1.4241,-1.2788,-1.2795,-1.1809,-1.0393,-1.0397,-1.0312,-1.0202,-1.0193,-1.0166,-1.0105,-1.0086,-1.0043,-0.9943,-0.9688,-0.8344,-0.7027,-0.7707,-0.7822,-0.7937,-0.8712,-0.8942,-0.8981,-0.8919,-0.8891,-0.8801,-0.845,-0.8624,-0.8578,-0.7712,-0.8339,-0.9183,-0.9692,-0.8938,-0.8011,-0.7291,-0.6024,-0.4721,-0.3546,-0.2067,-0.0508,0.1152,0.2264,0.3198,0.3978,0.4666,0.5069,0.5088,0.533,0.5558,0.5723,0.6099,0.6135,0.5795,0.6794,0.7065,0.6546,0.6786,0.7025,0.7284,0.6573,0.6581,-2.593,0.0,-2.7006,-2.5753,-2.5686,-2.5529,0.0,-2.3438,-2.2968,-2.1828,-2.1256,-2.1127,-2.1772,-2.0858,-2.0967,-2.3875,-2.4068,-2.4717,-2.7213,-2.9737,-3.1803,-3.3009,-3.2504,-3.173,-3.0949,-2.8752,-2.7466,-2.7592,-2.606,-2.5156,-2.521,-2.5203,-2.4885,-2.4224,-2.4056,-2.3871,-2.3693,-2.2689,-2.1821,-2.1067,-1.879,-1.7614,-1.7406,-1.6036,-1.5293,-1.5133,-1.5183,-1.5209,-1.5151,-1.45,-1.4029,-1.362,-1.3031,-1.2187,-1.1289,-1.1296,-1.084,-1.0201,-1.0209,-1.0155,-1.0089,-1.0034,-0.9976,-0.99,-0.9793,-0.929,-0.8786,-0.8847,-0.8599,-0.8431,-0.8929,-0.8992,-0.8919,-0.8902,-0.8891,-0.8778,-0.8282,-0.8229,-0.7472,-0.4689,-0.5807,-0.773,-0.9358,-0.865,-0.788,-0.7996,-0.7263,-0.632,-0.5321,-0.3594,-0.1885,-0.0423,0.14,0.2809,0.3501,0.4285,0.4823,0.5088,0.5146,0.5434,0.5984,0.6147,0.6352,0.6617,0.7214,0.7344,0.6957,0.7473,0.7551,0.7242,0.7512,0.775,-2.3591,-2.4772,-2.5816,-2.4915,-2.4809,-2.4619,-2.337,-2.2602,-2.1927,0.0,0.0,-2.0529,-2.1023,-2.0918,-2.137,-2.3304,-2.4481,-2.6331,-2.9711,-3.124,-3.2279,-3.3066,-3.2315,-3.1429,-3.0633,-2.8969,-2.7839,-2.757,-2.6365,-2.5532,-2.5229,-2.4828,-2.4396,-2.3919,-2.3408,-2.2974,-2.2552,-2.1956,-2.1258,-2.0489,-1.8391,-1.7424,-1.7378,-1.5823,-1.5101,-1.5107,-1.514,-1.4948,-1.4568,-1.4134,-1.3502,-1.281,-1.2362,-1.1706,-1.1001,-1.0971,-1.0644,-1.0196,-1.0191,-1.0148,-0.9982,-0.9543,-0.9387,-0.9329,-0.9233,-0.9377,-0.9539,-0.935,-0.8983,-0.8652,-0.8755,-0.888,-0.8985,-0.8913,-0.8891,-0.8749,-0.8216,-0.7665,-0.6719,-0.4876,-0.5727,-0.7201,-0.8671,-0.8413,-0.8176,-0.8596,-0.823,-0.7621,-0.6858,-0.5103,-0.3342,-0.1878,0.0361,0.2135,0.3081,0.4051,0.4704,0.4951,0.5185,0.5585,0.617,0.6554,0.698,0.7444,0.7729,0.772,0.7411,0.7975,0.7975,0.7544,0.8033,0.8258,-2.2402,-2.4284,-2.6119,-2.5725,-2.5361,-2.4836,-2.393,0.0,0.0,0.0,0.0,0.0,-1.9988,-2.0898,-2.1707,-2.161,-2.4082,-2.7285,-3.0978,-3.1435,-3.1622,-3.2226,-3.1591,-3.0801,-2.9988,-2.912,-2.8316,-2.758,-2.6776,-2.5939,-2.5046,-2.4301,-2.3785,-2.3537,-2.2737,-2.1909,-2.1032,-2.101,-2.0527,-1.9569,-1.8098,-1.7349,-1.7244,-1.5765,-1.509,-1.5092,-1.5106,-1.4635,-1.3885,-1.3826,-1.2881,-1.1494,-1.1352,-1.0899,-1.0283,-1.0214,-1.0191,-1.0187,-1.0042,-0.9829,-0.952,-0.8887,-0.8682,-0.8693,-0.8687,-0.9175,-0.9643,-0.9147,-0.8897,-0.87,-0.8479,-0.8696,-0.8953,-0.8835,-0.8812,-0.8644,-0.8051,-0.7082,-0.6343,-0.6343,-0.6642,-0.7166,-0.7991,-0.827,-0.8537,-0.9072,-0.8934,-0.8558,-0.7924,-0.6303,-0.4576,-0.2924,-0.0565,0.1461,0.2799,0.3928,0.4666,0.4922,0.5362,0.5852,0.6423,0.7126,0.7763,0.8286,0.8303,0.8239,0.8124,0.8422,0.8442,0.8228,0.8474,0.8588,-2.3218,-2.4801,-2.5748,-2.355,-2.4043,-2.469,-2.3144,0.0,0.0,0.0,0.0,0.0,0.0,-2.3091,-2.3917,-2.7419,-2.8946,-3.0113,-3.1325,-3.145,-3.1397,-3.1414,-3.1269,-3.0854,-2.9988,-2.9204,-2.843,-2.7637,-2.6828,-2.5723,-2.4186,-2.3976,-2.325,-2.1827,-2.1594,-2.1083,-2.0191,-2.0783,-2.0283,-1.8696,-1.7753,-1.6968,-1.629,-1.5416,-1.5061,-1.5097,-1.5092,-1.4641,-1.3846,-1.3186,-1.2343,-1.1436,-1.0755,-1.0417,-1.0283,-1.0215,-1.0207,-1.0084,-0.9285,-0.8509,-0.7974,-0.8449,-0.8614,-0.8728,-0.9342,-0.9499,-0.9163,-0.7698,-0.7895,-0.8546,-0.8495,-0.845,-0.8422,-0.8396,-0.8396,-0.8158,-0.727,-0.6794,-0.6564,-0.6564,-0.674,-0.7182,-0.8116,-0.824,-0.849,-0.9236,-0.9225,-0.8762,-0.7767,-0.6503,-0.4891,-0.2764,-0.073,0.1169,0.2851,0.3814,0.4692,0.5501,0.56,0.6055,0.7102,0.7679,0.8379,0.9195,0.8871,0.8998,0.958,0.9083,0.9133,0.9672,0.923,0.9289,-2.0814,-2.2246,-2.3476,-2.2696,-2.458,-2.6422,-2.5696,-2.4859,0.0,0.0,0.0,0.0,-2.3591,-2.4451,-2.6359,-3.0129,-3.0569,-3.0852,-3.2037,-3.1331,-3.0814,-3.1118,-3.076,-3.0307,-2.9844,-2.912,-2.8354,-2.7561,-2.6303,-2.5108,-2.3961,-2.3029,-2.221,-2.1426,-2.048,-1.9982,-1.9952,-1.9855,-1.9352,-1.8483,-1.7202,-1.6438,-1.613,-1.5342,-1.4772,-1.441,-1.4398,-1.3691,-1.2512,-1.2145,-1.1541,-1.0803,-1.0448,-1.0299,-1.0287,-1.0211,-0.9886,-0.9452,-0.9455,-0.9182,-0.8817,-0.8663,-0.8592,-0.8662,-0.8957,-0.8653,-0.8177,-0.7979,-0.8258,-0.8517,-0.8121,-0.8216,-0.8415,-0.8415,-0.8022,-0.7531,-0.7107,-0.5608,-0.4863,-0.6677,-0.6584,-0.6715,-0.8352,-0.8476,-0.8628,-0.9393,-0.982,-0.9571,-0.8211,-0.7548,-0.6112,-0.3283,-0.1419,0.0464,0.2504,0.3918,0.5054,0.5957,0.6632,0.7406,0.8298,0.8777,0.9281,0.9824,0.971,0.9684,0.9732,0.9725,0.9765,0.9901,0.9832,1.0047,-1.9202,-2.0259,-2.1491,-2.2142,0.0,-2.692,-2.7779,-2.6511,0.0,0.0,0.0,0.0,-2.3867,-2.5788,-2.8343,-3.0878,-3.0965,-3.1064,-3.2051,-3.0987,-3.0266,-3.0745,-3.0082,-2.9574,-2.9452,-2.8753,-2.797,-2.718,-2.593,-2.472,-2.3633,-2.2359,-2.1387,-2.0833,-1.9544,-1.9031,-1.9338,-1.8514,-1.8119,-1.8184,-1.6877,-1.6032,-1.5563,-1.4947,-1.4255,-1.3526,-1.3526,-1.27,-1.1401,-1.1405,-1.0975,-1.0292,-1.0296,-1.0285,-1.0273,-1.0219,-0.961,-0.8892,-0.951,-0.9572,-0.9284,-0.87,-0.8511,-0.8538,-0.8727,-0.8312,-0.7943,-0.8744,-0.8912,-0.8672,-0.7826,-0.7941,-0.8298,-0.8298,-0.7724,-0.7171,-0.7171,-0.499,-0.3791,-0.6362,-0.6308,-0.645,-0.8404,-0.8609,-0.8761,-0.9484,-1.0115,-0.9952,-0.8452,-0.8005,-0.6613,-0.3462,-0.1616,0.0361,0.2832,0.4386,0.5612,0.6539,0.7616,0.8476,0.9111,0.9608,1.001,1.0404,1.0477,1.0369,1.0074,1.0355,1.0421,1.0252,1.0455,1.0725,-2.0882,-2.111,-2.1176,-2.1416,-2.2297,-2.3908,-2.7171,-2.5983,0.0,-2.6275,0.0,-2.6478,-2.5664,-2.759,-2.9343,-2.9482,-3.0723,-3.1394,-3.0509,-3.0209,-3.0053,-2.9918,-2.9183,-2.8693,-2.8678,-2.7902,-2.7085,-2.6342,-2.6171,-2.508,-2.2723,-2.2494,-2.1384,-1.9143,-1.8905,-1.8449,-1.7681,-1.6744,-1.6634,-1.7279,-1.7165,-1.5947,-1.3796,-1.372,-1.3331,-1.2699,-1.2699,-1.2202,-1.1401,-1.1393,-1.0972,-1.0304,-1.0296,-1.0254,-1.0215,-1.0206,-0.961,-0.8819,-0.8867,-0.831,-0.765,-0.809,-0.8226,-0.8402,-0.9334,-0.957,-0.9502,-0.9464,-0.9403,-0.9071,-0.7895,-0.762,-0.7665,-0.7665,-0.7514,-0.7376,-0.7376,-0.6081,-0.498,-0.5222,-0.5942,-0.6894,-0.8048,-0.8432,-0.8821,-0.9506,-0.959,-0.9171,-0.8004,-0.6806,-0.5105,-0.2557,-0.0618,0.1682,0.4657,0.5538,0.6382,0.7436,0.7946,0.8438,0.8982,0.9649,1.0323,1.1015,1.0925,1.1061,1.1446,1.1072,1.1092,1.1555,1.1212,1.1293,-1.9554,-1.9571,-1.9836,-2.1041,-2.1557,0.0,0.0,-2.7217,-2.7528,-2.8214,-2.8007,-2.7452,-2.6607,-2.7673,-2.9012,-3.0016,-3.0625,-3.1009,-3.1015,-3.0462,-2.9956,-2.9774,-2.902,-2.8512,-2.8426,-2.7257,-2.6158,-2.5389,-2.436,-2.3177,-2.1775,-2.1225,-2.0287,-1.8888,-1.8335,-1.7851,-1.7444,-1.6545,-1.6211,-1.6392,-1.583,-1.4895,-1.3599,-1.3599,-1.2938,-1.1799,-1.1786,-1.1349,-1.0583,-1.0594,-1.0488,-1.0307,-1.0299,-0.9922,-0.9454,-1.0008,-0.9602,-0.8879,-0.9363,-0.9281,-0.8908,-0.8558,-0.8425,-0.8421,-0.8641,-0.9173,-0.9463,-0.833,-0.8352,-0.8705,-0.8722,-0.8717,-0.8676,-0.8465,-0.8326,-0.7774,-0.5937,-0.5444,-0.546,-0.5834,-0.5843,-0.6171,-0.7385,-0.797,-0.8483,-0.9016,-0.9794,-0.9525,-0.7389,-0.7308,-0.5967,-0.2047,0.0495,0.288,0.5261,0.5647,0.6318,0.7645,0.8231,0.8777,0.9353,1.0126,1.0708,1.1038,1.1198,1.1373,1.1601,1.138,1.1444,1.1768,1.1557,1.1676,-1.8887,-1.8685,-1.8939,-2.0191,0.0,0.0,-2.5067,-2.6689,-2.7871,-2.8741,-2.8326,-2.7604,-2.7012,-2.7605,-2.8534,-2.9652,-2.9977,-3.0227,-3.065,-3.0052,-2.9415,-2.8968,-2.8405,-2.79,-2.7512,-2.6068,-2.4951,-2.4415,-2.3088,-2.1966,-2.1211,-2.041,-1.9485,-1.8422,-1.7603,-1.7015,-1.664,-1.6007,-1.5638,-1.5548,-1.4905,-1.41,-1.318,-1.3199,-1.235,-1.0893,-1.0899,-1.0584,-1.0098,-1.0105,-1.0183,-1.0274,-0.9989,-0.9492,-0.893,-0.9267,-0.8955,-0.8466,-0.9026,-0.9176,-0.9034,-0.862,-0.8202,-0.7885,-0.802,-0.8073,-0.7984,-0.7468,-0.756,-0.805,-0.9074,-0.9196,-0.9036,-0.8968,-0.8852,-0.8177,-0.6143,-0.5928,-0.6262,-0.6678,-0.6247,-0.6145,-0.7126,-0.7778,-0.831,-0.873,-0.9708,-0.9633,-0.7568,-0.7475,-0.587,-0.1314,0.1349,0.3478,0.5175,0.5374,0.6031,0.7517,0.8052,0.8646,0.9449,1.0097,1.0556,1.0763,1.1118,1.1324,1.1399,1.1466,1.1541,1.1652,1.1762,1.1876,-1.9434,-1.8853,-1.8715,-1.8793,0.0,0.0,-2.3512,-2.3869,-2.4793,-2.7535,-2.7457,-2.6889,-2.6889,-2.7554,-2.8061,-2.8001,-2.8656,-2.9145,-2.9015,-2.8798,-2.8316,-2.7332,-2.7135,-2.6728,-2.578,-2.4297,-2.339,-2.339,-2.2694,-2.194,-2.1117,-2.0311,-1.9147,-1.7548,-1.6713,-1.5877,-1.5003,-1.485,-1.4794,-1.4794,-1.4656,-1.3782,-1.2306,-1.2309,-1.146,-0.9991,-0.9995,-1.0044,-1.0104,-1.0101,-1.0176,-1.0203,-0.9346,-0.8965,-0.8793,-0.7922,-0.7572,-0.7502,-0.7509,-0.7456,-0.7496,-0.8025,-0.7424,-0.6699,-0.7682,-0.6412,-0.5073,-0.7198,-0.7328,-0.7181,-0.8773,-0.8744,-0.8434,-0.8974,-0.8852,-0.8575,-0.851,-0.7969,-0.7504,-0.7504,-0.7221,-0.7112,-0.743,-0.7947,-0.8413,-0.8735,-0.9203,-0.9272,-0.8663,-0.6982,-0.4306,-0.0251,0.1862,0.3396,0.4419,0.48,0.5624,0.7114,0.7329,0.7944,0.9151,0.9398,0.974,1.0272,1.0623,1.0865,1.0991,1.1333,1.1415,1.1307,1.1776,1.1848,-1.8986,-1.8677,-1.8793,-2.0047,-2.1732,-2.3357,0.0,-2.5132,0.0,0.0,-2.7031,-2.6723,-2.6154,-2.6714,-2.7233,-2.7171,-2.7786,-2.8238,-2.8102,-2.7871,-2.7598,-2.724,-2.6559,-2.5986,-2.5653,-2.4185,-2.3026,-2.2458,-2.1718,-2.0725,-1.935,-1.913,-1.8275,-1.6564,-1.5786,-1.4976,-1.4092,-1.3951,-1.3896,-1.3878,-1.3809,-1.3235,-1.2304,-1.2306,-1.146,-0.9998,-1.0009,-1.0044,-1.0104,-1.0154,-1.0211,-1.0262,-1.0011,-0.9492,-0.8871,-0.8608,-0.8087,-0.7502,-0.7502,-0.7465,-0.7416,-0.7532,-0.7342,-0.7044,-0.6911,-0.6855,-0.6978,-0.7617,-0.8136,-0.8468,-0.8325,-0.8537,-0.8818,-0.8925,-0.888,-0.8703,-0.831,-0.8026,-0.7761,-0.749,-0.7342,-0.7236,-0.7114,-0.7795,-0.8345,-0.8248,-0.8829,-0.8865,-0.7693,-0.4975,-0.2544,-0.0957,0.1241,0.3028,0.4117,0.4515,0.5277,0.6612,0.6738,0.7384,0.88,0.9189,0.9494,0.9803,1.0184,1.0456,1.0565,1.0726,1.0968,1.1239,1.146,1.1579,-1.901,-1.9254,-1.9919,-2.1247,-2.251,-2.366,-2.4629,-2.5412,-2.5983,-2.6211,-2.6294,-2.6191,-2.5712,-2.6293,-2.6831,-2.6773,-2.7093,-2.7311,-2.7204,-2.6925,-2.6597,-2.6247,-2.5574,-2.5004,-2.4653,-2.3152,-2.2017,-2.1513,-2.0807,-1.9836,-1.8577,-1.8275,-1.7365,-1.564,-1.4863,-1.4088,-1.3225,-1.3115,-1.3215,-1.3495,-1.3133,-1.2723,-1.2296,-1.1966,-1.1161,-1.0003,-1.0009,-1.0039,-1.0094,-1.0135,-1.0228,-1.0262,-0.9912,-0.9433,-0.8899,-0.8531,-0.8017,-0.7541,-0.7483,-0.7437,-0.7397,-0.7359,-0.7313,-0.7283,-0.7221,-0.7495,-0.7917,-0.8316,-0.8824,-0.9111,-0.8552,-0.8729,-0.9022,-0.8959,-0.8973,-0.8925,-0.8599,-0.8424,-0.8232,-0.8007,-0.7676,-0.7383,-0.7214,-0.7816,-0.8245,-0.8036,-0.8531,-0.8363,-0.6822,-0.456,-0.2623,-0.1345,0.0743,0.2398,0.3257,0.3987,0.4861,0.5923,0.6201,0.6877,0.8125,0.8507,0.8838,0.9104,0.9569,0.9906,1.0071,1.031,1.0608,1.0968,1.1256,1.14,-1.9194,-2.0102,-2.1493,-2.2304,-2.2999,-2.3724,-2.458,-2.4981,-2.5192,-2.536,-2.5437,-2.549,-2.5493,-2.6151,-2.6668,-2.6581,-2.6458,-2.6343,-2.6282,-2.5929,-2.5405,-2.4673,-2.4293,-2.3767,-2.3047,-2.1583,-2.0677,-2.0696,-1.9936,-1.9149,-1.8416,-1.7615,-1.6447,-1.4851,-1.4006,-1.3251,-1.2612,-1.2441,-1.2724,-1.3373,-1.2636,-1.2255,-1.2178,-1.1431,-1.0697,-1.001,-0.9995,-1.0039,-1.0108,-1.0099,-1.0176,-1.0223,-0.9424,-0.906,-0.8905,-0.8043,-0.7675,-0.759,-0.746,-0.7401,-0.7416,-0.749,-0.7467,-0.7547,-0.8294,-0.8294,-0.8243,-0.9144,-0.9366,-0.93,-0.9214,-0.9157,-0.9095,-0.9063,-0.9132,-0.9207,-0.9233,-0.9052,-0.886,-0.8822,-0.817,-0.7636,-0.7636,-0.7971,-0.8208,-0.8093,-0.8343,-0.7968,-0.6377,-0.5371,-0.3945,-0.173,0.024,0.1619,0.2117,0.3342,0.4398,0.5068,0.5703,0.6416,0.7297,0.7608,0.7966,0.8354,0.8866,0.9271,0.9577,1.0021,1.0386,1.0639,1.1085,1.1302,-1.8065,-1.9195,-2.0785,-2.2162,-2.3423,-2.4401,-2.4657,-2.4764,-2.491,-2.5253,-2.5376,-2.5437,-2.5493,-2.564,-2.5759,-2.5696,-2.5514,-2.5401,-2.538,-2.4559,-2.3864,-2.3696,-2.2891,-2.2278,-2.2113,-2.109,-2.0486,-2.0535,-1.9284,-1.8189,-1.743,-1.6694,-1.5814,-1.4832,-1.3376,-1.2858,-1.3355,-1.2608,-1.2314,-1.2473,-1.2306,-1.193,-1.1356,-1.1229,-1.0753,-0.9995,-0.999,-1.0039,-1.0089,-1.0109,-1.0181,-1.0281,-1.0089,-0.9608,-0.8963,-0.8712,-0.8189,-0.759,-0.7513,-0.7452,-0.751,-0.8138,-0.8303,-0.8384,-0.9184,-0.9333,-0.9262,-0.9437,-0.9421,-0.9366,-0.9293,-0.9236,-0.9218,-0.9359,-0.9323,-0.933,-0.9478,-0.9463,-0.9346,-0.9023,-0.8809,-0.8498,-0.7933,-0.8252,-0.862,-0.8699,-0.8768,-0.8671,-0.8309,-0.6191,-0.449,-0.385,-0.1094,0.1011,0.1747,0.3172,0.4175,0.4559,0.5613,0.6378,0.6686,0.7196,0.7695,0.8156,0.8495,0.8894,0.9347,0.9722,1.0224,1.0845,1.1104,1.1247,-1.8119,-1.9526,-2.1231,-2.3176,-2.4159,-2.4666,-2.4723,-2.4711,-2.4618,-2.456,-2.4965,-2.5376,-2.5483,-2.5132,-2.4822,-2.4783,-2.4293,-2.3896,-2.385,-2.3201,-2.2738,-2.2772,-2.1791,-2.1129,-2.1163,-2.0363,-1.9853,-1.9918,-1.8842,-1.7868,-1.7095,-1.6358,-1.5388,-1.4176,-1.2952,-1.2325,-1.2354,-1.1485,-1.1249,-1.162,-1.1243,-1.0892,-1.0577,-1.0602,-1.0398,-0.9998,-1.0003,-1.0039,-1.0098,-1.0099,-1.0169,-1.0251,-1.0282,-1.0016,-0.9609,-0.955,-0.9224,-0.8792,-0.8729,-0.8651,-0.8671,-0.9088,-0.9177,-0.9194,-0.9577,-0.9672,-0.9628,-0.9525,-0.9474,-0.943,-0.9367,-0.932,-0.9349,-0.9585,-0.957,-0.954,-0.9742,-0.9655,-0.9494,-0.9279,-0.8939,-0.856,-0.8241,-0.8391,-0.8668,-0.9,-0.8928,-0.8926,-0.9162,-0.7797,-0.5795,-0.3142,-0.0383,0.1485,0.2048,0.3083,0.3855,0.4235,0.5322,0.6041,0.6199,0.6695,0.7255,0.784,0.8088,0.8517,0.91,0.9461,0.9965,1.052,1.0791,1.0968,-1.8006,-1.9741,-2.1772,-2.4135,-2.4726,-2.4734,-2.4771,-2.4564,-2.4217,-2.3761,-2.44,-2.5043,-2.5026,-2.4403,-2.3867,-2.3865,-2.3141,-2.2566,-2.2502,-2.2093,-2.1819,-2.185,-2.0878,-2.0202,-2.0252,-1.9474,-1.8984,-1.9034,-1.8232,-1.7449,-1.6783,-1.6047,-1.5017,-1.3651,-1.2873,-1.2194,-1.1603,-1.0684,-1.0543,-1.1193,-1.0268,-0.9887,-1.0001,-0.9998,-0.9998,-1.0012,-0.9998,-1.0044,-1.01,-1.0101,-1.0136,-1.0217,-1.0279,-1.0307,-1.0292,-1.0212,-1.0159,-1.0108,-1.002,-0.9971,-0.9918,-0.9913,-0.985,-0.9791,-0.9731,-0.9699,-0.9683,-0.9559,-0.9517,-0.9491,-0.9439,-0.9412,-0.9465,-0.975,-0.9775,-0.9786,-0.9993,-0.9824,-0.96,-0.9551,-0.8903,-0.8409,-0.8549,-0.8535,-0.8625,-0.9045,-0.9002,-0.9061,-0.9503,-0.9043,-0.6828,-0.2032,0.0615,0.2128,0.2294,0.2866,0.3425,0.392,0.5,0.5702,0.5875,0.6268,0.6816,0.752,0.7724,0.8119,0.8806,0.9232,0.967,1.0148,1.0451,1.0656,-1.5848,-1.8029,-2.1028,-2.3427,-2.4418,-2.4781,-2.4712,-2.4039,-2.3396,-2.3424,-2.374,-2.3828,-2.3265,-2.3052,-2.2947,-2.2901,-2.2666,-2.2486,-2.2419,-2.1564,-2.0934,-2.0886,-1.9984,-1.933,-1.9295,-1.8506,-1.7989,-1.8005,-1.6733,-1.5895,-1.5799,-1.5093,-1.4611,-1.4437,-1.3618,-1.345,-1.4032,-1.2595,-1.1937,-1.2028,-1.064,-0.999,-1.0003,-1.0001,-0.9993,-1.0003,-0.9993,-1.0034,-1.01,-1.0094,-1.015,-1.0217,-1.0275,-1.0306,-1.0292,-1.0218,-1.0187,-1.0169,-1.0044,-0.9984,-0.9971,-0.9919,-0.9857,-0.9793,-0.9789,-0.9751,-0.9698,-0.9683,-0.9593,-0.95,-0.9491,-0.9448,-0.9481,-0.9806,-0.984,-0.9857,-1.0115,-1.0144,-1.0012,-0.9725,-0.9121,-0.8695,-0.8825,-0.8844,-0.8817,-0.8774,-0.9074,-0.9452,-0.9808,-0.8132,-0.5971,-0.3445,-0.0174,0.1759,0.1566,0.2098,0.2729,0.3364,0.49,0.5776,0.5804,0.6206,0.6708,0.7325,0.7355,0.7733,0.845,0.8923,0.9568,1.0362,1.0405,1.0447,-1.6029,-1.8227,-2.0576,-2.2656,-2.3309,-2.3444,-2.3375,-2.2905,-2.2365,-2.1965,-2.2023,-2.2242,-2.2681,-2.1952,-2.1463,-2.2004,-2.07,-1.9945,-2.0826,-2.0023,-1.9298,-1.9188,-1.8726,-1.8218,-1.7749,-1.7359,-1.7129,-1.7129,-1.6131,-1.5551,-1.5542,-1.4837,-1.4458,-1.4492,-1.3666,-1.3406,-1.3776,-1.2196,-1.1226,-1.0856,-1.0264,-0.9984,-0.9942,-0.9984,-1.0001,-0.9998,-1.0006,-1.0014,-1.0049,-1.009,-1.0144,-1.0202,-1.0275,-1.0306,-1.0291,-1.022,-1.0191,-1.0197,-1.0089,-1.0029,-1.0001,-0.9959,-0.9919,-0.985,-0.9811,-0.9782,-0.9751,-0.9713,-0.9649,-0.9601,-0.9517,-0.9483,-0.953,-0.9824,-0.9876,-0.9915,-1.015,-1.0198,-1.0114,-0.9814,-0.9529,-0.9286,-0.9195,-0.9187,-0.917,-0.9146,-0.9333,-0.9391,-0.9255,-0.6994,-0.426,-0.1235,0.0331,0.177,0.3195,0.2923,0.2928,0.3486,0.453,0.5264,0.5498,0.6114,0.6482,0.6587,0.682,0.7489,0.8571,0.8778,0.9189,0.9797,0.9707,0.9662,-1.5838,-1.7605,-1.9134,-2.1313,-2.1984,-2.2115,-2.2242,-2.1945,-2.1447,-2.0773,-2.0504,-2.0642,-2.1433,-2.0585,-1.9954,-2.0488,-1.8791,-1.7811,-1.8983,-1.8415,-1.7854,-1.7698,-1.7581,-1.7253,-1.663,-1.6363,-1.624,-1.624,-1.5572,-1.5071,-1.4864,-1.4344,-1.3955,-1.3762,-1.3182,-1.288,-1.288,-1.1507,-1.0489,-0.98,-0.9925,-0.9948,-0.9893,-0.9948,-0.9978,-0.9971,-0.9971,-0.9987,-1.0005,-1.0044,-1.0103,-1.018,-1.0247,-1.0283,-1.029,-1.0226,-1.0199,-1.0188,-1.0121,-1.0059,-0.9998,-1.0006,-0.9954,-0.9888,-0.9832,-0.9805,-0.9794,-0.9743,-0.9713,-0.9683,-0.9585,-0.9534,-0.9597,-0.9836,-0.9892,-0.9949,-1.0153,-1.0198,-1.0147,-0.9973,-0.9866,-0.9771,-0.9558,-0.9514,-0.9505,-0.9474,-0.9566,-0.8941,-0.7013,-0.4713,-0.2211,0.0533,0.1372,0.2528,0.4475,0.3716,0.3439,0.4188,0.4532,0.4979,0.5554,0.6091,0.6337,0.626,0.6609,0.7345,0.8456,0.8495,0.8745,0.9182,0.905,0.8958,-1.4019,-1.4856,-1.5847,-1.905,-2.0563,-2.1406,-2.1983,-2.1503,-2.0851,-2.0501,-1.9797,-1.9133,-1.8609,-1.8712,-1.8649,-1.7914,-1.7586,-1.7375,-1.7341,-1.7188,-1.7017,-1.6885,-1.6733,-1.6625,-1.6509,-1.577,-1.5264,-1.5264,-1.4581,-1.3873,-1.3172,-1.3088,-1.2746,-1.2057,-1.1989,-1.196,-1.196,-1.1251,-1.0523,-0.9798,-0.9875,-0.9912,-0.9893,-0.9912,-0.9912,-0.9912,-0.9912,-0.9948,-0.999,-0.9992,-1.0048,-1.0112,-1.0174,-1.0247,-1.0287,-1.0214,-1.0196,-1.0198,-1.0125,-1.0051,-1.0005,-0.9993,-0.9959,-0.9906,-0.9888,-0.985,-0.9801,-0.9801,-0.9751,-0.9698,-0.9691,-0.9641,-0.9643,-0.9854,-0.9908,-0.9963,-1.0153,-1.0205,-1.0215,-1.0263,-1.0064,-0.9884,-0.9876,-0.982,-0.9691,-0.9444,-0.9733,-0.7917,-0.2225,-0.0531,0.0112,0.0067,0.2777,0.4495,0.4248,0.3772,0.41,0.5607,0.5295,0.5446,0.6321,0.6145,0.6321,0.6927,0.7029,0.7296,0.7744,0.7888,0.8287,0.8915,0.8717,0.8561,-1.2548,-1.3809,-1.5024,-1.6816,-1.7959,-1.8705,-1.896,-1.9104,-1.8963,-1.8243,-1.8197,-1.796,-1.6842,-1.7255,-1.7727,-1.7557,-1.6554,-1.6081,-1.6891,-1.6478,-1.5996,-1.5741,-1.5635,-1.5329,-1.4693,-1.4366,-1.416,-1.416,-1.4009,-1.3606,-1.2903,-1.2875,-1.258,-1.1917,-1.1906,-1.1675,-1.1201,-1.1003,-1.0531,-0.9793,-0.9863,-0.9893,-0.9893,-0.9893,-0.9906,-0.9894,-0.9894,-0.9936,-1.0001,-0.9992,-1.0048,-1.0115,-1.0169,-1.0243,-1.0287,-1.0215,-1.0203,-1.0187,-1.0124,-1.0056,-1.0006,-1.0005,-0.9974,-0.9959,-0.9906,-0.9875,-0.985,-0.9764,-0.9754,-0.9758,-0.971,-0.968,-0.9706,-0.9859,-0.9989,-1.0115,-1.0176,-1.0209,-1.022,-1.0295,-1.0214,-1.0158,-1.0153,-1.0096,-1.0026,-0.9925,-0.9973,-0.8699,-0.5085,-0.224,-0.0648,-0.0873,0.2173,0.3855,0.2934,0.3647,0.4532,0.5421,0.6006,0.6244,0.6098,0.6781,0.7148,0.7136,0.7559,0.782,0.784,0.7956,0.8156,0.8449,0.8099,0.7821,-1.1365,-1.2512,-1.3632,-1.5104,-1.5716,-1.613,-1.6755,-1.7189,-1.7251,-1.6487,-1.6871,-1.6989,-1.5796,-1.5907,-1.6273,-1.6545,-1.5593,-1.511,-1.5907,-1.5506,-1.4999,-1.4667,-1.4525,-1.4205,-1.3544,-1.3476,-1.3476,-1.3476,-1.3622,-1.3295,-1.2389,-1.2327,-1.1931,-1.1041,-1.1026,-1.0777,-1.0295,-1.0392,-1.02,-0.9731,-0.9806,-0.9844,-0.9863,-0.9863,-0.9882,-0.9906,-0.9906,-0.9931,-0.9971,-0.9976,-1.0019,-1.0106,-1.015,-1.0213,-1.0285,-1.0253,-1.0229,-1.0193,-1.0147,-1.0075,-0.9992,-0.9996,-0.9984,-0.9959,-0.9913,-0.9888,-0.985,-0.9764,-0.9768,-0.9794,-0.9717,-0.9743,-0.9794,-0.9882,-1.0059,-1.0209,-1.023,-1.0234,-1.0242,-1.0296,-1.0305,-1.0292,-1.031,-1.0232,-1.0198,-1.0199,-1.0116,-0.9247,-0.7044,-0.3715,-0.1493,-0.1321,0.1392,0.2837,0.1942,0.3424,0.448,0.4674,0.5816,0.6275,0.5789,0.6862,0.7375,0.7157,0.7859,0.8184,0.807,0.8138,0.8195,0.8262,0.7994,0.7695,0.0,0.0,0.0,-1.389,-1.3974,-1.3896,-1.5599,-1.5959,-1.581,-1.5422,-1.5919,-1.6184,-1.5407,-1.4653,-1.4289,-1.4673,-1.4691,-1.4524,-1.4264,-1.4179,-1.402,-1.368,-1.349,-1.3327,-1.3193,-1.3176,-1.3176,-1.3193,-1.3362,-1.2877,-1.1503,-1.1395,-1.0732,-0.9335,-0.9293,-0.9303,-0.9303,-0.9429,-0.9532,-0.9601,-0.9666,-0.9738,-0.9806,-0.9806,-0.9844,-0.9906,-0.9906,-0.9894,-0.9893,-0.9893,-0.9972,-1.0094,-1.0096,-1.0176,-1.0301,-1.0304,-1.0253,-1.0201,-1.0209,-1.0099,-0.9992,-0.9996,-0.9949,-0.9893,-0.9893,-0.985,-0.9799,-0.9796,-0.9801,-0.9787,-0.9721,-0.9794,-0.9905,-0.9895,-1.0043,-1.0215,-1.0281,-1.03,-1.0304,-1.0293,-1.0303,-1.029,-1.0293,-1.0245,-1.0205,-1.02,-1.0112,-0.933,-0.737,-0.4436,-0.218,-0.1272,0.0598,0.168,0.1406,0.3042,0.393,0.3542,0.4735,0.5484,0.5494,0.6342,0.6922,0.7118,0.7888,0.8336,0.841,0.8336,0.8336,0.841,0.8382,0.8213,-0.9063,0.0,0.0,0.0,0.0,0.0,-1.3205,-1.3671,-1.3932,-1.3825,-1.4243,-1.4572,-1.4395,-1.3626,-1.316,-1.3523,-1.3194,-1.2769,-1.2457,-1.2781,-1.2924,-1.2581,-1.279,-1.2929,-1.2855,-1.2783,-1.2836,-1.2979,-1.3069,-1.2807,-1.2018,-1.111,-1.0197,-0.9329,-0.9301,-0.9301,-0.9301,-0.9385,-0.9465,-0.9532,-0.9602,-0.9684,-0.9805,-0.9805,-0.9843,-0.9907,-0.9907,-0.99,-0.9893,-0.9893,-0.9972,-1.0094,-1.0108,-1.0188,-1.0297,-1.0301,-1.0254,-1.0208,-1.0195,-1.0132,-1.0068,-1.002,-0.9984,-0.9965,-0.9925,-0.9882,-0.9869,-0.9808,-0.9794,-0.9787,-0.9721,-0.9766,-0.9836,-0.9898,-1.002,-1.015,-1.0209,-1.0263,-1.0308,-1.0297,-1.0302,-1.0307,-1.0293,-1.0273,-1.0268,-1.0266,-0.9276,-0.8298,-0.7753,-0.5064,-0.3196,-0.3129,-0.048,0.1276,0.1203,0.1393,0.2197,0.376,0.4294,0.475,0.5118,0.6575,0.7336,0.7237,0.7956,0.8393,0.8606,0.8516,0.8488,0.8533,0.8042,0.7782,0.0,0.0,0.0,0.0,0.0,0.0,-1.1747,-1.2102,-1.231,-1.2243,-1.2956,-1.3457,-1.3071,-1.2485,-1.1999,-1.1842,-1.1227,-1.099,-1.1547,-1.2034,-1.225,-1.1926,-1.2286,-1.2514,-1.2412,-1.2376,-1.2396,-1.2526,-1.2426,-1.2023,-1.1189,-1.0204,-0.9497,-0.9095,-0.9146,-0.9174,-0.9181,-0.9251,-0.933,-0.9421,-0.9481,-0.9597,-0.9761,-0.9757,-0.9791,-0.985,-0.985,-0.985,-0.9863,-0.9918,-1.0001,-1.0094,-1.0138,-1.021,-1.0293,-1.0295,-1.0254,-1.0194,-1.0205,-1.016,-1.0092,-1.0059,-1.0024,-0.9995,-0.9912,-0.9894,-0.9888,-0.9815,-0.9525,-0.9201,-0.9166,-0.9192,-0.9239,-0.9338,-0.9712,-1.0087,-1.0211,-1.0203,-1.0175,-1.0176,-1.0231,-1.0233,-1.0043,-1.0166,-1.0136,-0.9633,-0.8701,-0.768,-0.6616,-0.4972,-0.3965,-0.413,-0.1171,0.0813,0.0858,0.0101,0.0685,0.3199,0.3578,0.3953,0.452,0.6235,0.7071,0.6841,0.7656,0.8251,0.8578,0.8589,0.8617,0.8662,0.8156,0.7869,-0.9709,-0.9906,0.0,0.0,-1.0343,0.0,-1.0914,-1.1056,-1.0954,-1.0938,-1.1932,-1.2592,-1.1783,-1.1334,-1.086,-1.0083,-0.9282,-0.932,-1.101,-1.1567,-1.1712,-1.1516,-1.1866,-1.2066,-1.1933,-1.1918,-1.1924,-1.1946,-1.1617,-1.0927,-0.9721,-0.9226,-0.8928,-0.8794,-0.8987,-0.9054,-0.8992,-0.9056,-0.9143,-0.9284,-0.9339,-0.9483,-0.9657,-0.9673,-0.9724,-0.9784,-0.9803,-0.9798,-0.9812,-0.9954,-1.0039,-1.009,-1.0173,-1.0237,-1.0287,-1.0308,-1.0193,-1.0066,-1.0058,-0.9956,-0.981,-0.9805,-0.9768,-0.9711,-0.964,-0.9617,-0.96,-0.9543,-0.8918,-0.8292,-0.8379,-0.8387,-0.8452,-0.8689,-0.9378,-1.0019,-1.0191,-1.0097,-0.9938,-0.9887,-1.0007,-1.0027,-0.9677,-0.9906,-0.9694,-0.84,-0.8088,-0.7192,-0.4904,-0.4606,-0.4616,-0.4641,-0.1642,0.0331,0.0263,-0.0636,-0.0191,0.2176,0.2835,0.3321,0.3821,0.5567,0.6411,0.6136,0.7237,0.7966,0.8326,0.8606,0.8745,0.8761,0.8495,0.8184,-0.9094,-0.9582,-1.0082,-1.0187,-0.9995,0.0,-1.0033,-1.0116,-1.0318,-1.0926,-1.1123,-1.1301,-1.1685,-1.0753,-0.9892,-0.9768,-0.8998,-0.868,-0.9519,-1.0113,-1.0577,-1.0844,-1.1266,-1.1557,-1.1512,-1.1408,-1.1431,-1.1579,-1.1273,-1.0622,-0.9516,-0.9913,-0.9721,-0.8755,-0.9334,-0.9404,-0.893,-0.8925,-0.9018,-0.9133,-0.9206,-0.9321,-0.9456,-0.9573,-0.9651,-0.9714,-0.9772,-0.9808,-0.9811,-0.9949,-1.0011,-1.0036,-1.0161,-1.0202,-1.0232,-1.0284,-0.982,-0.9156,-0.9148,-0.8648,-0.8005,-0.8013,-0.7995,-0.7971,-0.79,-0.7885,-0.7871,-0.7805,-0.7623,-0.7573,-0.817,-0.8312,-0.8536,-0.9446,-0.9743,-0.9829,-0.9821,-0.9785,-0.9619,-0.9118,-0.9062,-0.9214,-0.9605,-0.9404,-0.8526,-0.6616,-0.63,-0.6046,-0.5396,-0.531,-0.5374,-0.5538,-0.2182,-0.0254,-0.1117,0.0401,0.1326,0.1229,0.2909,0.3737,0.3425,0.5111,0.596,0.5791,0.7121,0.782,0.783,0.869,0.8905,0.8544,0.828,0.7937,-0.9554,-0.9824,-1.0073,-1.0015,-0.9624,0.0,0.0,-0.9648,-0.9578,-1.0428,-1.0401,-1.0211,-1.0118,-0.9326,-0.8533,-0.7997,-0.7542,-0.7326,-0.7526,-0.8785,-0.9776,-0.9974,-1.0349,-1.061,-1.061,-1.0661,-1.0707,-1.0696,-1.0389,-0.9842,-0.9002,-0.9142,-0.8962,-0.8329,-0.873,-0.8812,-0.8559,-0.8543,-0.8655,-0.8863,-0.8951,-0.9081,-0.9248,-0.9421,-0.955,-0.9649,-0.968,-0.9717,-0.9768,-0.9927,-1.0001,-1.0006,-1.0157,-1.0202,-1.0202,-1.0234,-0.9679,-0.8904,-0.8899,-0.8308,-0.7546,-0.752,-0.7506,-0.7479,-0.7424,-0.7369,-0.734,-0.7278,-0.688,-0.6592,-0.6964,-0.7009,-0.714,-0.7839,-0.8599,-0.9141,-0.9106,-0.9388,-0.951,-0.8999,-0.865,-0.8517,-0.8713,-0.8007,-0.6854,-0.5241,-0.501,-0.5212,-0.5817,-0.4178,-0.3029,-0.324,-0.1512,-0.0254,-0.0033,0.0569,0.1005,0.1238,0.2422,0.3114,0.3097,0.477,0.582,0.6052,0.7011,0.7462,0.7364,0.8304,0.8635,0.8449,0.8109,0.7637,-0.9968,-0.98,-0.9641,-0.976,-0.9259,-0.8934,0.0,0.0,0.0,-0.9765,-0.9738,-0.9314,-0.8373,-0.7861,-0.7221,-0.615,-0.5928,-0.5857,-0.5837,-0.7338,-0.8561,-0.8894,-0.9318,-0.9574,-0.9536,-0.9664,-0.9728,-0.9698,-0.9321,-0.8875,-0.8401,-0.8266,-0.8094,-0.7884,-0.8116,-0.8228,-0.8198,-0.8198,-0.8319,-0.8551,-0.8691,-0.8857,-0.905,-0.9255,-0.9421,-0.9553,-0.9575,-0.9615,-0.968,-0.9719,-0.9722,-0.9748,-0.9884,-0.995,-0.9938,-0.9773,-0.9166,-0.8416,-0.8414,-0.7847,-0.7088,-0.7046,-0.7012,-0.6988,-0.6928,-0.6869,-0.6804,-0.673,-0.6175,-0.5615,-0.577,-0.5703,-0.5786,-0.6425,-0.7566,-0.8521,-0.863,-0.9117,-0.9389,-0.8939,-0.8434,-0.8001,-0.7763,-0.6636,-0.543,-0.4463,-0.3875,-0.3949,-0.5068,-0.2482,-0.0449,-0.0246,-0.0224,0.0201,0.1285,0.0558,0.0462,0.147,0.1963,0.2458,0.2966,0.4488,0.5609,0.6229,0.6691,0.6871,0.673,0.7457,0.7907,0.805,0.7744,0.7131,-0.9116,-0.8532,-0.8068,-0.8826,-0.8944,-0.8891,-0.8941,0.0,-0.9856,-0.9181,0.0,-0.8624,-0.7677,0.0,0.0,-0.5689,-0.5073,-0.4895,-0.5474,-0.5454,-0.5951,-0.7428,-0.8271,-0.8684,-0.8563,-0.831,-0.837,-0.8887,-0.8345,-0.7977,-0.7968,-0.8553,-0.8554,-0.7842,-0.8455,-0.8621,-0.8214,-0.8198,-0.828,-0.8412,-0.8551,-0.8696,-0.8835,-0.904,-0.92,-0.934,-0.9456,-0.9552,-0.9565,-0.8997,-0.8749,-0.8783,-0.8973,-0.9043,-0.8968,-0.8243,-0.7423,-0.668,-0.6678,-0.6081,-0.5304,-0.5291,-0.5251,-0.5196,-0.5194,-0.5141,-0.5063,-0.4994,-0.4917,-0.4968,-0.5623,-0.5734,-0.6132,-0.789,-0.8401,-0.8622,-0.9113,-0.922,-0.9047,-0.8416,-0.8144,-0.7894,-0.7504,-0.6249,-0.5157,-0.4785,-0.2656,-0.1154,-0.1312,-0.1142,-0.0378,0.1333,0.1513,0.1243,0.0593,0.0995,0.1306,0.1326,0.2194,0.2896,0.3225,0.4172,0.4979,0.5585,0.5835,0.5882,0.5752,0.5967,0.6336,0.6802,0.6873,0.6298,-0.8863,-0.834,-0.7867,-0.869,-0.8542,-0.831,-0.8756,-0.904,-0.917,-0.8989,0.0,0.0,0.0,0.0,0.0,0.0,-0.3109,-0.2766,-0.2973,-0.3692,-0.4912,-0.6757,-0.6729,-0.6651,-0.6858,-0.7217,-0.7793,-0.8661,-0.8167,-0.7875,-0.8073,-0.8135,-0.7901,-0.7294,-0.7583,-0.7665,-0.7517,-0.7694,-0.7854,-0.7997,-0.8243,-0.8425,-0.8575,-0.8773,-0.896,-0.9132,-0.9304,-0.9439,-0.9481,-0.8853,-0.8609,-0.8529,-0.7697,-0.7705,-0.8106,-0.7767,-0.7108,-0.6387,-0.6347,-0.5787,-0.5049,-0.5023,-0.493,-0.4846,-0.4841,-0.4777,-0.4679,-0.4594,-0.4523,-0.4522,-0.4802,-0.4915,-0.5174,-0.6068,-0.7123,-0.7917,-0.7904,-0.8656,-0.9117,-0.8494,-0.7993,-0.7446,-0.6814,-0.6427,-0.6213,-0.6298,-0.4455,-0.2592,-0.1274,-0.0111,0.0843,0.1496,0.1563,0.1388,0.0912,0.0955,0.1173,0.1497,0.2332,0.322,0.4135,0.4301,0.4692,0.5372,0.5491,0.5446,0.5181,0.5494,0.541,0.4991,0.5561,0.5267,-0.8411,-0.8003,-0.7538,-0.837,-0.8301,-0.8078,-0.8282,-0.8648,-0.8618,-0.7391,-0.653,0.0,0.0,0.0,0.0,0.0,0.0,-0.0676,-0.0782,-0.1752,-0.323,-0.5302,-0.4877,-0.4613,-0.507,-0.5758,-0.6658,-0.7822,-0.7565,-0.7589,-0.8127,-0.7735,-0.7363,-0.704,-0.6953,-0.6931,-0.7002,-0.727,-0.7484,-0.762,-0.7941,-0.8149,-0.8267,-0.8489,-0.8711,-0.8928,-0.9132,-0.9293,-0.935,-0.8548,-0.8216,-0.8066,-0.6545,-0.6335,-0.6882,-0.6894,-0.6509,-0.6013,-0.5955,-0.5566,-0.5057,-0.502,-0.4927,-0.4821,-0.4798,-0.4714,-0.4617,-0.4541,-0.4443,-0.4338,-0.4256,-0.433,-0.4522,-0.488,-0.6126,-0.7191,-0.7086,-0.8048,-0.8762,-0.823,-0.765,-0.6978,-0.6113,-0.6138,-0.6298,-0.6402,-0.4716,-0.2751,-0.0865,0.0733,0.1607,0.1388,0.1333,0.125,0.1134,0.1015,0.1243,0.193,0.2699,0.3584,0.4648,0.443,0.4564,0.5182,0.5106,0.4915,0.457,0.4765,0.4416,0.351,0.4393,0.4188,-0.7494,-0.7104,-0.6652,-0.7519,-0.8315,-0.851,-0.7175,-0.8576,-0.8678,-0.3479,-0.3266,-0.3353,-0.1267,0.0,0.0,0.0,0.0,0.0,0.0,0.049,-0.0167,-0.2381,-0.2671,-0.2875,-0.3354,-0.3707,-0.4456,-0.5786,-0.6106,-0.6768,-0.7951,-0.7561,-0.7342,-0.7382,-0.7079,-0.6931,-0.7002,-0.7132,-0.7286,-0.7407,-0.7679,-0.784,-0.7936,-0.8193,-0.8461,-0.8728,-0.8928,-0.9081,-0.9113,-0.7781,-0.7245,-0.7097,-0.5618,-0.506,-0.5079,-0.5091,-0.5074,-0.5054,-0.5042,-0.5029,-0.5,-0.4999,-0.4952,-0.4888,-0.4819,-0.476,-0.4688,-0.4617,-0.4541,-0.446,-0.4332,-0.4387,-0.4727,-0.5647,-0.621,-0.6708,-0.7333,-0.7624,-0.7634,-0.7225,-0.7017,-0.657,-0.5523,-0.4979,-0.4496,-0.3998,-0.1662,0.0355,0.1208,0.1366,0.1388,0.1321,0.1176,0.1059,0.0922,0.1305,0.1884,0.2623,0.349,0.4081,0.4392,0.4462,0.4628,0.4922,0.4468,0.4081,0.3737,0.341,0.308,0.2749,0.3642,0.3094,-0.6537,-0.6131,-0.5814,-0.7273,-0.7537,-0.7538,-0.7853,-0.9101,-0.8672,-0.3247,-0.0392,0.076,-0.0473,0.0,0.0,0.0,0.0,0.0,0.0,0.1637,0.1899,0.1814,-0.0106,-0.1443,-0.1556,-0.2449,-0.3791,-0.5649,-0.5805,-0.6284,-0.7415,-0.7266,-0.7164,-0.7135,-0.7116,-0.717,-0.7335,-0.7376,-0.7437,-0.7539,-0.7435,-0.7531,-0.7768,-0.7952,-0.8222,-0.8579,-0.8739,-0.8923,-0.9057,-0.8118,-0.7469,-0.6977,-0.5991,-0.532,-0.4947,-0.4989,-0.5,-0.5001,-0.4992,-0.5001,-0.4998,-0.4993,-0.4922,-0.4807,-0.47,-0.4492,-0.4253,-0.4056,-0.3829,-0.3584,-0.337,-0.3477,-0.3781,-0.432,-0.532,-0.6267,-0.6622,-0.7344,-0.7787,-0.7387,-0.6717,-0.5878,-0.4762,-0.3737,-0.2776,-0.1887,-0.0176,0.1072,0.1296,0.1733,0.1927,0.1774,0.1994,0.2098,0.1901,0.2173,0.232,0.2299,0.3196,0.3826,0.4048,0.4205,0.4398,0.4628,0.428,0.3891,0.3565,0.2801,0.2236,0.1902,0.1522,0.1217,-0.6083,-0.5883,-0.5738,-0.6861,-0.7049,-0.6713,-0.5827,-0.6496,-0.5925,-0.1015,0.1992,0.3154,0.1219,0.17,0.0,0.0,0.0,0.0,0.0,0.3715,0.4257,0.4769,0.2489,0.1004,0.127,-0.0554,-0.2389,-0.3923,-0.4753,-0.5705,-0.6896,-0.6757,-0.6773,-0.6954,-0.691,-0.6957,-0.712,-0.7164,-0.7282,-0.7498,-0.7263,-0.7331,-0.7667,-0.7647,-0.7853,-0.8222,-0.8361,-0.8587,-0.8796,-0.8065,-0.7407,-0.6776,-0.6018,-0.5358,-0.4846,-0.4922,-0.4959,-0.4957,-0.4966,-0.4972,-0.4972,-0.4968,-0.4875,-0.4737,-0.4631,-0.4453,-0.4145,-0.3461,-0.3224,-0.304,-0.2517,-0.2879,-0.3399,-0.3521,-0.4433,-0.5252,-0.5267,-0.5835,-0.623,-0.5874,-0.5237,-0.448,-0.3602,-0.2558,-0.1546,-0.0682,0.0488,0.1341,0.156,0.1902,0.2137,0.2163,0.2387,0.2507,0.2445,0.2459,0.2531,0.2633,0.3298,0.3826,0.4053,0.421,0.4339,0.4339,0.4021,0.3629,0.3293,0.2299,0.1627,0.1269,0.0071,-0.0245]},{"header":{"parameterUnit":"m.s-1","parameterCategory":1,"la1":30.6,"la2":29.2853,"lo1":-89.7004,"lo2":-87.6739,"dy":0.0162,"dx":0.0183,"nx":112,"ny":82,"refTime":"2026-03-14T00:00:00:Z","depth":0,"parameterNumber":3,"parameterNumberName":"V-component_of_WINDS"},"data":[0.0,0.0,0.0,0.0,0.0,0.0,0.0,0.0,0.0,0.0,0.0,0.0,0.0,0.0,0.0,0.0,0.0,0.0,0.0,0.0,0.0,0.0,0.0,0.0,0.0,0.0,0.0,0.0,0.0,0.0,0.0,0.0,0.0,0.0,0.0,0.0,0.0,0.0,0.0,0.0,0.0,0.0,0.0,0.0,0.0,0.0,0.0,0.0,0.0,0.0,0.0,0.0,0.0,0.0,0.0,0.0,0.0,0.0,0.0,0.0,0.0,0.0,0.0,0.0,0.0,0.0,0.0,0.0,0.0,0.0,0.0,0.0,0.0,0.0,0.0,0.0,0.0,0.0,0.0,0.0,0.0,0.0,0.0,0.0,0.0,0.0,0.0,0.0,0.0,0.0,-0.1494,-0.1128,-0.136,-0.1619,-0.167,-0.3054,-0.3666,-0.3111,0.0,0.0,0.0,0.0,0.0,0.0,0.0,0.0,0.0,0.0,0.0,0.0,0.0,0.0,0.0,0.0,0.0,0.0,0.0,0.0,0.0,0.0,0.0,0.0,0.0,0.0,0.0,0.0,0.0,0.0,0.0,0.0,0.0,0.0,0.0,0.0,0.0,0.0,0.0,0.0,0.0,0.0,0.0,0.0,0.0,0.0,0.0,0.0,0.0,0.0,0.0,0.0,0.0,0.0,0.0,0.0,0.0,0.0,0.0,0.0,0.0,0.0,0.0,0.0,0.0,0.0,0.0,0.0,0.0,0.0,0.0,0.0,0.0,0.0,0.0,0.0,0.0,0.0,0.0,0.0,0.0,0.0,0.0,0.0,0.0,0.0,0.0,0.0,0.0,0.0,0.0,0.0,0.0,0.0,0.0,0.0,0.0,0.0,0.0,0.0,0.0,0.0,0.0,0.0,-0.1351,-0.0322,-0.1019,-0.1753,-0.2293,-0.2843,-0.3315,-0.3706,0.0,0.0,0.0,0.0,0.0,0.0,0.0,0.0,0.0,0.0,0.0,0.0,0.0,0.0,0.0,0.0,0.0,0.0,0.0,0.0,0.0,0.0,0.0,0.0,0.0,0.0,0.0,0.0,0.0,0.0,0.0,0.0,0.0,0.0,0.0,0.0,0.0,0.0,0.0,0.0,0.0,0.0,0.0,0.0,0.0,0.0,0.0,0.0,0.0,0.0,0.0,0.0,0.0,0.0,0.0,0.0,0.0,0.0,0.0,0.0,0.0,0.0,0.0,0.0,0.0,0.0,0.0,0.0,0.0,0.0,0.0,0.0,0.0,0.0,0.0,0.0,0.0,0.0,0.0,0.0,0.0,0.0,0.0,0.0,0.0,0.0,0.0,0.0,0.0,0.0,0.0,0.0,0.0,0.0,0.0,0.0,0.0,0.0,0.0,0.0,0.0,0.0,0.0,-0.1592,-0.0936,-0.0061,-0.0895,-0.1568,-0.1884,-0.2599,-0.313,-0.3467,-0.4105,0.0,0.0,0.0,0.0,0.0,0.0,0.0,0.0,0.0,0.0,0.0,0.0,0.0,0.0,0.0,0.0,0.0,0.0,0.0,0.0,0.0,0.0,0.0,0.0,0.0,0.0,0.0,0.0,0.0,0.0,0.0,0.0,0.0,0.0,0.0,0.0,0.0,0.0,0.0,0.0,0.0,0.0,0.0,0.0,0.0,0.0,0.0,0.0,0.0,0.0,0.0,0.0,0.0,0.0,0.0,0.0,0.0,0.0,0.0,0.0,0.0,0.0,0.0,0.0,0.0,0.0,0.0,0.0,0.0,0.0,0.0,0.0,0.0,0.0,0.0,0.0,0.0,0.0,0.0,0.0,0.0,0.0,0.0,0.0,0.0,0.0,0.0,0.0,0.0,0.0,0.0,0.0,0.0,0.0,0.0,0.0,0.0,0.0,0.0,0.0,0.0,0.0,-0.0748,-0.075,-0.0058,-0.084,-0.1459,-0.1475,-0.2472,-0.3069,-0.3113,-0.3567,0.0,0.0,0.0,0.0,0.0,0.0,0.0,0.0,0.0,0.0,0.0,0.0,0.0,0.0,0.0,0.0,0.0,0.0,0.0,0.0,0.0,0.0,0.0,0.0,0.0,0.0,0.0,0.0,0.0,0.0,0.0,0.0,0.0,0.0,0.0,0.0,0.0,0.0,0.0,0.0,0.0,0.0,0.0,0.0,0.0,0.0,0.0,0.0,0.0,0.0,0.0,0.0,0.0,0.0,0.0,0.0,0.0,0.0,0.0,0.0,0.0,0.0,0.0,0.0,0.0,0.0,0.0,0.0,0.0,0.0,0.0,0.0,0.0,0.0,0.0,0.0,0.0,0.0,0.0,0.0,0.0,0.0,0.0,0.0,0.0,0.0,0.0,0.0,0.0,0.0,0.0,0.0,0.0,0.0,0.0,0.0,0.0,0.0,0.0,0.0,0.0,0.0,-0.1124,-0.1138,-0.0112,-0.0952,-0.162,-0.1767,-0.2678,-0.3263,-0.3216,-0.345,0.0,0.0,0.0,0.0,0.0,0.0,0.0,0.0,0.0,0.0,0.0,0.0,0.0,0.0,0.0,0.0,0.0,0.0,0.0,0.0,0.0,0.0,0.0,0.0,0.0,0.0,0.0,0.0,0.0,0.0,0.0,0.0,0.0,0.0,0.0,0.0,0.0,0.0,0.0,0.0,0.0,0.0,0.0,0.0,0.0,0.0,0.0,0.0,0.0,0.0,0.0,0.0,0.0,0.0,0.0,0.0,0.0,0.0,0.0,0.0,0.0,0.0,0.0,0.0,0.0,0.0,0.0,0.0,0.0,0.0,0.0,0.0,0.0,0.0,0.0,0.0,0.0,0.0,0.0,0.0,0.0,0.0,0.0,0.0,0.0,0.0,0.0,0.0,0.0,0.0,0.0,0.0,0.0,0.0,0.0,0.0,0.0,0.0,0.0,0.0,0.0,0.0,-0.0844,-0.0957,-0.0732,-0.1253,-0.1557,-0.1424,-0.2503,-0.3135,-0.2998,0.0,0.0,0.0,0.0,0.0,0.0,0.0,0.0,0.0,0.0,0.0,0.0,0.0,0.0,0.0,0.0,0.0,0.0,0.0,0.0,0.0,0.0,0.0,0.0,0.0,0.0,0.0,0.0,0.0,0.0,0.0,0.0,0.0,0.0,0.0,0.0,0.0,0.0,0.0,0.0,0.0,0.0,0.0,0.0,0.0,0.0,0.0,0.0,0.0,0.0,0.0,0.0,0.0,0.0,0.0,0.0,0.0,0.0,0.0,0.0,0.0,0.0,0.0,0.0,0.0,0.0,0.0,0.0,0.0,0.0,0.0,0.0,0.0,0.0,0.0,0.0,0.0,0.0,0.0,0.0,0.0,0.0,0.0,0.0,0.0,0.0,0.0,0.0,0.0,0.0,0.0,0.0,0.0,0.0,0.0,0.0,0.0,0.0,0.0,0.0,0.0,0.0,-0.1011,-0.1073,-0.1131,-0.1308,-0.1447,-0.1549,-0.1563,-0.2278,-0.2797,-0.2876,0.0,0.0,0.0,0.0,0.0,0.0,0.0,0.0,0.0,0.0,0.0,0.0,0.0,0.0,0.0,0.0,0.0,0.0,0.0,0.0,0.0,0.0,0.0,0.0,0.0,0.0,0.0,0.0,0.0,0.0,0.0,0.0,0.0,0.0,0.0,0.0,0.0,0.0,0.0,0.0,0.0,0.0,0.0,0.0,0.0,0.0,0.0,0.0,0.0,0.0,0.0,0.0,0.0,0.0,0.0,0.0,0.0,0.0,0.0,0.0,0.0,0.0,0.0,0.0,0.0,0.0,0.0,0.0,0.0,0.0,0.0,0.0,0.0,0.0,0.0,0.0,0.0,0.0,0.0,0.0,0.0,0.0,0.0,0.0,0.0,0.0,0.0,0.0,0.0,0.0,0.0,0.0,0.0,0.0,0.0,0.0,0.0,0.0,0.0,0.0,0.0,0.0,-0.1718,-0.1827,-0.1871,-0.1827,-0.1572,-0.168,-0.2364,-0.218,-0.2269,0.0,0.0,0.0,0.0,0.0,0.0,0.0,0.0,0.0,0.0,0.0,0.0,0.0,0.0,0.0,0.0,0.0,0.0,0.0,0.0,0.0,0.0,0.0,0.0,0.0,0.0,0.0,0.0,0.0,0.0,0.0,0.0,0.0,0.0,0.0,0.0,0.0,0.0,0.0,0.0,0.0,0.0,0.0,0.0,0.0,0.0,0.0,0.0,0.0,0.0,0.0,0.0,0.0,0.0,0.0,0.0,0.0,0.0,0.0,0.0,0.0,0.0,0.0,0.0,0.0,0.0,0.0,0.0,0.0,0.0,0.0,0.0,0.0,0.0,0.0,0.0,0.0,0.0,0.0,0.0,0.0,0.0,0.0,0.0,0.0,0.0,0.0,0.0,0.0,0.0,0.0,0.0,0.0,0.0,0.0,0.0,0.0,0.0,0.0,0.0,0.0,0.0,0.0,-0.2449,-0.2112,-0.1871,-0.1992,-0.1604,-0.1728,-0.2674,-0.302,-0.2829,-0.1972,0.0,0.0,0.0,0.0,0.0,0.0,0.0,0.0,0.0,0.0,0.0,0.0,0.0,0.0,0.0,0.0,0.0,0.0,0.0,0.0,0.0,0.0,0.0,0.0,0.0,0.0,0.0,0.0,0.0,0.0,0.0,0.0,0.0,0.0,0.0,0.0,0.0,0.0,0.0,0.0,0.0,0.0,0.0,0.0,0.0,0.0,0.0,0.0,0.0,0.0,0.0,0.0,0.0,0.0,0.0,0.0,0.0,0.0,0.0,0.0,0.0,0.0,0.0,0.0,0.0,0.0,0.0,0.0,0.0,0.0,0.0,0.0,0.0,0.0,0.0,0.0,0.0,0.0,0.0,0.0,0.0,0.0,0.0,0.0,0.0,0.0,0.0,0.0,0.0,0.0,0.0,0.0,0.0,0.0,0.0,0.0,0.0,0.0,0.0,0.0,0.0,0.0,-0.3154,-0.254,-0.2142,-0.2466,-0.1618,-0.1401,-0.2389,-0.277,-0.2731,-0.2218,0.0,0.0,0.0,0.0,0.0,0.0,0.0,0.0,0.0,0.0,0.0,0.0,0.0,0.0,0.0,0.0,0.0,0.0,0.0,0.0,0.0,0.0,0.0,0.0,0.0,0.0,0.0,0.0,0.0,0.0,0.0,0.0,0.0,0.0,0.0,0.0,0.0,0.0,0.0,0.0,0.0,0.0,0.0,0.0,0.0,0.0,0.0,0.0,0.0,0.0,0.0,0.0,0.0,0.0,0.0,0.0,0.0,0.0,0.0,0.0,0.0,0.0,0.0,0.0,0.0,0.0,0.0,0.0,0.0,0.0,0.0,0.0,0.0,0.0,0.0,0.0,0.0,0.0,0.0,0.0,0.0,0.0,0.0,0.0,0.0,0.0,0.0,0.0,0.0,0.0,0.0,0.0,0.0,0.0,0.0,0.0,0.0,0.0,0.0,0.0,0.0,0.0,-0.3692,-0.2981,-0.2543,-0.2995,-0.1583,-0.0948,-0.1711,-0.1831,-0.2233,-0.3132,0.0,0.0,0.0,0.0,0.0,0.0,0.0,0.0,0.0,0.0,0.0,0.0,0.0,0.0,0.0,0.0,0.0,0.0,0.0,0.0,0.0,0.0,0.0,0.0,0.0,0.0,0.0,0.0,0.0,0.0,0.0,0.0,0.0,0.0,0.0,0.0,0.0,0.0,0.0,0.0,0.0,0.0,0.0,0.0,0.0,0.0,0.0,0.0,0.0,0.0,0.0,0.0,0.0,0.0,0.0,0.0,0.0,0.0,0.0,0.0,-0.1105,-0.0911,0.0,0.0,0.0,0.0,0.0,0.0,0.0,0.0,0.0,0.0,0.0,0.0,0.0,0.0,0.0,0.0,0.0,0.0,0.0,0.0,0.0,0.0,0.0,0.0,0.0,0.0,0.0,0.0,0.0,0.0,0.0,0.0,0.0,0.0,0.0,0.0,0.0,0.0,0.0,0.0,-0.3832,-0.299,-0.2388,-0.2602,-0.1559,-0.1077,-0.1667,-0.2113,-0.2563,-0.3093,-0.4006,0.0,0.0,0.0,0.0,0.0,0.0,0.0,0.0,0.0,0.0,0.0,0.0,0.0,0.0,0.0,0.0,0.0,0.0,0.0,0.0,0.0,0.0,0.0,0.0,0.0,0.0,0.0,0.0,0.0,0.0,0.0,0.0,0.0,0.0,0.0,0.0,0.0,0.0,0.0,0.0,0.0,0.0,0.0,0.0,0.0,0.0,0.0,0.0,0.0,0.0,0.0,0.0,0.0,0.0,0.0,0.0,0.0,0.0,0.0,-0.1577,-0.1238,0.0,0.0,0.0,0.0,0.0,0.0,0.0,0.0,0.0,0.0,0.0,0.0,0.0,0.0,0.0,0.0,0.0,0.0,0.0,0.0,0.0,0.0,0.0,0.0,0.0,0.0,0.0,0.0,0.0,0.0,0.0,0.0,0.0,0.0,0.0,0.0,0.0,0.0,0.0,0.0,-0.3885,-0.3168,-0.2515,-0.2283,-0.1519,-0.1155,-0.1391,-0.1909,-0.2417,-0.2933,-0.3874,0.0,0.0,0.0,0.0,0.0,0.0,0.0,0.0,0.0,0.0,0.0,0.0,0.0,0.0,0.0,0.0,0.0,0.0,0.0,0.0,0.0,0.0,0.0,0.0,0.0,0.0,0.0,0.0,0.0,0.0,0.0,0.0,0.0,0.0,0.0,0.0,0.0,0.0,0.0,0.0,0.0,0.0,0.0,0.0,0.0,0.0,0.0,0.0,0.0,0.0,0.0,0.0,0.0,0.3365,0.2938,0.2154,0.0943,0.019,-0.0224,-0.1737,-0.1513,-0.0055,0.14,0.0,0.0,0.0,0.0,0.0,0.0,0.0,0.0,0.0,0.0,0.0,0.0,0.0,0.0,0.0,0.0,0.0,0.0,0.0,0.0,0.0,0.0,0.1585,0.2387,0.3027,0.3658,0.4409,0.0,0.0,0.0,0.0,0.0,0.0,0.0,0.0,0.0,0.0,0.0,-0.3749,-0.3207,-0.2595,-0.2118,-0.1565,-0.1203,-0.1147,-0.1642,-0.2177,-0.2746,-0.3426,-0.4017,0.0,0.0,0.0,0.0,0.0,0.0,0.0,0.0,0.0,0.0,0.0,0.0,0.0,0.0,0.0,0.0,0.0,0.0,0.0,0.0,0.0,0.0,0.0,0.0,0.0,0.0,0.0,0.0,0.0,0.0,0.0,0.0,1.4546,1.6035,0.0,0.0,0.0,0.0,0.0,0.0,0.0,0.0,0.0,0.0,0.0,0.0,0.0,0.2613,0.2598,0.2668,0.2762,0.3002,0.3132,0.285,0.2221,0.202,0.0947,-0.0785,-0.1009,0.0,-0.0665,0.0843,0.0,0.0,0.0,0.0,0.0,0.0,0.0,0.0,0.0,0.0,0.0,0.0,0.0,0.0,0.0,0.0,0.0,0.0,0.0,0.0,0.0,0.0,0.2553,0.2795,0.3479,0.4149,0.438,0.4392,0.4255,0.3947,0.353,0.2929,0.0,0.0,0.0,0.0,0.0,0.0,-0.3132,-0.2616,-0.2246,-0.2339,-0.1775,-0.1359,-0.1366,-0.1799,-0.225,-0.2693,-0.3717,-0.409,-0.3583,-0.3688,0.0,0.0,0.0,0.0,0.0,0.0,0.0,0.0,0.0,0.0,0.0,0.0,0.0,0.0,0.0,0.0,0.0,0.0,0.0,0.0,0.0,0.0,0.0,0.0,0.0,0.0,0.0,0.0,0.0,1.4938,1.5879,1.713,1.7054,1.5399,0.0,0.0,0.0,0.0,0.0,0.0,0.0,0.0,0.0,0.3966,0.3485,0.2973,0.254,0.2665,0.2812,0.3043,0.279,0.2891,0.3353,0.2392,0.1481,0.0614,0.0464,0.0249,0.005,0.074,0.1039,0.109,0.0,0.0,0.0,0.0,0.0308,0.0739,0.0571,0.0907,0.1477,0.1947,0.0,0.0,0.0,0.0,0.0,0.0,0.0,0.1573,0.1629,0.2024,0.2551,0.3115,0.3551,0.3861,0.3842,0.3785,0.3675,0.3452,0.2989,0.2392,0.1618,0.0469,0.0,0.0,0.0,-0.2771,-0.3063,-0.2735,-0.2421,-0.2199,-0.1915,-0.1696,-0.1629,-0.1803,-0.2102,-0.2505,-0.3246,-0.3667,-0.3688,-0.3789,-0.3046,0.0,0.0,0.0,0.0,0.0,0.0,0.0,0.0,0.0,0.0,0.0,0.0,0.0,0.0,0.0,0.0,0.0,0.0,0.0,0.0,0.0,0.0,0.0,0.0,0.0,0.0,0.0,0.0,1.5691,1.7072,1.762,1.7356,1.6075,0.0,0.0,0.0,0.0,0.0,0.0,0.7825,0.6744,0.5599,0.4528,0.3979,0.3456,0.2817,0.2808,0.2875,0.296,0.2824,0.3245,0.4105,0.2813,0.1983,0.1483,0.1325,0.1032,0.0719,0.0719,0.104,0.157,0.157,0.157,0.1523,0.1064,0.0905,0.0948,0.0948,0.1373,0.1981,0.1981,0.2159,0.2305,0.1896,0.0,0.0,0.0,0.0,0.1688,0.2239,0.2359,0.2532,0.3336,0.3627,0.3687,0.3502,0.3458,0.329,0.2799,0.2325,0.1732,0.0909,-0.0092,0.0,-0.1781,-0.2433,-0.2849,-0.2909,-0.2741,-0.2476,-0.2074,-0.203,-0.1986,-0.1894,-0.1872,-0.2044,-0.2406,-0.2767,-0.325,-0.386,-0.3667,-0.3058,-0.1979,0.0,0.0,0.0,0.0,0.0,0.0,0.0,0.0,0.0,0.0,0.0,0.0,0.0,0.0,0.0,0.0,0.0,0.0,0.0,0.0,0.0,0.0,0.0,0.0,0.0,0.0,0.0,0.0,0.0,1.6806,1.5575,0.0,0.0,0.0,0.0,1.1476,1.0673,0.9696,0.8495,0.7185,0.6198,0.554,0.4469,0.3808,0.3553,0.3284,0.2887,0.2288,0.3563,0.3998,0.3618,0.354,0.2503,0.0773,0.0722,0.0719,0.0719,0.0719,0.1517,0.2788,0.2788,0.2788,0.2732,0.2208,0.2059,0.2127,0.2127,0.1899,0.1642,0.1642,0.2311,0.31,0.2805,0.2823,0.0,0.0,0.2534,0.2537,0.2575,0.2631,0.2824,0.3452,0.3836,0.3997,0.3733,0.3729,0.335,0.1952,0.1543,0.0921,-0.0701,0.0,-0.1326,-0.231,-0.2385,-0.2367,-0.2436,-0.225,-0.2122,-0.21,-0.21,-0.21,-0.2078,-0.2078,-0.221,-0.2468,-0.2567,-0.2987,-0.3772,-0.3072,-0.2581,-0.2379,-0.0723,0.0,0.0,0.0,0.0,0.0,0.0,0.0,0.0,0.0,0.0,0.0,0.0,0.0,0.0,0.0,0.0,0.0,0.0,0.0,0.0,0.0,0.0,0.0,0.0,0.0,0.0,0.0,0.0,1.7451,1.6612,0.0,1.5348,1.4248,1.3297,1.2716,1.1369,1.0251,0.9328,0.7986,0.6806,0.5728,0.5047,0.4402,0.3742,0.3162,0.3182,0.3872,0.3851,0.3751,0.3585,0.3585,0.3061,0.2107,0.2107,0.2107,0.2107,0.2107,0.242,0.2868,0.2556,0.2467,0.2415,0.1927,0.2522,0.3514,0.3243,0.3067,0.2866,0.2362,0.2415,0.2681,0.2676,0.2725,0.2804,0.28,0.2737,0.2707,0.2874,0.3068,0.3316,0.3702,0.4248,0.4453,0.3685,0.3566,0.306,0.1244,0.11,0.0808,-0.0646,-0.1244,-0.1689,-0.2231,-0.2561,-0.2735,-0.267,-0.2551,-0.2485,-0.2485,-0.2485,-0.2446,-0.2364,-0.232,-0.2294,-0.2307,-0.2487,-0.2735,-0.3007,-0.3168,-0.2956,-0.2352,-0.1495,-0.0327,0.0,0.0,0.0,0.0,0.0,0.0,0.0,0.0,0.0,0.0,0.0,0.0,0.0,0.0,0.0,0.0,0.0,0.0,0.0,0.0,0.0,0.0,0.0,0.0,0.0,1.716,1.7812,1.8,1.7473,1.6742,1.571,1.4805,1.4008,1.3248,1.1978,1.0837,0.9852,0.8604,0.7363,0.6215,0.557,0.4891,0.4237,0.3605,0.3886,0.4942,0.4452,0.4193,0.4132,0.3626,0.312,0.2637,0.2526,0.246,0.246,0.246,0.246,0.2417,0.2134,0.2215,0.2505,0.2224,0.2887,0.3885,0.3617,0.3536,0.347,0.2995,0.2805,0.2783,0.2821,0.2893,0.3009,0.3166,0.3034,0.2962,0.3393,0.3661,0.389,0.4112,0.4532,0.4684,0.3843,0.3414,0.2724,0.1121,0.0874,0.0521,-0.0802,-0.1386,-0.1819,-0.2292,-0.2641,-0.2842,-0.2875,-0.2789,-0.2745,-0.2745,-0.2724,-0.2659,-0.2577,-0.2529,-0.2464,-0.2333,-0.2461,-0.2591,-0.2703,-0.3048,-0.3013,-0.2537,-0.1647,-0.043,0.114,0.0,0.0,0.0,0.0,0.0,0.0,0.0,0.0,0.0,0.0,0.0,0.0,0.0,0.0,0.0,0.0,0.0,0.0,0.0,0.0,0.0,0.0,0.0,1.9158,1.9197,1.8984,1.8121,1.804,1.733,1.561,1.5319,1.4579,1.3096,1.2476,1.1583,1.0188,0.9037,0.8032,0.7091,0.5972,0.5232,0.5115,0.4731,0.4794,0.5289,0.5297,0.5293,0.5202,0.3605,0.2645,0.2178,0.1766,0.1609,0.1609,0.1609,0.1609,0.1609,0.1642,0.2272,0.3208,0.3175,0.3208,0.3274,0.3241,0.3229,0.3246,0.3448,0.3515,0.3473,0.3347,0.3392,0.3547,0.3737,0.3511,0.3376,0.4104,0.4385,0.4531,0.4639,0.4683,0.46,0.4244,0.3331,0.2344,0.1542,0.0851,0.0,-0.1242,-0.1441,-0.1705,-0.2546,-0.2562,0.0,-0.295,-0.2875,-0.2794,-0.2816,-0.2767,-0.2719,-0.2719,-0.2719,-0.2681,-0.2621,-0.2472,-0.2546,-0.2875,-0.2649,-0.2674,-0.2992,-0.115,0.0508,0.1948,0.0,0.0,0.0,0.0,0.0,0.0,0.0,0.0,0.0,0.0,0.0,0.0,0.0,0.0,0.0,0.0,0.0,0.0,0.0,0.0,0.0,2.1333,2.124,1.9853,1.9484,1.9073,1.8612,1.8201,1.7768,1.7092,1.6004,1.511,1.4576,1.2877,1.1516,1.0591,0.9614,0.8371,0.6866,0.632,0.562,0.4833,0.4997,0.4961,0.4786,0.5128,0.516,0.4887,0.319,0.2511,0.2664,0.1913,0.1609,0.1575,0.1444,0.1477,0.1676,0.2441,0.294,0.3175,0.2911,0.3626,0.4698,0.4447,0.4083,0.3739,0.3937,0.3772,0.3474,0.3337,0.3454,0.3627,0.3594,0.3506,0.3502,0.3846,0.4181,0.4373,0.417,0.438,0.4397,0.3516,0.2874,0.2138,0.1094,0.0618,0.0156,-0.0578,-0.1328,-0.1883,-0.2019,-0.2215,-0.2476,-0.2816,-0.2778,-0.2826,-0.3126,-0.3147,-0.3147,-0.3147,-0.3041,-0.2924,-0.2761,-0.2567,-0.2493,-0.2537,-0.2752,-0.2842,-0.2777,-0.1132,0.009,0.0,0.0,0.0,0.0,0.0,0.0,0.0,0.0,0.0,0.0,0.0,0.0,0.0,0.0,0.0,0.0,0.0,0.0,0.0,0.0,0.0,0.0,2.3367,2.2767,2.167,2.0385,1.9473,1.9138,1.8493,1.7751,1.7113,1.6231,1.541,1.4743,1.2962,1.171,1.1286,0.9906,0.8606,0.7553,0.6847,0.6072,0.5238,0.5279,0.512,0.4784,0.4996,0.4934,0.4572,0.374,0.3087,0.2576,0.2135,0.1807,0.1609,0.1678,0.1744,0.1878,0.0,0.0,0.0,0.0,0.4215,0.5062,0.487,0.4757,0.4626,0.424,0.3984,0.3768,0.3442,0.3402,0.3502,0.3567,0.3523,0.3557,0.4015,0.4329,0.4488,0.4346,0.4397,0.4293,0.3605,0.2927,0.218,0.1296,0.079,0.0,-0.0044,-0.0931,-0.1576,-0.1554,-0.1905,-0.2298,-0.2639,-0.2757,-0.2912,-0.3147,-0.3359,-0.3465,-0.3423,-0.3359,0.0,0.0,0.0,-0.2653,-0.237,-0.2589,0.0,0.0,0.0,0.0,0.0,0.0,0.0,0.0,0.3948,0.4571,0.0,0.0,0.0,0.0,0.0,0.0,0.0,0.0,0.0,0.0,0.0,0.0,0.0,0.0,0.0,0.0,2.5201,2.4187,2.3877,2.1889,2.025,1.9651,1.8623,1.759,1.647,1.6166,1.5578,1.4309,1.2914,1.2058,1.1983,1.0079,0.0,0.0,0.0,0.6534,0.6059,0.5544,0.5259,0.5077,0.4857,0.4617,0.432,0.4718,0.397,0.2375,0.2474,0.2208,0.1807,0.2172,0.2175,0.2047,0.258,0.3597,0.4768,0.4802,0.4809,0.4803,0.4741,0.0,0.0,0.4395,0.4145,0.418,0.3595,0.3327,0.3305,0.3607,0.3571,0.3598,0.4351,0.458,0.4666,0.4788,0.4519,0.4186,0.4039,0.3194,0.233,0.1869,0.1216,0.0679,0.0474,-0.0332,-0.1003,-0.1154,-0.1592,-0.2033,-0.2428,-0.2735,-0.295,-0.3041,-0.3423,0.0,-0.3654,-0.3633,-0.3536,-0.3342,-0.3136,-0.2803,-0.2286,-0.219,-0.1619,-0.0475,-0.0313,0.0421,0.1752,0.1657,0.2349,0.381,0.4406,0.508,0.0,0.0,0.0,0.0,0.0,0.0,0.0,0.0,0.0,0.0,0.0,0.0,0.0,0.0,0.0,2.7149,2.6741,2.5937,2.4999,2.4146,2.2419,1.93,1.8342,1.7658,1.6865,1.6171,1.5515,1.4805,1.3179,1.2126,1.1847,1.0206,0.895,0.8215,0.7564,0.688,0.6332,0.5751,0.5464,0.5395,0.5018,0.0,0.4316,0.4408,0.404,0.3407,0.3164,0.2977,0.2874,0.2507,0.1942,0.1445,0.2805,0.3826,0.4567,0.4736,0.4808,0.4764,0.4428,0.4616,0.4905,0.4398,0.424,0.414,0.3687,0.3497,0.0,0.3586,0.3625,0.3712,0.4032,0.4203,0.4291,0.4269,0.4031,0.3732,0.3434,0.2822,0.2303,0.2205,0.1559,0.1073,0.1234,0.0233,-0.069,-0.1003,-0.1181,-0.1513,-0.2172,-0.2324,-0.2622,-0.3326,-0.3431,-0.3584,-0.3897,-0.3869,-0.3542,-0.2868,-0.2306,-0.201,-0.2056,-0.1541,-0.0917,-0.0194,0.0473,0.1417,0.2648,0.2786,0.3371,0.4353,0.4465,0.5163,0.0,0.0,0.0,0.0,0.0,0.0,0.0,0.0,0.0,0.0,0.0,3.0747,3.0458,0.0,2.814,2.8966,2.7543,2.6171,2.5592,2.4176,2.2083,1.9297,1.7772,1.674,1.6586,1.5899,1.5197,1.4617,1.3239,1.2325,1.1966,1.0312,0.911,0.8628,0.7621,0.6934,0.6544,0.5906,0.5499,0.5349,0.4815,0.4447,0.4316,0.4316,0.4002,0.3438,0.3278,0.3208,0.3175,0.2742,0.2278,0.1971,0.2567,0.333,0.4148,0.4563,0.4723,0.4746,0.4673,0.4794,0.4934,0.4487,0.433,0.4215,0.3742,0.3559,0.3509,0.3576,0.3698,0.3833,0.4005,0.4116,0.4204,0.4249,0.4026,0.37,0.3373,0.2976,0.2588,0.2221,0.1908,0.1612,0.1356,0.0765,0.0163,-0.0371,-0.0873,-0.13,-0.1611,-0.197,-0.2367,-0.2807,-0.3039,-0.3201,-0.3346,-0.329,-0.3081,-0.2669,-0.2366,-0.2059,-0.1713,-0.1406,-0.0744,0.0329,0.1049,0.2062,0.3405,0.3871,0.4602,0.5559,0.5626,0.6003,0.0,0.0,0.0,0.0,0.0,0.0,0.0,3.0744,3.308,3.4857,3.4543,3.3953,3.3999,3.1576,2.9817,3.0696,2.8208,2.6095,2.5687,2.3387,2.1053,1.9224,1.7038,1.5819,1.6092,1.549,1.4863,1.418,1.3195,1.2461,1.2065,1.0397,0.9324,0.9038,0.7728,0.6956,0.6747,0.6082,0.5576,0.5353,0.4662,0.4316,0.4312,0.4384,0.3944,0.3208,0.3142,0.3067,0.297,0.2661,0.2542,0.256,0.223,0.2651,0.3481,0.4192,0.4529,0.4677,0.496,0.5087,0.505,0.4535,0.4348,0.4232,0.3731,0.3562,0.3533,0.3605,0.3751,0.3927,0.4068,0.4165,0.4243,0.4367,0.4153,0.3833,0.3537,0.3256,0.2888,0.2332,0.2232,0.2062,0.1463,0.1239,0.0875,0.0134,-0.0629,-0.1112,-0.1148,-0.1665,-0.2089,-0.2239,-0.2588,-0.2746,-0.2568,-0.2357,-0.2245,-0.2289,-0.219,-0.1887,-0.1331,-0.134,-0.0583,0.1079,0.1585,0.2683,0.4425,0.4921,0.5733,0.6799,0.6959,0.7121,1.7887,1.6151,1.5124,1.6591,1.9194,2.2946,0.0,3.2525,3.5859,3.8739,3.9159,3.8518,3.6647,3.4369,3.2439,3.1285,2.8916,2.6665,2.4857,2.296,2.0725,1.8095,1.6538,1.5602,1.5411,1.5111,1.466,1.3964,1.3188,1.2521,1.1869,1.0625,0.9601,0.8863,0.8055,0.7406,0.6978,0.641,0.6069,0.5887,0.4799,0.4316,0.4295,0.4609,0.4189,0.3175,0.2878,0.2557,0.2215,0.2002,0.2007,0.2159,0.2191,0.2237,0.2417,0.3501,0.4113,0.4478,0.4802,0.4891,0.4794,0.4419,0.4187,0.3982,0.3628,0.3541,0.3605,0.3675,0.3795,0.3928,0.4062,0.4191,0.4303,0.4373,0.4195,0.3941,0.3789,0.3322,0.2929,0.2968,0.2463,0.2103,0.2312,0.1506,0.0596,-0.0147,-0.0351,-0.0651,-0.1277,-0.1388,-0.1681,-0.2394,-0.2457,-0.2353,-0.2102,-0.1366,-0.0997,-0.1175,-0.0526,-0.0374,-0.0936,-0.0906,0.0094,0.2177,0.2286,0.3627,0.6293,0.5908,0.6326,0.7502,0.7753,0.8282,1.7161,1.5248,1.4023,1.4387,1.6997,2.0731,2.5828,2.9914,3.367,3.7554,3.8618,3.8482,3.6951,3.5171,3.3243,3.1196,2.822,2.5355,2.3277,2.1453,1.967,1.7894,1.6133,1.5114,1.5213,1.4759,1.4144,1.3309,1.2699,1.2021,1.1135,1.0198,0.9407,0.8795,0.8026,0.7453,0.7104,0.6645,0.6244,0.581,0.5331,0.4845,0.4291,0.4429,0.4133,0.3443,0.2483,0.2021,0.1916,0.1828,0.1691,0.1533,0.1673,0.1916,0.2307,0.3436,0.3967,0.419,0.472,0.4807,0.4645,0.4387,0.4193,0.3992,0.3616,0.3632,0.3764,0.3718,0.3235,0.2826,0.318,0.3757,0.4271,0.438,0.4169,0.3903,0.3766,0.3549,0.3272,0.2986,0.2937,0.2792,0.2396,0.2035,0.16,0.1003,0.0191,-0.0445,-0.067,-0.0814,-0.0944,-0.1087,-0.1,-0.0859,-0.0628,-0.0123,0.0167,0.0174,0.0525,0.062,0.0383,0.075,0.1569,0.2907,0.3419,0.4708,0.6775,0.6904,0.7443,0.8368,0.8626,0.9213,1.6223,1.4387,1.3222,1.287,1.4807,1.7908,2.2264,2.6134,3.0075,3.4766,3.6545,3.7144,3.6603,3.5242,3.3352,3.0907,2.7799,2.4856,2.2591,2.0685,1.9045,1.7608,1.5994,1.4969,1.4839,1.4269,1.3606,1.2818,1.2365,1.1701,1.0572,1.0003,0.9411,0.8738,0.8136,0.7576,0.7103,0.6929,0.6461,0.5682,0.5831,0.5323,0.4279,0.4189,0.3961,0.3614,0.2488,0.1938,0.1869,0.1714,0.1474,0.1163,0.1274,0.167,0.2302,0.315,0.3658,0.4007,0.4547,0.4621,0.4465,0.4319,0.4113,0.3873,0.3572,0.3646,0.3759,0.3301,0.2794,0.2424,0.2511,0.3376,0.4255,0.434,0.4153,0.393,0.3837,0.3753,0.3586,0.3234,0.3319,0.3289,0.2707,0.2471,0.2278,0.2003,0.0936,0.0201,0.0331,0.0116,0.0061,0.0358,0.0455,0.0649,0.1061,0.1187,0.1295,0.1432,0.1541,0.1548,0.1445,0.1965,0.269,0.3612,0.4407,0.5579,0.7152,0.7553,0.8182,0.9016,0.904,0.9343,1.4948,1.3296,1.2433,1.218,1.2547,1.4102,1.843,2.185,2.571,3.11,3.3733,3.5226,3.5912,3.4785,3.2983,3.062,2.8244,2.5869,2.3525,2.1477,1.939,1.6911,1.6096,1.5283,1.4041,1.3559,1.3148,1.2668,1.2424,1.1694,1.0282,1.031,0.9818,0.8633,0.8568,0.7992,0.6827,0.7173,0.6824,0.569,0.6159,0.5662,0.4275,0.39,0.3689,0.3587,0.3152,0.2627,0.2058,0.1538,0.1299,0.1274,0.1163,0.1557,0.2215,0.2315,0.3056,0.4032,0.4244,0.4274,0.4209,0.4209,0.3891,0.3503,0.3417,0.3552,0.3443,0.2201,0.2716,0.34,0.2382,0.3206,0.4296,0.4303,0.4201,0.4095,0.4089,0.389,0.3776,0.4024,0.3548,0.3228,0.3591,0.2744,0.2103,0.2337,0.1901,0.1594,0.1714,0.1499,0.1417,0.1627,0.1535,0.1833,0.274,0.2529,0.24,0.2537,0.2732,0.2525,0.1819,0.2169,0.3046,0.4431,0.5061,0.6167,0.7763,0.7672,0.8189,0.928,0.8693,0.8369,1.706,1.474,1.2469,1.1456,1.112,1.172,1.455,1.7833,2.1541,2.6026,2.923,3.148,3.2347,3.2256,3.1469,2.9569,2.7515,2.545,2.3095,2.0969,1.8939,1.7212,1.5673,1.4648,1.4156,1.3392,1.2591,1.194,1.1263,1.0547,0.9801,0.9733,0.9389,0.8629,0.8419,0.8005,0.735,0.671,0.6083,0.5486,0.5181,0.4655,0.396,0.3634,0.3453,0.3366,0.2917,0.2676,0.2524,0.2132,0.1825,0.1582,0.1136,0.1254,0.1693,0.1947,0.2606,0.3486,0.3986,0.4123,0.4074,0.411,0.3777,0.3353,0.3293,0.3474,0.3428,0.2108,0.1492,0.1371,0.1902,0.3124,0.4243,0.4233,0.4159,0.4107,0.4095,0.435,0.4449,0.405,0.4214,0.4326,0.4014,0.3576,0.3421,0.3853,0.2714,0.1847,0.1977,0.1989,0.2108,0.2397,0.2475,0.2697,0.3192,0.3696,0.4027,0.4119,0.4315,0.432,0.4071,0.4137,0.4332,0.4632,0.5054,0.5777,0.6796,0.6528,0.6936,0.7961,0.7712,0.7533,1.8206,1.5695,1.2923,1.1079,1.0095,0.9955,1.1457,1.4074,1.7217,2.1137,2.4407,2.6912,2.8289,2.853,2.8366,2.767,2.5889,2.4068,2.2499,2.0503,1.8698,1.7064,1.5535,1.4371,1.3723,1.2749,1.192,1.1231,1.0574,0.9887,0.9087,0.9119,0.8963,0.8487,0.8321,0.8056,0.7548,0.6695,0.585,0.5034,0.4521,0.404,0.3585,0.3488,0.3323,0.3099,0.2808,0.2697,0.2745,0.2372,0.211,0.1891,0.1402,0.1404,0.172,0.1947,0.2481,0.3153,0.3591,0.3702,0.3653,0.3726,0.3436,0.305,0.3023,0.323,0.3317,0.2498,0.1179,0.0307,0.1624,0.2904,0.3883,0.408,0.406,0.401,0.4085,0.4599,0.4909,0.4486,0.473,0.4876,0.4543,0.4188,0.4041,0.4336,0.3404,0.2778,0.3033,0.3102,0.3332,0.3891,0.3952,0.41,0.4408,0.4822,0.501,0.4901,0.5044,0.5125,0.5095,0.5158,0.5093,0.4892,0.5264,0.5697,0.6186,0.5922,0.6277,0.7147,0.6825,0.6573,1.8515,1.6187,1.3757,1.1197,0.957,0.882,0.9195,1.0861,1.3262,1.6703,1.9371,2.1727,2.3727,2.3856,2.4013,2.4864,2.3315,2.1917,2.1579,2.0226,1.8413,1.6421,1.551,1.447,1.2772,1.1791,1.1005,1.0478,1.0377,0.9728,0.8271,0.8565,0.8606,0.8174,0.8321,0.8043,0.7392,0.7052,0.6038,0.4399,0.4335,0.3918,0.3205,0.3404,0.3239,0.2794,0.2794,0.2745,0.2654,0.228,0.215,0.2198,0.1913,0.1978,0.2215,0.2263,0.2611,0.3046,0.3046,0.3026,0.3015,0.3068,0.2872,0.2607,0.2673,0.2845,0.3047,0.3234,0.1695,0.0272,0.1469,0.248,0.331,0.3802,0.3862,0.3869,0.4067,0.4655,0.5185,0.5321,0.512,0.502,0.5295,0.4693,0.4124,0.3991,0.4126,0.4391,0.4776,0.4712,0.4982,0.5883,0.5819,0.5847,0.6201,0.579,0.5349,0.496,0.5004,0.5012,0.4947,0.5216,0.5296,0.5162,0.5594,0.5837,0.589,0.5754,0.6062,0.6724,0.5963,0.55,2.0695,1.7866,1.5033,1.2979,1.1159,0.9788,0.9973,1.0706,1.2068,1.4052,1.6134,1.7908,1.9209,2.0687,2.1878,2.2462,2.2141,2.1502,2.0696,1.9062,1.7351,1.5819,1.4491,1.3429,1.2658,1.1491,1.0309,0.9144,0.9232,0.9076,0.8474,0.845,0.8282,0.7961,0.8008,0.785,0.7494,0.6492,0.5555,0.4688,0.4432,0.3933,0.3271,0.3333,0.3134,0.2724,0.2669,0.2604,0.2534,0.2446,0.2403,0.2403,0.207,0.2092,0.2241,0.207,0.2176,0.2433,0.2433,0.269,0.3,0.2957,0.2785,0.2594,0.2557,0.2215,0.2001,0.2846,0.1589,0.0017,0.0092,0.1536,0.2953,0.2837,0.3432,0.4074,0.4282,0.5036,0.5738,0.5875,0.6269,0.6767,0.7271,0.6822,0.6392,0.641,0.6332,0.5995,0.5264,0.5191,0.5344,0.5736,0.5782,0.5614,0.5206,0.556,0.5711,0.5514,0.5601,0.5619,0.5508,0.5054,0.4711,0.454,0.4545,0.4517,0.4443,0.4352,0.4433,0.4659,0.4305,0.4114,2.179,1.8783,1.5637,1.3497,1.1617,1.0144,0.9648,1.0081,1.0916,1.1786,1.3362,1.4832,1.5493,1.7186,1.8779,1.9618,1.9922,1.9905,1.9587,1.8417,1.6962,1.512,1.3938,1.2989,1.2124,1.1103,0.9988,0.8888,0.8664,0.8346,0.7847,0.7806,0.7773,0.7794,0.7735,0.754,0.711,0.627,0.5473,0.4769,0.4547,0.4025,0.3245,0.3218,0.2983,0.2616,0.2582,0.2495,0.2355,0.2337,0.2337,0.2333,0.2096,0.2114,0.2241,0.2052,0.1935,0.1862,0.2019,0.2135,0.2235,0.2364,0.2375,0.2327,0.2295,0.1847,0.1399,0.1624,0.0873,-0.0097,-0.0519,0.0273,0.1376,0.2088,0.2755,0.3413,0.4106,0.4911,0.5624,0.5973,0.6741,0.7461,0.7895,0.7505,0.7098,0.7082,0.6739,0.6498,0.6608,0.605,0.5978,0.6835,0.6663,0.6365,0.601,0.6347,0.6233,0.544,0.5409,0.5366,0.5259,0.4782,0.4459,0.4347,0.4098,0.3951,0.3895,0.3773,0.369,0.3641,0.3579,0.3504,2.2482,1.93,1.5968,1.3492,1.1656,1.0115,0.8958,0.9211,0.9851,1.0059,1.1306,1.2371,1.2506,1.3835,1.5363,1.6789,1.7304,1.7785,1.8337,1.7779,1.6522,1.4476,1.3521,1.2647,1.1476,1.0577,0.9723,0.8906,0.8317,0.7602,0.6947,0.6998,0.723,0.7617,0.7488,0.7144,0.6583,0.6164,0.552,0.4704,0.4585,0.4074,0.3161,0.3101,0.285,0.2488,0.246,0.2355,0.2176,0.2118,0.2118,0.2154,0.2026,0.2048,0.2132,0.2074,0.1759,0.1422,0.1692,0.1488,0.1164,0.1608,0.1815,0.1907,0.195,0.1635,0.109,0.0243,-0.027,-0.0615,-0.0837,-0.0968,-0.0572,0.1287,0.1857,0.2332,0.3627,0.4599,0.5423,0.6082,0.7014,0.7734,0.7934,0.7513,0.7145,0.714,0.6594,0.6734,0.831,0.7149,0.6785,0.8358,0.7856,0.7391,0.7364,0.7181,0.6464,0.507,0.4843,0.4733,0.466,0.4454,0.4346,0.4355,0.3983,0.3811,0.3825,0.3668,0.3477,0.326,0.3378,0.3336,2.3217,1.9997,1.6869,1.4509,1.2313,1.0484,0.9309,0.9068,0.0,0.9416,1.0218,1.0833,1.077,1.2267,1.376,1.4547,1.5351,1.6047,1.6565,1.553,1.4512,1.3705,1.2433,1.149,1.1269,1.0202,0.9127,0.8181,0.7462,0.7022,0.6827,0.6869,0.7004,0.7109,0.7001,0.675,0.6458,0.5853,0.5308,0.4704,0.4395,0.3831,0.3035,0.2961,0.2737,0.2399,0.225,0.2144,0.2118,0.2056,0.1986,0.196,0.1916,0.1894,0.1869,0.185,0.1585,0.1227,0.1227,0.0935,0.0649,0.1328,0.1462,0.1383,0.1662,0.1462,0.0972,0.0217,-0.167,-0.3156,-0.1741,-0.1315,-0.1075,-0.0385,0.0584,0.1635,0.264,0.4726,0.6594,0.7196,0.8046,0.8681,0.8768,0.8298,0.8145,0.8854,0.8482,0.8473,0.9484,0.8126,0.7479,0.8556,0.7906,0.718,0.664,0.5816,0.5185,0.4847,0.4713,0.4558,0.4381,0.4179,0.4062,0.4067,0.3891,0.3676,0.3399,0.3487,0.3357,0.3047,0.3071,0.3064,2.3552,2.0458,1.7426,1.5192,1.2602,1.048,0.9486,0.0,0.0,0.8932,0.9517,0.9903,0.9975,1.1103,1.2197,1.2547,1.3256,1.3969,1.4458,1.3853,1.3178,1.2733,1.1765,1.1013,1.0866,0.9965,0.8902,0.7876,0.7229,0.6755,0.6379,0.6658,0.6764,0.6735,0.6646,0.6499,0.631,0.5875,0.5344,0.4704,0.4466,0.388,0.2996,0.288,0.2685,0.2404,0.2286,0.218,0.2053,0.2009,0.1898,0.1743,0.1677,0.1629,0.1629,0.1607,0.1225,0.0758,0.0847,0.049,0.0065,0.0553,0.0728,0.0755,0.0841,0.0947,0.0898,0.0199,-0.2003,-0.3925,-0.2899,-0.2491,-0.2138,-0.1311,-0.0071,0.1306,0.263,0.4429,0.6222,0.7587,0.8404,0.8925,0.9212,0.9043,0.9033,0.9478,0.9042,0.8961,0.9847,0.8894,0.8297,0.8717,0.7606,0.6677,0.632,0.5862,0.5332,0.4775,0.4589,0.4473,0.4415,0.4111,0.3941,0.3946,0.3743,0.3563,0.3403,0.3436,0.3294,0.2999,0.3037,0.2976,2.3167,2.0525,1.7656,1.5389,1.274,1.0414,0.9289,0.828,0.7802,0.8318,0.8765,0.9113,0.9377,1.0083,1.06,1.079,1.1345,1.1931,1.2446,1.2398,1.2214,1.1729,1.1138,1.0692,1.0414,0.9646,0.8737,0.7649,0.6968,0.6417,0.6014,0.6322,0.6493,0.6473,0.6349,0.6213,0.6081,0.5831,0.537,0.4698,0.4528,0.3966,0.3081,0.2854,0.2602,0.2409,0.2344,0.2214,0.1969,0.1943,0.1796,0.1568,0.145,0.1432,0.1455,0.1388,0.0892,0.0311,0.0468,0.0044,-0.0519,-0.0303,-0.0082,0.0063,-0.0143,0.0213,0.0525,-0.0219,-0.193,-0.3582,-0.3704,-0.3538,-0.3098,-0.2142,-0.0792,0.0708,0.2309,0.3805,0.5371,0.7315,0.8229,0.8867,0.9441,0.9596,0.9636,0.9694,0.916,0.9052,0.9921,0.9354,0.8846,0.8807,0.7604,0.6797,0.6768,0.6381,0.5805,0.5012,0.461,0.4409,0.4415,0.4104,0.3912,0.3882,0.3673,0.3533,0.3484,0.3424,0.3255,0.2957,0.3031,0.2919,2.168,1.9821,1.7531,1.5024,1.2598,1.0389,0.8423,0.0,0.7079,0.7206,0.7783,0.829,0.8573,0.8714,0.9026,0.9596,0.0,1.0314,1.0916,1.1056,1.112,1.107,1.0469,0.9933,0.9625,0.9108,0.8326,0.722,0.6089,0.5597,0.6005,0.5941,0.6007,0.6329,0.6112,0.5937,0.5652,0.5562,0.5239,0.4716,0.4446,0.3969,0.3349,0.2769,0.2476,0.2392,0.2198,0.2053,0.1913,0.1783,0.1638,0.1499,0.1422,0.1361,0.1321,0.1252,0.0781,0.0178,0.0022,-0.0468,-0.1041,-0.1002,-0.0782,-0.06,-0.104,-0.0787,-0.0565,-0.1538,-0.1783,-0.2063,-0.351,-0.3682,-0.3431,-0.3265,-0.2147,-0.0746,0.0635,0.2644,0.4617,0.6097,0.7445,0.8633,0.9525,0.9693,0.9694,0.9694,0.923,0.9204,1.0068,0.9317,0.8731,0.8803,0.8611,0.8507,0.8563,0.6934,0.5884,0.5789,0.4921,0.4314,0.4149,0.4039,0.3941,0.3818,0.378,0.3648,0.3403,0.3403,0.3199,0.2816,0.2883,0.2808,2.0332,1.9146,1.7391,1.529,1.2746,1.0295,0.8779,0.7161,0.6186,0.6739,0.714,0.7537,0.8039,0.8144,0.8233,0.0,0.0,0.0,0.8603,0.8753,0.9026,0.9613,0.9462,0.9304,0.9452,0.903,0.821,0.6801,0.5775,0.5238,0.5454,0.5618,0.5748,0.5869,0.5862,0.5788,0.5606,0.5434,0.5169,0.4704,0.4538,0.4098,0.3333,0.3018,0.2673,0.2331,0.2185,0.2037,0.1941,0.1718,0.1537,0.1368,0.1249,0.1168,0.1116,0.105,0.0601,0.0,-0.0156,-0.0668,-0.1216,-0.1221,-0.1187,-0.1209,-0.1553,-0.1768,-0.1893,-0.1923,-0.2339,-0.2947,-0.3696,-0.3845,-0.381,-0.3826,-0.3281,-0.2307,-0.0679,0.1019,0.2752,0.4478,0.6283,0.7948,0.9346,0.9782,0.972,0.9068,0.938,0.9587,0.9338,0.94,0.9467,0.9458,0.85,0.7637,0.7092,0.6745,0.6334,0.5805,0.5714,0.5649,0.5617,0.5001,0.4599,0.447,0.3984,0.3634,0.3403,0.3444,0.3247,0.2861,0.2965,0.2874,1.8347,1.7798,1.6567,1.4941,1.2566,1.0202,0.8736,0.6971,0.5697,0.6043,0.6438,0.6854,0.726,0.7579,0.7654,0.0,0.0,0.6912,0.7095,0.7348,0.7775,0.8358,0.8506,0.8666,0.8997,0.8548,0.7695,0.6351,0.5571,0.5124,0.5069,0.5289,0.5508,0.5641,0.5798,0.5864,0.5758,0.5566,0.53,0.4933,0.4684,0.4165,0.3407,0.3137,0.2717,0.222,0.2117,0.2047,0.2014,0.1709,0.1534,0.1395,0.1187,0.1044,0.0961,0.0871,0.0424,-0.0156,-0.0311,-0.0781,-0.1332,-0.1378,-0.1477,-0.1641,-0.1958,-0.2398,-0.2731,-0.2412,-0.3019,-0.3821,-0.4025,-0.4164,-0.4272,-0.4361,-0.4119,-0.3447,-0.199,-0.0434,0.1311,0.3321,0.5516,0.7575,0.9278,0.9819,0.9743,0.8979,0.9334,0.9551,0.912,0.9586,0.9934,0.9825,0.8693,0.7696,0.7068,0.7185,0.7016,0.6366,0.6454,0.6492,0.6421,0.5767,0.5225,0.4871,0.4455,0.406,0.369,0.3681,0.3509,0.3197,0.3259,0.3121,1.5329,1.5431,1.4918,1.3514,1.1876,1.0085,0.7992,0.6722,0.5727,0.4899,0.5629,0.6313,0.6049,0.6774,0.7276,0.6968,0.6959,0.0,0.689,0.742,0.7741,0.7653,0.7889,0.803,0.785,0.7225,0.6588,0.6028,0.5549,0.5171,0.4901,0.5014,0.5293,0.5791,0.601,0.6108,0.6118,0.597,0.5738,0.5472,0.4744,0.4155,0.3694,0.3081,0.2545,0.2083,0.2014,0.2047,0.2083,0.1742,0.1625,0.1645,0.1258,0.1026,0.0894,0.074,0.0314,-0.0222,-0.0423,-0.0892,-0.1413,-0.1554,-0.1679,-0.1865,-0.2274,-0.2586,-0.2863,-0.3196,-0.373,-0.4237,-0.4441,-0.465,-0.4843,-0.5049,-0.4637,-0.4031,-0.3409,-0.1553,0.0667,0.2876,0.5355,0.7649,0.9402,0.9758,0.9782,0.9698,0.9021,0.8847,0.9766,0.99,0.9823,0.9621,0.9528,0.953,0.9658,0.8643,0.7934,0.7778,0.7034,0.6426,0.6018,0.6064,0.5682,0.4823,0.5259,0.5126,0.4393,0.4197,0.4022,0.3889,0.3754,0.3627,1.3099,1.3338,1.3083,1.1962,1.0675,0.9163,0.7446,0.603,0.4958,0.4321,0.4601,0.5018,0.5458,0.6108,0.6591,0.6578,0.6518,0.0,0.6087,0.6496,0.7026,0.7508,0.8283,0.8546,0.819,0.7462,0.6699,0.5981,0.5684,0.534,0.4901,0.5014,0.5234,0.5449,0.58,0.6014,0.6076,0.5985,0.5708,0.538,0.4994,0.4431,0.3694,0.3224,0.2717,0.222,0.2117,0.2047,0.2047,0.2109,0.1951,0.1639,0.155,0.1266,0.0873,0.0756,0.0282,-0.0289,-0.0446,-0.0914,-0.1479,-0.1631,-0.1753,-0.193,-0.2247,-0.2707,-0.3263,-0.3834,-0.432,-0.4644,-0.453,-0.4659,-0.4843,-0.5049,-0.4853,-0.4589,-0.454,-0.4266,-0.3393,-0.1272,0.1998,0.5054,0.7035,0.77,0.7818,0.7426,0.8173,0.875,0.8679,0.9352,0.9813,0.9737,0.9547,0.9179,0.8599,0.8717,0.8524,0.7844,0.7996,0.7989,0.7712,0.7155,0.6626,0.617,0.5766,0.5393,0.5017,0.4395,0.4011,0.3834,0.4119,0.4448,1.1004,1.1435,1.1319,1.0622,0.962,0.8408,0.6979,0.5719,0.4588,0.3876,0.4011,0.4307,0.4624,0.5338,0.5869,0.5814,0.585,0.5793,0.5514,0.5967,0.6529,0.7259,0.8084,0.8299,0.7736,0.7284,0.6722,0.6005,0.5665,0.5348,0.5069,0.5069,0.5179,0.5285,0.5824,0.6096,0.6174,0.6111,0.5883,0.5467,0.5027,0.4426,0.3694,0.3297,0.2853,0.2383,0.2247,0.2247,0.0,0.2142,0.1949,0.1718,0.1482,0.1151,0.0772,0.0654,0.0211,-0.0401,-0.0535,-0.1025,-0.1639,-0.18,-0.1994,-0.2253,-0.2667,-0.3093,-0.3535,-0.4129,-0.4549,-0.4819,-0.4778,-0.4838,-0.4951,-0.5078,-0.5,-0.5,-0.5339,-0.5509,-0.5327,-0.4407,-0.1781,0.0802,0.2429,0.4919,0.6435,0.5696,0.7219,0.8431,0.8367,0.9086,0.9626,0.9652,0.9549,0.9226,0.8585,0.8868,0.8833,0.8248,0.856,0.8693,0.851,0.7885,0.7314,0.684,0.6412,0.6021,0.5686,0.5048,0.4609,0.4376,0.4491,0.4856,0.0,0.9641,0.9691,0.9451,0.8777,0.7759,0.6598,0.5596,0.0,0.3495,0.3749,0.405,0.3673,0.4465,0.5154,0.4952,0.5188,0.5344,0.5155,0.5736,0.6396,0.6937,0.7537,0.7586,0.6845,0.6839,0.6657,0.6117,0.5608,0.5297,0.5297,0.5183,0.5179,0.5281,0.5982,0.6318,0.6272,0.6394,0.616,0.5698,0.4886,0.4253,0.3732,0.3359,0.2947,0.254,0.2441,0.2577,0.2749,0.1968,0.1812,0.1911,0.1204,0.08,0.059,0.0522,0.0067,-0.0512,-0.0668,-0.1181,-0.185,-0.2052,-0.2342,-0.2734,-0.3359,-0.3585,-0.3717,-0.4184,-0.4539,-0.484,-0.5106,-0.5137,-0.5107,-0.5098,-0.5108,-0.5262,-0.5808,-0.5547,-0.5438,-0.6273,-0.5519,-0.4429,-0.3408,0.1717,0.5378,0.4512,0.6238,0.7896,0.8615,0.9044,0.9303,0.9383,0.952,0.9557,0.9429,0.9109,0.8913,0.8902,0.8783,0.864,0.8485,0.8243,0.7748,0.6968,0.7097,0.6882,0.6239,0.5977,0.5663,0.5292,0.4908,0.5027,0.7497,0.0,0.8128,0.7751,0.7426,0.69,0.0,0.5089,0.4257,0.3262,0.2987,0.3063,0.3497,0.396,0.4409,0.4912,0.5226,0.5367,0.5351,0.6456,0.7415,0.8001,0.8331,0.828,0.7788,0.7235,0.6657,0.6117,0.5718,0.5462,0.5301,0.5242,0.5233,0.5149,0.572,0.6062,0.6127,0.6399,0.6309,0.5744,0.5035,0.4514,0.4219,0.3372,0.2904,0.2805,0.2746,0.2716,0.2706,0.2459,0.2191,0.1884,0.1398,0.0986,0.0666,0.0543,0.0071,-0.0535,-0.0714,-0.1269,-0.1938,-0.2294,-0.2534,-0.2745,-0.3041,-0.3427,-0.3843,-0.4315,-0.4989,-0.5449,-0.5001,-0.501,-0.5098,-0.5088,-0.5108,-0.53,-0.6045,-0.6117,-0.5759,-0.492,-0.604,-0.6344,-0.3996,-0.0208,0.2849,0.3922,0.5803,0.7238,0.7671,0.8468,0.9064,0.9229,0.9507,0.9638,0.9554,0.9294,0.9071,0.8902,0.8869,0.8696,0.8351,0.8232,0.795,0.7446,0.7121,0.6555,0.5684,0.6133,0.6006,0.5383,0.5738,0.5974,0.6653,0.6928,0.7038,0.6851,0.6416,0.5967,0.5395,0.4701,0.3866,0.0,0.0,0.2521,0.2814,0.3266,0.3768,0.4267,0.487,0.5477,0.591,0.6712,0.7526,0.8015,0.8282,0.8275,0.7922,0.7492,0.6941,0.6302,0.5966,0.566,0.5305,0.5221,0.5186,0.5084,0.5404,0.5622,0.578,0.6192,0.6146,0.5634,0.5014,0.4547,0.4252,0.3435,0.3072,0.3039,0.2977,0.2838,0.2634,0.2397,0.2018,0.1601,0.1218,0.087,0.0577,0.0359,-0.0093,-0.0624,-0.0936,-0.1471,-0.2076,-0.2335,-0.2471,-0.2609,-0.2867,-0.3183,-0.3543,-0.4114,-0.4903,-0.5539,-0.5339,-0.5127,-0.4981,-0.5069,-0.5108,-0.5309,-0.6135,-0.6722,-0.6897,-0.6129,-0.6948,-0.7107,-0.4981,-0.202,0.0661,0.2404,0.4239,0.5981,0.7517,0.8166,0.8822,0.9663,0.9739,0.9729,0.9698,0.978,0.9592,0.9024,0.8846,0.8808,0.8936,0.8658,0.8319,0.7879,0.7628,0.7013,0.6055,0.6782,0.6721,0.5921,0.6652,0.7022,0.6265,0.6337,0.6331,0.6295,0.5797,0.5279,0.5032,0.0,0.0,0.0,0.0,0.0,0.2101,0.2566,0.3147,0.3519,0.4463,0.5489,0.6443,0.6825,0.7155,0.7663,0.7877,0.7894,0.7686,0.7531,0.7126,0.6431,0.6182,0.581,0.5324,0.5165,0.5056,0.5003,0.5093,0.5209,0.5341,0.5876,0.5934,0.5519,0.4976,0.4527,0.414,0.3603,0.3311,0.3208,0.3142,0.2911,0.2573,0.2097,0.1667,0.1259,0.0893,0.0643,0.0449,0.0111,-0.0311,-0.0757,-0.1233,-0.1733,-0.2176,-0.2298,-0.2387,-0.2493,-0.2844,-0.3048,-0.325,-0.3742,-0.4607,-0.5463,-0.58,-0.5434,-0.5039,-0.5204,-0.5243,-0.548,-0.6318,-0.7334,-0.8082,-0.8082,-0.7812,-0.7197,-0.5913,-0.351,-0.1143,0.0734,0.2499,0.4622,0.7454,0.7889,0.8516,1.0032,0.9945,0.9774,0.9763,1.0166,1.0065,0.9306,0.8968,0.9055,0.9567,0.908,0.8622,0.8286,0.8159,0.7717,0.6938,0.7517,0.7436,0.6753,0.7399,0.78,0.6167,0.6126,0.5944,0.5817,0.5606,0.5304,0.4972,0.0,0.0,0.0,0.0,0.0,0.0,0.2274,0.2461,0.3306,0.4261,0.5242,0.6302,0.6757,0.7177,0.7614,0.7796,0.7764,0.7686,0.7281,0.6826,0.6444,0.6132,0.5703,0.5141,0.5096,0.4942,0.459,0.4837,0.4965,0.5081,0.552,0.572,0.5582,0.5049,0.4666,0.4403,0.3808,0.3442,0.3278,0.3208,0.2979,0.2566,0.2147,0.1707,0.1252,0.0752,0.0523,0.0449,0.0,-0.0401,-0.0816,-0.1554,-0.1867,-0.2007,-0.2423,-0.2552,-0.2648,-0.3103,-0.3481,-0.3702,-0.3407,-0.4489,-0.5737,-0.5811,-0.5808,-0.5815,-0.5852,-0.5852,-0.6147,-0.7176,-0.768,-0.7928,-0.7928,-0.7753,-0.7182,-0.5842,-0.4176,-0.2196,0.0222,0.2066,0.3993,0.6206,0.7128,0.8021,0.9183,0.9542,0.9695,0.9626,0.956,0.962,0.9925,0.9847,0.9551,0.905,0.8566,0.8415,0.8612,0.7953,0.7719,0.7968,0.7588,0.7529,0.7763,0.7441,0.7522,0.548,0.5392,0.5097,0.5188,0.5169,0.5016,0.4647,0.4104,0.0,0.0,0.0,0.0,0.196,0.1978,0.2364,0.3499,0.45,0.544,0.6227,0.666,0.7185,0.7758,0.7741,0.7697,0.7927,0.7531,0.7135,0.668,0.6315,0.5854,0.5257,0.4948,0.467,0.4505,0.4447,0.4613,0.5067,0.5135,0.5276,0.5475,0.5055,0.4675,0.4322,0.3861,0.3478,0.3129,0.3093,0.2754,0.215,0.1978,0.1519,0.0898,0.0662,0.0517,0.0359,-0.029,-0.0843,-0.137,-0.1924,-0.2162,-0.226,-0.2525,-0.2627,-0.2731,-0.3084,-0.3235,-0.3429,-0.4044,-0.4913,-0.5745,-0.626,-0.6135,-0.5893,-0.5893,-0.6324,-0.6901,-0.7392,-0.6742,-0.6338,-0.7286,-0.7186,-0.657,-0.5321,-0.465,-0.3247,-0.0184,0.1271,0.3156,0.6272,0.745,0.8451,0.9673,1.0096,1.0126,0.9681,1.0274,1.0421,0.9865,1.0411,1.0479,0.989,0.9495,0.9281,0.9282,0.8859,0.8567,0.8423,0.8491,0.8414,0.8162,0.8397,0.8506,0.4433,0.4631,0.4666,0.4706,0.0,0.4565,0.44,0.3903,0.0,0.0,0.0,0.0,0.1669,0.1916,0.2542,0.3655,0.4628,0.5477,0.6157,0.6587,0.7127,0.788,0.771,0.7648,0.803,0.7772,0.7299,0.684,0.6525,0.6049,0.5293,0.4906,0.4595,0.4381,0.4154,0.4306,0.4866,0.4702,0.4897,0.5386,0.512,0.4673,0.4097,0.3831,0.3455,0.2968,0.2968,0.2526,0.1806,0.1781,0.1323,0.0652,0.0585,0.0404,0.0067,-0.0558,-0.1223,-0.1849,-0.213,-0.2298,-0.2401,-0.2536,-0.2623,-0.2733,-0.309,-0.3087,-0.3229,-0.4479,-0.4991,-0.5472,-0.6596,-0.6488,-0.6057,-0.6057,-0.6714,-0.7329,-0.7329,-0.6387,-0.5922,-0.7254,-0.7067,-0.6311,-0.505,-0.4971,-0.3901,-0.0393,0.0663,0.2551,0.6693,0.7765,0.8736,1.0272,1.0501,1.0345,0.9875,1.0993,1.1257,1.0215,1.0928,1.1197,1.0763,1.0348,1.0098,1.0004,0.9642,0.9296,0.8952,0.9283,0.9179,0.8717,0.9169,0.9365,0.2981,0.4199,0.5329,0.4552,0.4233,0.4216,0.4364,0.3999,0.0,0.282,0.0,0.1852,0.1738,0.2171,0.2761,0.3489,0.425,0.5043,0.6,0.649,0.7007,0.7877,0.7751,0.7621,0.7751,0.7476,0.7131,0.6568,0.6525,0.6137,0.5246,0.5193,0.479,0.4069,0.4061,0.4132,0.4245,0.4369,0.477,0.5407,0.5248,0.4686,0.3826,0.3805,0.3448,0.2815,0.2815,0.2427,0.1806,0.1728,0.1347,0.0766,0.0585,0.0045,-0.0625,-0.0758,-0.1223,-0.1814,-0.1966,-0.2033,-0.2086,-0.2396,-0.2554,-0.271,-0.3305,-0.3459,-0.3529,-0.3896,-0.4138,-0.4697,-0.6451,-0.6861,-0.6811,-0.6811,-0.6977,-0.7123,-0.7123,-0.7889,-0.8626,-0.8734,-0.814,-0.7108,-0.5531,-0.5117,-0.3812,-0.0332,0.0608,0.2522,0.6988,0.746,0.821,1.0353,1.0098,0.9917,1.0219,1.0988,1.1514,1.1728,1.1508,1.1249,1.0896,1.0257,1.0144,1.0637,0.9581,0.9364,0.9994,0.929,0.9266,0.9869,0.912,0.9145,0.2748,0.4026,0.513,0.4713,0.473,0.0,0.0,0.4068,0.3685,0.3402,0.2573,0.192,0.1686,0.2117,0.273,0.3287,0.41,0.4981,0.5958,0.6614,0.733,0.8187,0.798,0.784,0.8218,0.7687,0.7193,0.6744,0.6357,0.594,0.5429,0.5047,0.4684,0.4317,0.4107,0.4121,0.439,0.4433,0.4687,0.5168,0.5067,0.4589,0.3803,0.3803,0.3406,0.2724,0.2694,0.2309,0.1724,0.1654,0.1288,0.0721,0.0517,0.0022,-0.0599,-0.0788,-0.1285,-0.1908,-0.2162,-0.2336,-0.2449,-0.2535,-0.2636,-0.2777,-0.3039,-0.3293,-0.3468,-0.3366,-0.4302,-0.5308,-0.5241,-0.5212,-0.5317,-0.5683,-0.5884,-0.6101,-0.6507,-0.6999,-0.7549,-0.8217,-0.7825,-0.7161,-0.642,-0.5844,-0.4678,-0.2269,-0.0449,0.1873,0.5246,0.6996,0.8482,0.9948,0.9851,1.0044,1.0907,1.1326,1.1882,1.2724,1.2376,1.1971,1.1602,1.0907,1.0615,1.0753,1.0127,0.993,1.0173,0.9892,0.9817,0.9919,0.9654,0.954,0.2277,0.3674,0.4854,0.4662,0.0,0.0,0.4929,0.4406,0.3917,0.3593,0.2727,0.1991,0.177,0.2233,0.281,0.3378,0.408,0.4923,0.5888,0.6662,0.7402,0.817,0.8078,0.8066,0.8411,0.7722,0.7155,0.6828,0.6349,0.5937,0.5584,0.5089,0.4678,0.4423,0.4064,0.4007,0.4226,0.4402,0.4558,0.4791,0.4879,0.4513,0.3779,0.3785,0.3338,0.2565,0.2541,0.225,0.1781,0.1623,0.1205,0.0628,0.0458,0.0041,-0.0527,-0.075,-0.1259,-0.1877,-0.2146,-0.2352,-0.2505,-0.2533,-0.2566,-0.2657,-0.2919,-0.3059,-0.3125,-0.3151,-0.4169,-0.5104,-0.4475,-0.4535,-0.4805,-0.4971,-0.5214,-0.5515,-0.601,-0.6302,-0.6686,-0.7417,-0.7379,-0.7132,-0.6792,-0.616,-0.5092,-0.3308,-0.1063,0.1483,0.4392,0.6584,0.8383,0.9657,0.9751,1.0102,1.1034,1.1459,1.203,1.289,1.2886,1.2638,1.2149,1.1564,1.1173,1.1001,1.0643,1.0422,1.0399,1.0324,1.0211,1.0085,0.9957,0.979,0.1231,0.307,0.4623,0.4295,0.0,0.0,0.5808,0.5128,0.426,0.332,0.2583,0.2116,0.2116,0.2592,0.3197,0.3686,0.4219,0.4877,0.5706,0.645,0.7126,0.7708,0.8038,0.8172,0.8128,0.737,0.6928,0.6928,0.6454,0.6033,0.5708,0.5395,0.4907,0.4213,0.4012,0.3812,0.3602,0.4118,0.4382,0.4312,0.4762,0.4545,0.3704,0.3763,0.3259,0.2307,0.2376,0.225,0.1964,0.1645,0.1092,0.049,0.0428,0.0039,-0.0519,-0.0658,-0.1132,-0.1715,-0.1855,-0.198,-0.2132,-0.2339,-0.2305,-0.2323,-0.2987,-0.2788,-0.2474,-0.328,-0.3554,-0.3758,-0.4422,-0.528,-0.5797,-0.5,-0.5214,-0.5622,-0.5686,-0.617,-0.661,-0.661,-0.6974,-0.7112,-0.6516,-0.5907,-0.4882,-0.3008,-0.1008,0.151,0.4876,0.6314,0.7729,0.9587,0.9805,1.0006,1.0473,1.1309,1.1924,1.2198,1.2953,1.3091,1.2423,1.2138,1.1815,1.1408,1.1001,1.0818,1.0801,1.0385,1.0323,1.0498,0.9969,0.9854,0.1912,0.3715,0.5389,0.5325,0.5976,0.6477,0.0,0.5572,0.0,0.0,0.2722,0.2456,0.2001,0.2337,0.2862,0.3396,0.4091,0.4852,0.559,0.6563,0.733,0.7747,0.8057,0.8318,0.8459,0.7858,0.7315,0.6973,0.6588,0.609,0.5503,0.5126,0.4769,0.4438,0.3936,0.363,0.3546,0.4066,0.4315,0.4309,0.4587,0.4332,0.3644,0.3704,0.3259,0.2446,0.2403,0.225,0.1964,0.1427,0.0938,0.0493,0.0415,0.0041,-0.0523,-0.0659,-0.1119,-0.1715,-0.1801,-0.1948,-0.2126,-0.2285,-0.2368,-0.246,-0.2705,-0.2945,-0.3198,-0.3491,-0.3902,-0.4245,-0.4311,-0.4781,-0.5194,-0.5049,-0.5127,-0.5385,-0.5873,-0.6159,-0.6398,-0.6685,-0.6847,-0.6987,-0.7083,-0.6201,-0.5367,-0.4931,-0.1957,0.1683,0.5693,0.7552,0.8657,0.911,0.9588,1.0306,1.1388,1.1761,1.2358,1.3334,1.3663,1.3459,1.2626,1.2249,1.1989,1.1839,1.1461,1.1213,1.1084,1.101,1.0825,1.0572,1.0273,1.011,0.1872,0.3612,0.5198,0.5445,0.6243,0.684,0.6484,0.575,0.4816,0.3509,0.317,0.2868,0.2363,0.2648,0.3116,0.3584,0.4231,0.4939,0.5596,0.6651,0.7438,0.7526,0.8002,0.8306,0.8309,0.7747,0.726,0.7042,0.656,0.6064,0.5503,0.5068,0.4694,0.4411,0.3844,0.348,0.3389,0.3792,0.4072,0.4223,0.4267,0.4073,0.3671,0.3545,0.3095,0.2425,0.2403,0.218,0.1803,0.1424,0.0962,0.0493,0.0433,0.0103,-0.0369,-0.0634,-0.1055,-0.1534,-0.1796,-0.1975,-0.2121,-0.225,-0.2394,-0.2544,-0.2772,-0.3085,-0.3442,-0.3746,-0.4138,-0.4444,-0.4381,-0.4592,-0.4873,-0.5068,-0.4923,-0.4846,-0.5218,-0.5497,-0.5711,-0.5925,-0.647,-0.6945,-0.7121,-0.6301,-0.5693,-0.5919,-0.2346,0.1892,0.6142,0.7741,0.8715,0.9278,0.9718,1.0491,1.1744,1.1661,1.2107,1.3461,1.3529,1.3353,1.3002,1.2732,1.2505,1.236,1.203,1.1753,1.1535,1.14,1.1178,1.0825,1.0496,1.031,0.13,0.2915,0.4275,0.4792,0.6002,0.6971,0.6817,0.5882,0.4897,0.4187,0.3688,0.3299,0.2961,0.3211,0.3629,0.4091,0.4606,0.5121,0.5706,0.6766,0.7345,0.7133,0.7776,0.8184,0.7936,0.7327,0.7019,0.7025,0.6526,0.6038,0.563,0.5176,0.4716,0.4329,0.372,0.3365,0.3262,0.345,0.3739,0.4089,0.3893,0.3805,0.3723,0.3359,0.2866,0.2311,0.2376,0.2088,0.1601,0.1532,0.1092,0.0491,0.0432,0.0198,-0.0155,-0.0615,-0.0959,-0.127,-0.1808,-0.2035,-0.2126,-0.229,-0.2426,-0.2617,-0.308,-0.3246,-0.3372,-0.4,-0.4268,-0.4411,-0.4544,-0.4615,-0.4735,-0.4921,-0.4578,-0.4147,-0.4039,-0.4342,-0.4637,-0.4666,-0.5801,-0.6756,-0.6756,-0.6199,-0.5747,-0.5773,-0.2216,0.195,0.6105,0.7226,0.8224,0.969,1.0017,1.0521,1.1566,1.1191,1.1533,1.295,1.2961,1.3082,1.344,1.3379,1.3192,1.2926,1.2604,1.2359,1.2148,1.1681,1.1384,1.131,1.0705,1.0447,0.0868,0.1975,0.3106,0.4107,0.584,0.7228,0.7187,0.681,0.6095,0.468,0.3962,0.3405,0.2961,0.3205,0.3506,0.3669,0.4556,0.5341,0.5627,0.6523,0.7182,0.7132,0.7604,0.7944,0.7885,0.7728,0.7558,0.7424,0.6687,0.6086,0.5705,0.5184,0.4722,0.4323,0.3804,0.3626,0.3735,0.3855,0.3942,0.4023,0.3969,0.3733,0.3337,0.3141,0.2806,0.2376,0.2398,0.2088,0.1598,0.1466,0.1048,0.0494,0.0418,0.0189,-0.0156,-0.0571,-0.0933,-0.127,-0.1752,-0.1997,-0.2153,-0.2507,-0.2698,-0.2887,-0.332,-0.3536,-0.3719,-0.3909,-0.4097,-0.4268,-0.4333,-0.4455,-0.4446,-0.4094,-0.4029,-0.3912,-0.3426,-0.3351,-0.3611,-0.4401,-0.4733,-0.5233,-0.631,-0.5886,-0.4754,-0.2806,-0.1448,0.0835,0.4943,0.6936,0.8185,0.8698,0.9606,1.0263,1.0441,1.1342,1.2299,1.3241,1.3636,1.3835,1.3862,1.3605,1.3329,1.3052,1.2834,1.2941,1.3412,1.2332,1.197,1.2258,1.1104,1.0534,-0.0474,0.0469,0.1811,0.3619,0.5356,0.6725,0.7031,0.7144,0.6827,0.5445,0.4627,0.3962,0.3355,0.3476,0.371,0.3704,0.4502,0.5188,0.5397,0.638,0.706,0.7016,0.7503,0.7847,0.7755,0.7664,0.7522,0.7348,0.6765,0.624,0.5845,0.5276,0.4778,0.4402,0.3929,0.3709,0.3748,0.3649,0.3682,0.3804,0.3572,0.3252,0.2859,0.2767,0.2617,0.2446,0.2425,0.218,0.1781,0.1532,0.1159,0.0672,0.0471,0.0262,-0.0021,-0.0626,-0.099,-0.1294,-0.1955,-0.2277,-0.2425,-0.2671,-0.285,-0.3054,-0.3321,-0.352,-0.3696,-0.3848,-0.3973,-0.4076,-0.4219,-0.4321,-0.4211,-0.3418,-0.3342,-0.3308,-0.2656,-0.2678,-0.2948,-0.34,-0.4216,-0.5017,-0.5664,-0.5687,-0.4706,-0.1995,-0.1554,-0.0058,0.4055,0.5717,0.722,0.9061,0.9758,1.0087,1.0067,1.1022,1.2321,1.3962,1.3773,1.373,1.4087,1.388,1.3573,1.3244,1.3071,1.3053,1.3179,1.2386,1.2035,1.2102,1.1273,1.0825,-0.1893,-0.0991,0.0475,0.2803,0.4527,0.5824,0.6637,0.716,0.7231,0.6256,0.5354,0.4529,0.3796,0.3865,0.3994,0.3887,0.4498,0.5054,0.5247,0.6283,0.6984,0.6889,0.7393,0.7704,0.7572,0.7475,0.7335,0.7259,0.6726,0.6308,0.6026,0.5408,0.4915,0.4567,0.4183,0.3933,0.3854,0.3523,0.3451,0.3664,0.309,0.2719,0.2517,0.2446,0.2446,0.2473,0.2446,0.225,0.1986,0.1645,0.1267,0.0871,0.0539,0.0337,0.0112,-0.0669,-0.1068,-0.1331,-0.2176,-0.2555,-0.2681,-0.2772,-0.2918,-0.3111,-0.3232,-0.3387,-0.3548,-0.3765,-0.3869,-0.3931,-0.4104,-0.4215,-0.3994,-0.2911,-0.2757,-0.2645,-0.192,-0.2066,-0.2349,-0.2381,-0.3964,-0.5229,-0.5036,-0.5359,-0.4905,-0.2679,-0.2161,-0.0614,0.3295,0.4708,0.6565,0.9771,1.0059,1.0011,1.0034,1.0697,1.2042,1.4256,1.3644,1.3514,1.4183,1.4078,1.3821,1.3428,1.3312,1.3121,1.2813,1.2363,1.2049,1.183,1.1405,1.1132,-0.2439,-0.1657,-0.0551,0.0716,0.2728,0.4761,0.6161,0.7007,0.7377,0.6883,0.5864,0.4848,0.4155,0.4013,0.4046,0.4193,0.487,0.5398,0.559,0.6285,0.6802,0.6887,0.7224,0.7469,0.7504,0.743,0.7405,0.7366,0.6549,0.6062,0.5986,0.5531,0.5138,0.4865,0.4722,0.473,0.49,0.4275,0.3965,0.3937,0.3001,0.256,0.2587,0.2517,0.2468,0.2425,0.2468,0.2294,0.1986,0.1689,0.1314,0.0871,0.0606,0.036,0.0112,-0.058,-0.0981,-0.1316,-0.2066,-0.242,-0.2555,-0.2751,-0.2896,-0.3041,-0.3181,-0.3357,-0.3506,-0.3548,-0.3731,-0.3911,-0.3931,-0.4035,-0.3855,-0.2789,-0.2591,-0.2366,-0.1422,-0.1201,-0.1452,-0.2245,-0.3755,-0.482,-0.4619,-0.441,-0.442,-0.4838,-0.3102,-0.062,0.2559,0.5615,0.807,0.9596,0.9959,1.0102,1.0173,1.1053,1.1938,1.2666,1.3555,1.4118,1.4275,1.4105,1.383,1.3491,1.3475,1.3667,1.4063,1.2922,1.2525,1.2796,1.1761,1.1302,-0.3407,-0.3255,-0.2618,-0.1336,0.0712,0.2982,0.4915,0.6352,0.7267,0.6978,0.6315,0.5494,0.4306,0.4168,0.4123,0.388,0.4447,0.5019,0.5434,0.6122,0.6645,0.6842,0.7188,0.736,0.7216,0.719,0.7183,0.7183,0.6477,0.6086,0.6161,0.5658,0.5334,0.5239,0.5109,0.5079,0.515,0.4409,0.3811,0.3371,0.2822,0.2582,0.2664,0.2582,0.2517,0.2446,0.2495,0.2381,0.2136,0.1711,0.1358,0.1027,0.0606,0.036,0.018,-0.0536,-0.0936,-0.1252,-0.1938,-0.2315,-0.2517,-0.2599,-0.2751,-0.2918,-0.3046,-0.3202,-0.3357,-0.3464,-0.3584,-0.371,-0.3869,-0.3952,-0.373,-0.2725,-0.2531,-0.2289,-0.1314,-0.1072,-0.1287,-0.2019,-0.262,-0.3085,-0.3347,-0.3074,-0.3002,-0.3534,-0.2523,-0.0246,0.3786,0.6843,0.8982,0.9884,1.0112,1.004,0.962,1.0195,1.1529,1.3724,1.4259,1.4462,1.4417,1.4145,1.398,1.3888,1.3754,1.358,1.339,1.2832,1.2589,1.2596,1.2094,1.1879,-0.4281,-0.4471,-0.4111,-0.3138,-0.1104,0.1207,0.3523,0.5472,0.6865,0.7102,0.686,0.6164,0.4752,0.4422,0.4196,0.3705,0.4123,0.4689,0.522,0.5895,0.6454,0.6705,0.7059,0.7191,0.7059,0.6988,0.6977,0.6977,0.645,0.6128,0.6119,0.5686,0.5392,0.5352,0.5226,0.5139,0.5139,0.4359,0.3612,0.295,0.2729,0.2642,0.2697,0.2642,0.2604,0.2555,0.2555,0.249,0.2333,0.1862,0.151,0.1227,0.0739,0.0449,0.0247,-0.0424,-0.0847,-0.1161,-0.1762,-0.2184,-0.2446,-0.2495,-0.2621,-0.2789,-0.2912,-0.3068,-0.3229,-0.3379,-0.3464,-0.3548,-0.3751,-0.3828,-0.3612,-0.2682,-0.2466,-0.2228,-0.1292,-0.1072,-0.1178,-0.158,-0.1629,-0.1723,-0.2097,-0.1828,-0.1655,-0.1927,-0.1259,0.1058,0.6043,0.833,0.9672,1.0162,1.0083,0.9776,0.9226,0.9494,1.1162,1.4607,1.4708,1.4563,1.4375,1.4177,1.4068,1.406,1.3856,1.3458,1.2836,1.2834,1.2665,1.2352,1.24,1.2443,-0.4759,-0.4648,-0.4172,-0.4398,-0.257,-0.0093,0.2359,0.4326,0.6078,0.7462,0.7451,0.6822,0.5734,0.4796,0.4134,0.393,0.4222,0.4656,0.5137,0.5626,0.6068,0.6481,0.676,0.6971,0.7093,0.698,0.6916,0.6916,0.653,0.6104,0.5659,0.5556,0.5312,0.4933,0.4997,0.5015,0.5015,0.4207,0.3572,0.3089,0.2832,0.2702,0.2697,0.2702,0.2702,0.2702,0.2702,0.2642,0.256,0.2215,0.184,0.1444,0.1114,0.0739,0.0337,-0.0156,-0.0624,-0.1072,-0.1491,-0.1931,-0.2333,-0.2468,-0.2599,-0.2724,-0.2789,-0.2988,-0.3208,-0.3208,-0.3357,-0.3506,-0.3527,-0.3605,-0.3486,-0.2617,-0.2402,-0.2163,-0.1292,-0.1005,-0.0894,-0.0785,-0.1213,-0.1521,-0.13,-0.0924,-0.0827,-0.1285,0.051,0.3861,0.9268,1.0123,1.0253,1.0293,0.9607,0.9216,0.9375,0.9577,1.104,1.4144,1.4451,1.4374,1.4033,1.4132,1.4033,1.3743,1.3648,1.3507,1.3278,1.3193,1.2946,1.2498,1.2684,1.2813,-0.4107,-0.4587,-0.4701,-0.4703,-0.3086,-0.098,0.0952,0.367,0.5979,0.664,0.6985,0.6894,0.5799,0.5152,0.4626,0.4175,0.4166,0.4573,0.5529,0.5835,0.618,0.6804,0.7043,0.7148,0.7166,0.7124,0.7099,0.7099,0.6832,0.6453,0.588,0.58,0.5502,0.4967,0.4992,0.4836,0.4497,0.4032,0.3549,0.3041,0.2805,0.2697,0.2697,0.2697,0.2724,0.2767,0.2767,0.2686,0.2517,0.2215,0.184,0.1422,0.1159,0.0784,0.0359,-0.0022,-0.049,-0.0981,-0.1355,-0.1796,-0.2241,-0.2333,-0.2464,-0.2599,-0.2794,-0.2902,-0.2988,-0.3196,-0.3287,-0.3336,-0.3415,-0.3499,-0.3366,-0.2596,-0.1942,-0.1422,-0.1092,-0.0961,-0.0827,-0.0607,-0.0647,-0.0599,-0.0244,0.0198,0.0504,0.0564,0.158,0.3896,0.8177,0.9606,1.0233,1.0236,0.9701,0.9481,0.9825,0.9563,1.0807,1.4216,1.4149,1.4024,1.411,1.3751,1.3586,1.3636,1.3361,1.321,1.3244,1.3175,1.3052,1.2887,1.3087,1.3278,-0.3638,-0.4278,-0.4561,-0.4438,-0.3376,-0.1802,0.0329,0.2838,0.5028,0.6041,0.6731,0.6907,0.6103,0.5633,0.5092,0.4279,0.4215,0.462,0.5633,0.5875,0.6251,0.6996,0.7242,0.7355,0.7392,0.7393,0.7393,0.7393,0.7205,0.6774,0.6009,0.5913,0.5563,0.4829,0.4766,0.4602,0.4238,0.3937,0.3612,0.3232,0.2998,0.2869,0.2805,0.2805,0.281,0.2794,0.2794,0.2707,0.2555,0.2372,0.1993,0.1488,0.1314,0.0916,0.0404,0.0157,-0.0335,-0.0914,-0.1178,-0.1686,-0.2215,-0.2285,-0.242,-0.2599,-0.2772,-0.2859,-0.2918,-0.3196,-0.3245,-0.3229,-0.3393,-0.326,-0.2971,-0.251,-0.1661,-0.0961,-0.094,-0.0895,-0.0806,-0.0585,-0.0382,-0.0112,0.0247,0.0671,0.1072,0.1388,0.1898,0.3596,0.7262,0.9137,1.0145,1.0208,0.9903,0.9813,1.0108,0.9603,1.0553,1.3573,1.3869,1.4011,1.4239,1.3689,1.3442,1.3603,1.321,1.3034,1.3105,1.3086,1.3051,1.3031,1.3174,1.3329,0.0,0.0,0.0,-0.3625,-0.3452,-0.2513,0.0443,0.1748,0.3109,0.5766,0.6635,0.6911,0.6739,0.622,0.5449,0.4311,0.4387,0.4789,0.5404,0.5729,0.6206,0.7008,0.7286,0.754,0.781,0.7839,0.7839,0.781,0.7637,0.7065,0.5988,0.59,0.5439,0.4428,0.4333,0.4313,0.4313,0.3978,0.3779,0.371,0.3423,0.3211,0.2998,0.2998,0.2939,0.2794,0.2794,0.2767,0.2697,0.2697,0.2302,0.1689,0.1554,0.1092,0.0495,0.0427,-0.0112,-0.0825,-0.0961,-0.1532,-0.2215,-0.2285,-0.2481,-0.2697,-0.2697,-0.2848,-0.3019,-0.3159,-0.3208,-0.3251,-0.3442,-0.2901,-0.2332,-0.2375,-0.1636,-0.0894,-0.0809,-0.0811,-0.0766,-0.063,-0.045,-0.0225,0.0045,0.0425,0.0781,0.105,0.1579,0.3258,0.6903,0.8897,1.0039,1.0175,1.0139,1.0175,1.0334,0.9874,1.0374,1.2252,1.3655,1.438,1.4314,1.3916,1.3659,1.3601,1.3193,1.2961,1.2889,1.2961,1.2961,1.2889,1.2908,1.3016,-0.2323,0.0,0.0,0.0,0.0,0.0,-0.1592,0.0149,0.2051,0.3866,0.5009,0.5851,0.6372,0.6318,0.5928,0.5157,0.4575,0.449,0.5192,0.5724,0.6338,0.7154,0.7799,0.8277,0.8428,0.8501,0.8456,0.8308,0.8166,0.7695,0.68,0.5938,0.5112,0.435,0.4362,0.4362,0.4362,0.4179,0.3994,0.3779,0.3542,0.3311,0.3068,0.3068,0.3009,0.2864,0.2864,0.2816,0.2697,0.2697,0.2302,0.1689,0.1601,0.1161,0.0562,0.0495,-0.0045,-0.0736,-0.0892,-0.1446,-0.214,-0.2267,-0.242,-0.2577,-0.2729,-0.281,-0.2923,-0.3187,-0.3229,-0.3251,-0.3442,-0.3126,-0.2682,-0.2445,-0.188,-0.1314,-0.0961,-0.0785,-0.0698,-0.0562,-0.0472,-0.0337,-0.0022,0.0112,0.0336,0.074,0.3353,0.565,0.6681,0.8555,0.9764,0.9703,0.9988,1.1197,1.3756,1.3836,1.387,1.4158,1.4495,1.4619,1.4453,1.3786,1.3441,1.3539,1.3175,1.2924,1.2759,1.2867,1.2885,1.2832,1.3123,1.3278,0.0,0.0,0.0,0.0,0.0,0.0,-0.1599,-0.0423,0.0915,0.2883,0.4178,0.5166,0.5888,0.6123,0.6048,0.5522,0.494,0.475,0.5323,0.6066,0.6825,0.7561,0.8365,0.8926,0.9101,0.9116,0.9089,0.8976,0.854,0.7808,0.6823,0.5802,0.5103,0.4735,0.4635,0.4624,0.4653,0.4512,0.4301,0.3999,0.3855,0.3612,0.3266,0.3217,0.3111,0.2988,0.2988,0.2918,0.2805,0.2681,0.2263,0.1689,0.1538,0.1141,0.063,0.0607,0.0067,-0.0646,-0.0781,-0.1383,-0.2122,-0.2184,-0.2337,-0.2538,-0.2702,-0.2767,-0.2859,-0.3165,-0.3233,-0.3213,-0.3313,-0.312,-0.2781,-0.235,-0.1932,-0.1485,-0.0938,-0.049,-0.0155,-0.0022,-0.0268,-0.0179,0.0835,0.0444,0.0642,0.2536,0.4848,0.6676,0.7577,0.8744,0.9456,0.9385,0.9892,1.1632,1.5112,1.5371,1.4945,1.3995,1.4486,1.4753,1.4671,1.3922,1.3582,1.3721,1.3328,1.3015,1.2778,1.2794,1.2776,1.2722,1.3052,1.3227,-0.1625,-0.2151,0.0,0.0,-0.2675,0.0,-0.0715,-0.0628,-0.0263,0.2275,0.3591,0.4521,0.5277,0.5806,0.5989,0.5618,0.5522,0.5573,0.5793,0.6645,0.7497,0.8139,0.8983,0.9555,0.975,0.9738,0.9699,0.9673,0.8794,0.7686,0.6404,0.5765,0.5391,0.531,0.5137,0.5019,0.501,0.4892,0.4684,0.4354,0.4281,0.4001,0.3563,0.3402,0.3254,0.3132,0.3138,0.3089,0.2977,0.2621,0.218,0.1711,0.143,0.1076,0.0719,0.0698,0.02,-0.0484,-0.0637,-0.1289,-0.204,-0.2062,-0.2233,-0.2466,-0.2583,-0.2667,-0.2798,-0.3055,-0.3136,-0.3142,-0.3133,-0.3053,-0.2808,-0.2207,-0.1908,-0.1542,-0.069,0.0066,0.0673,0.1039,0.0503,0.0482,0.2101,0.137,0.1819,0.5533,0.6206,0.6976,0.8894,0.9139,0.9309,0.9731,1.0082,1.1675,1.5095,1.5338,1.4608,1.3003,1.4093,1.4828,1.4909,1.4223,1.3906,1.4029,1.3539,1.3192,1.2944,1.2759,1.2665,1.263,1.2834,1.3034,-0.0696,-0.1283,-0.1869,-0.2142,-0.2538,0.0,-0.2386,-0.2196,-0.1519,0.0501,0.1687,0.287,0.4603,0.5568,0.6062,0.5927,0.6719,0.7187,0.6666,0.718,0.7935,0.886,0.9665,1.0135,1.0185,1.0272,1.0247,1.011,0.9169,0.8005,0.6602,0.6749,0.6404,0.5339,0.5664,0.5623,0.5078,0.5049,0.4922,0.4704,0.4515,0.4273,0.3965,0.3675,0.3465,0.3345,0.3294,0.3187,0.3046,0.2481,0.2128,0.1905,0.1519,0.1208,0.0918,0.0764,0.03,-0.028,-0.0479,-0.1043,-0.1701,-0.1758,-0.192,-0.2098,-0.2135,-0.2261,-0.2444,-0.2649,-0.2756,-0.2888,-0.3239,-0.3358,-0.3213,-0.2553,-0.2339,-0.1733,0.0236,0.0878,0.1567,0.3274,0.3254,0.2795,0.2328,0.3284,0.4997,0.7577,0.7991,0.8209,0.8719,0.8794,0.995,1.2968,1.1494,1.1657,1.5037,1.5307,1.5157,1.4793,1.4795,1.485,1.4985,1.4434,1.4126,1.4154,1.3534,1.321,1.3227,1.2703,1.26,1.2848,1.2997,1.3209,-0.0563,-0.1076,-0.1573,-0.2106,-0.2333,0.0,0.0,-0.2051,-0.1453,0.0159,0.1185,0.2217,0.3608,0.4625,0.5436,0.5972,0.7033,0.7856,0.8071,0.8671,0.9277,0.9802,1.0532,1.0987,1.0987,1.0992,1.0754,1.0151,0.9273,0.8295,0.7257,0.6983,0.6571,0.5914,0.6056,0.5972,0.5611,0.5601,0.5461,0.5195,0.4962,0.4677,0.4337,0.4048,0.3786,0.3584,0.3499,0.3393,0.3245,0.2567,0.2263,0.215,0.1541,0.1208,0.1027,0.0895,0.0401,-0.0214,-0.035,-0.0928,-0.1604,-0.1633,-0.1785,-0.1969,-0.2024,-0.2218,-0.2438,-0.2559,-0.2624,-0.2714,-0.2938,-0.3176,-0.3123,-0.2211,-0.2164,-0.1694,0.0517,0.1403,0.2218,0.3843,0.4575,0.4818,0.4368,0.5659,0.7255,0.8722,0.8946,0.9549,1.1174,1.0277,1.0225,1.2093,1.1109,1.1657,1.5019,1.5321,1.5338,1.5302,1.508,1.4972,1.5056,1.4571,1.4227,1.4087,1.3613,1.3393,1.3492,1.342,1.3233,1.2887,1.3104,1.3362,-0.0501,-0.0922,-0.1291,-0.1787,-0.1905,-0.1838,0.0,0.0,0.0,0.0128,0.0959,0.1726,0.254,0.352,0.4623,0.5862,0.7034,0.8249,0.9572,1.0431,1.0859,1.0741,1.1404,1.1875,1.1881,1.1828,1.134,1.0264,0.9652,0.8913,0.7973,0.7281,0.6792,0.6557,0.6456,0.6314,0.6094,0.6094,0.5961,0.5659,0.5404,0.5088,0.4736,0.4414,0.4145,0.3884,0.3723,0.3619,0.3499,0.2741,0.2424,0.2318,0.1521,0.1178,0.111,0.1006,0.05,-0.0165,-0.0257,-0.0825,-0.1507,-0.1514,-0.1667,-0.184,-0.1987,-0.2182,-0.2376,-0.2466,-0.2495,-0.2515,-0.2599,-0.2875,-0.2885,-0.1827,-0.1869,-0.1502,0.085,0.1917,0.2826,0.4168,0.5373,0.6223,0.6427,0.7533,0.8606,0.9253,0.9472,1.0492,1.3034,1.1553,1.0283,1.0251,1.0251,1.1541,1.469,1.5029,1.513,1.5261,1.5166,1.5094,1.5082,1.4681,1.4332,1.4074,1.3795,1.3706,1.3798,1.4174,1.3905,1.3072,1.3481,1.3771,0.0298,-0.0242,-0.0777,-0.085,-0.1039,-0.1289,-0.1597,0.0,-0.1145,-0.0582,0.0,0.0698,0.1737,0.0,0.0,0.5664,0.7177,0.8832,1.0801,1.1831,1.2135,1.1548,1.209,1.2517,1.2576,1.2675,1.2235,1.0974,1.1075,1.0349,0.8433,0.8628,0.8153,0.6727,0.7,0.6826,0.6106,0.6094,0.6016,0.5863,0.5659,0.5434,0.5204,0.4756,0.4438,0.4232,0.3965,0.3835,0.3696,0.2902,0.2509,0.2312,0.1522,0.1191,0.1161,0.0976,0.0519,-0.0044,-0.016,-0.0626,-0.1164,-0.1221,-0.1382,-0.1576,-0.1713,-0.1808,-0.1906,-0.203,-0.2112,-0.2238,-0.2592,-0.2812,-0.2746,-0.2022,-0.1901,-0.1097,0.1937,0.2775,0.3518,0.5544,0.6165,0.6421,0.6639,0.7581,0.8499,0.9047,0.9742,1.0326,1.0681,1.0426,1.0188,1.0127,1.0122,1.1122,1.3581,1.3792,1.4217,1.5157,1.5135,1.5076,1.5009,1.4794,1.4563,1.4362,1.4263,1.4201,1.4149,1.4144,1.3983,1.3719,1.4574,1.4747,0.0271,0.0036,-0.0258,-0.0608,-0.0747,-0.091,-0.127,-0.121,-0.0944,-0.051,0.0,0.0,0.0,0.0,0.0,0.0,0.7507,0.9264,1.0282,1.1983,1.3051,1.2843,1.3646,1.4182,1.4061,1.4012,1.343,1.2031,1.1663,1.084,0.9286,0.8996,0.8362,0.7262,0.7387,0.7273,0.6858,0.6689,0.6561,0.6418,0.6099,0.5845,0.5622,0.5194,0.4865,0.4578,0.4264,0.4055,0.3855,0.2962,0.257,0.2426,0.1549,0.1169,0.1121,0.1005,0.0544,-0.0014,-0.0069,-0.0405,-0.0834,-0.0976,-0.1298,-0.1645,-0.1774,-0.1942,-0.212,-0.2253,-0.2393,-0.2558,-0.2815,-0.2655,-0.2304,-0.1797,-0.1433,-0.045,0.2266,0.2875,0.35,0.5569,0.6329,0.6763,0.7212,0.7559,0.7811,0.7918,0.8887,0.9759,1.0194,1.0175,1.0141,1.0164,1.0154,1.1105,1.3465,1.3658,1.4111,1.52,1.5154,1.499,1.4784,1.4757,1.4658,1.4464,1.4399,1.4374,1.443,1.4794,1.4763,1.4393,1.4581,1.4669,0.0349,0.0279,0.0132,-0.0384,-0.0562,-0.0671,-0.098,-0.1043,-0.0963,-0.0679,-0.0414,0.0,0.0,0.0,0.0,0.0,0.0,0.8587,0.993,1.1903,1.3325,1.3634,1.5009,1.5826,1.5603,1.53,1.4609,1.3345,1.259,1.163,1.0356,0.9595,0.8814,0.7958,0.7722,0.753,0.7411,0.7176,0.7009,0.6891,0.6517,0.6224,0.6034,0.5646,0.526,0.4923,0.4578,0.4333,0.4065,0.3069,0.265,0.2543,0.1602,0.1188,0.1121,0.1046,0.067,0.0184,0.0169,-0.0097,-0.0465,-0.0627,-0.1058,-0.1532,-0.1664,-0.1941,-0.2252,-0.2402,-0.2578,-0.275,-0.2911,-0.25,-0.1943,-0.1539,-0.0752,0.0487,0.2632,0.3334,0.4086,0.5817,0.6591,0.7163,0.779,0.7821,0.7743,0.7732,0.8685,0.9594,1.0139,1.0169,1.0147,1.0199,1.0482,1.1416,1.3292,1.3654,1.4204,1.5171,1.5112,1.4927,1.4631,1.4719,1.4698,1.4533,1.4519,1.4585,1.4717,1.5229,1.5273,1.4905,1.4832,1.485,0.0821,0.059,0.032,0.0049,-0.0309,-0.0651,-0.0865,-0.1148,-0.1394,-0.145,-0.1403,-0.1346,-0.1329,0.0,0.0,0.0,0.0,0.0,0.0,1.1806,1.2733,1.3503,1.5752,1.7183,1.7056,1.6383,1.5668,1.4976,1.4298,1.3211,1.1623,1.0848,0.9923,0.8798,0.8002,0.753,0.7411,0.7258,0.716,0.7091,0.6824,0.6579,0.6369,0.6035,0.5653,0.527,0.4923,0.4677,0.4395,0.3263,0.2763,0.2601,0.1664,0.1262,0.1184,0.1129,0.0918,0.0665,0.0608,0.0319,-0.0033,-0.0098,-0.0531,-0.105,-0.1179,-0.1593,-0.2051,-0.2252,-0.2402,-0.2549,-0.276,-0.2357,-0.1803,-0.1408,0.0095,0.1829,0.3265,0.4604,0.5805,0.6857,0.7234,0.7591,0.8266,0.8537,0.8823,0.9251,0.9801,1.017,1.0202,1.0202,1.0199,1.0208,1.1188,1.2102,1.2779,1.3551,1.431,1.5066,1.497,1.484,1.471,1.4709,1.4678,1.4603,1.4728,1.484,1.499,1.5068,1.5139,1.5203,1.5776,1.5734,0.0919,0.0862,0.0727,0.0413,0.0164,-0.0115,-0.0532,-0.1037,-0.1432,-0.154,-0.2251,-0.2566,-0.1571,0.0,0.0,0.0,0.0,0.0,0.0,1.0794,1.3303,1.4516,1.6269,1.7362,1.7352,1.7703,1.6924,1.4526,1.4738,1.4114,1.2041,1.1742,1.1137,1.0096,0.975,0.9515,0.9388,0.8598,0.8152,0.8085,0.737,0.6901,0.6664,0.6411,0.6029,0.5545,0.5251,0.4972,0.4639,0.3894,0.3345,0.2908,0.227,0.1767,0.1384,0.1221,0.0995,0.0759,0.069,0.0427,0.0153,0.0262,0.0043,-0.041,-0.1172,-0.1591,-0.1972,-0.2788,-0.3185,-0.3401,-0.3614,-0.239,-0.1192,-0.1551,0.0583,0.2873,0.3521,0.4611,0.5762,0.6769,0.746,0.8017,0.8459,0.9022,0.9525,0.982,1.0057,1.0198,1.0191,1.0087,1.0031,1.006,1.0893,1.1748,1.2532,1.3913,1.4859,1.5159,1.5035,1.4928,1.4849,1.4785,1.4729,1.4678,1.4804,1.4911,1.4992,1.5114,1.5188,1.5214,1.5453,1.546,0.1045,0.1051,0.0973,0.0676,0.0555,0.0278,-0.0612,-0.1175,-0.1657,-0.2177,-0.2968,-0.328,-0.2316,-0.1408,0.0,0.0,0.0,0.0,0.0,1.0639,1.33,1.49,1.6651,1.7686,1.761,1.8136,1.7553,1.5306,1.5192,1.4483,1.2835,1.251,1.2033,1.1292,1.0951,1.0713,1.0605,0.986,0.9405,0.9259,0.8282,0.7691,0.7469,0.6977,0.6502,0.6029,0.58,0.5497,0.5155,0.4586,0.3959,0.3305,0.2854,0.2274,0.1645,0.14,0.1179,0.1009,0.0965,0.0821,0.0688,0.0843,0.0674,0.029,-0.0405,-0.0936,-0.1519,-0.248,-0.3267,-0.3821,-0.3931,-0.2342,-0.0816,-0.129,0.1462,0.4253,0.4479,0.571,0.698,0.7655,0.822,0.8699,0.8972,0.9465,0.99,1.0075,1.0164,1.0186,1.0135,1.0016,0.9949,0.9963,1.0994,1.2186,1.3352,1.45,1.5122,1.5124,1.5033,1.4928,1.4867,1.4804,1.4766,1.4766,1.4876,1.5117,1.5494,1.5613,1.5815,1.6122,1.6172,1.6033]}]]